[[{"header":{"parameterUnit":"m.s-1","parameterCategory":1,"la1":30.6,"la2":29.2853,"lo1":-89.7004,"lo2":-87.6739,"dy":0.0162,"dx":0.0183,"nx":112,"ny":82,"refTime":"2023-11-18T06:00:00:Z","depth":0,"parameterNumber":2,"parameterNumberName":"U-component_of_WINDS"},"data":[0.0,0.0,0.0,0.0,0.0,0.0,0.0,0.0,0.0,0.0,0.0,0.0,0.0,0.0,0.0,0.0,0.0,0.0,0.0,0.0,0.0,0.0,0.0,0.0,0.0,0.0,0.0,0.0,0.0,0.0,0.0,0.0,0.0,0.0,0.0,0.0,0.0,0.0,0.0,0.0,0.0,0.0,0.0,0.0,0.0,0.0,0.0,0.0,0.0,0.0,0.0,0.0,0.0,0.0,0.0,0.0,0.0,0.0,0.0,0.0,0.0,0.0,0.0,0.0,0.0,0.0,0.0,0.0,0.0,0.0,0.0,0.0,0.0,0.0,0.0,0.0,0.0,0.0,0.0,0.0,0.0,0.0,0.0,0.0,0.0,0.0,0.0,0.0,0.0,0.0,-0.7445,-0.7823,-0.9753,-1.1007,-1.1003,-1.07,-1.0271,-0.9739,0.0,0.0,0.0,0.0,0.0,0.0,0.0,0.0,0.0,0.0,0.0,0.0,0.0,0.0,0.0,0.0,0.0,0.0,0.0,0.0,0.0,0.0,0.0,0.0,0.0,0.0,0.0,0.0,0.0,0.0,0.0,0.0,0.0,0.0,0.0,0.0,0.0,0.0,0.0,0.0,0.0,0.0,0.0,0.0,0.0,0.0,0.0,0.0,0.0,0.0,0.0,0.0,0.0,0.0,0.0,0.0,0.0,0.0,0.0,0.0,0.0,0.0,0.0,0.0,0.0,0.0,0.0,0.0,0.0,0.0,0.0,0.0,0.0,0.0,0.0,0.0,0.0,0.0,0.0,0.0,0.0,0.0,0.0,0.0,0.0,0.0,0.0,0.0,0.0,0.0,0.0,0.0,0.0,0.0,0.0,0.0,0.0,0.0,0.0,0.0,0.0,0.0,0.0,0.0,-0.8043,-1.022,-1.0785,-1.0999,-1.1002,-0.9636,-0.9041,-0.9662,0.0,0.0,0.0,0.0,0.0,0.0,0.0,0.0,0.0,0.0,0.0,0.0,0.0,0.0,0.0,0.0,0.0,0.0,0.0,0.0,0.0,0.0,0.0,0.0,0.0,0.0,0.0,0.0,0.0,0.0,0.0,0.0,0.0,0.0,0.0,0.0,0.0,0.0,0.0,0.0,0.0,0.0,0.0,0.0,0.0,0.0,0.0,0.0,0.0,0.0,0.0,0.0,0.0,0.0,0.0,0.0,0.0,0.0,0.0,0.0,0.0,0.0,0.0,0.0,0.0,0.0,0.0,0.0,0.0,0.0,0.0,0.0,0.0,0.0,0.0,0.0,0.0,0.0,0.0,0.0,0.0,0.0,0.0,0.0,0.0,0.0,0.0,0.0,0.0,0.0,0.0,0.0,0.0,0.0,0.0,0.0,0.0,0.0,0.0,0.0,0.0,0.0,0.0,-0.6998,-0.8055,-1.0131,-1.0358,-1.0317,-1.0255,-0.8982,-0.8577,-0.9482,-0.8939,0.0,0.0,0.0,0.0,0.0,0.0,0.0,0.0,0.0,0.0,0.0,0.0,0.0,0.0,0.0,0.0,0.0,0.0,0.0,0.0,0.0,0.0,0.0,0.0,0.0,0.0,0.0,0.0,0.0,0.0,0.0,0.0,0.0,0.0,0.0,0.0,0.0,0.0,0.0,0.0,0.0,0.0,0.0,0.0,0.0,0.0,0.0,0.0,0.0,0.0,0.0,0.0,0.0,0.0,0.0,0.0,0.0,0.0,0.0,0.0,0.0,0.0,0.0,0.0,0.0,0.0,0.0,0.0,0.0,0.0,0.0,0.0,0.0,0.0,0.0,0.0,0.0,0.0,0.0,0.0,0.0,0.0,0.0,0.0,0.0,0.0,0.0,0.0,0.0,0.0,0.0,0.0,0.0,0.0,0.0,0.0,0.0,0.0,0.0,0.0,0.0,0.0,-0.7474,-0.8144,-0.9634,-0.9804,-0.9673,-0.9338,-0.8392,-0.8191,-0.9059,-0.815,0.0,0.0,0.0,0.0,0.0,0.0,0.0,0.0,0.0,0.0,0.0,0.0,0.0,0.0,0.0,0.0,0.0,0.0,0.0,0.0,0.0,0.0,0.0,0.0,0.0,0.0,0.0,0.0,0.0,0.0,0.0,0.0,0.0,0.0,0.0,0.0,0.0,0.0,0.0,0.0,0.0,0.0,0.0,0.0,0.0,0.0,0.0,0.0,0.0,0.0,0.0,0.0,0.0,0.0,0.0,0.0,0.0,0.0,0.0,0.0,0.0,0.0,0.0,0.0,0.0,0.0,0.0,0.0,0.0,0.0,0.0,0.0,0.0,0.0,0.0,0.0,0.0,0.0,0.0,0.0,0.0,0.0,0.0,0.0,0.0,0.0,0.0,0.0,0.0,0.0,0.0,0.0,0.0,0.0,0.0,0.0,0.0,0.0,0.0,0.0,0.0,0.0,-0.7947,-0.8773,-0.9708,-0.9804,-0.9439,-0.8564,-0.7723,-0.755,-0.8239,-0.7463,0.0,0.0,0.0,0.0,0.0,0.0,0.0,0.0,0.0,0.0,0.0,0.0,0.0,0.0,0.0,0.0,0.0,0.0,0.0,0.0,0.0,0.0,0.0,0.0,0.0,0.0,0.0,0.0,0.0,0.0,0.0,0.0,0.0,0.0,0.0,0.0,0.0,0.0,0.0,0.0,0.0,0.0,0.0,0.0,0.0,0.0,0.0,0.0,0.0,0.0,0.0,0.0,0.0,0.0,0.0,0.0,0.0,0.0,0.0,0.0,0.0,0.0,0.0,0.0,0.0,0.0,0.0,0.0,0.0,0.0,0.0,0.0,0.0,0.0,0.0,0.0,0.0,0.0,0.0,0.0,0.0,0.0,0.0,0.0,0.0,0.0,0.0,0.0,0.0,0.0,0.0,0.0,0.0,0.0,0.0,0.0,0.0,0.0,0.0,0.0,0.0,0.0,-0.7919,-0.8764,-0.9647,-0.9323,-0.8868,-0.837,-0.7649,-0.7446,-0.8031,0.0,0.0,0.0,0.0,0.0,0.0,0.0,0.0,0.0,0.0,0.0,0.0,0.0,0.0,0.0,0.0,0.0,0.0,0.0,0.0,0.0,0.0,0.0,0.0,0.0,0.0,0.0,0.0,0.0,0.0,0.0,0.0,0.0,0.0,0.0,0.0,0.0,0.0,0.0,0.0,0.0,0.0,0.0,0.0,0.0,0.0,0.0,0.0,0.0,0.0,0.0,0.0,0.0,0.0,0.0,0.0,0.0,0.0,0.0,0.0,0.0,0.0,0.0,0.0,0.0,0.0,0.0,0.0,0.0,0.0,0.0,0.0,0.0,0.0,0.0,0.0,0.0,0.0,0.0,0.0,0.0,0.0,0.0,0.0,0.0,0.0,0.0,0.0,0.0,0.0,0.0,0.0,0.0,0.0,0.0,0.0,0.0,0.0,0.0,0.0,0.0,0.0,-0.7059,-0.7643,-0.8354,-0.9231,-0.8887,-0.8347,-0.7756,-0.7248,-0.6953,-0.6893,0.0,0.0,0.0,0.0,0.0,0.0,0.0,0.0,0.0,0.0,0.0,0.0,0.0,0.0,0.0,0.0,0.0,0.0,0.0,0.0,0.0,0.0,0.0,0.0,0.0,0.0,0.0,0.0,0.0,0.0,0.0,0.0,0.0,0.0,0.0,0.0,0.0,0.0,0.0,0.0,0.0,0.0,0.0,0.0,0.0,0.0,0.0,0.0,0.0,0.0,0.0,0.0,0.0,0.0,0.0,0.0,0.0,0.0,0.0,0.0,0.0,0.0,0.0,0.0,0.0,0.0,0.0,0.0,0.0,0.0,0.0,0.0,0.0,0.0,0.0,0.0,0.0,0.0,0.0,0.0,0.0,0.0,0.0,0.0,0.0,0.0,0.0,0.0,0.0,0.0,0.0,0.0,0.0,0.0,0.0,0.0,0.0,0.0,0.0,0.0,0.0,0.0,-0.6983,-0.7154,-0.7537,-0.8414,-0.8551,-0.798,-0.6518,-0.6429,-0.5898,0.0,0.0,0.0,0.0,0.0,0.0,0.0,0.0,0.0,0.0,0.0,0.0,0.0,0.0,0.0,0.0,0.0,0.0,0.0,0.0,0.0,0.0,0.0,0.0,0.0,0.0,0.0,0.0,0.0,0.0,0.0,0.0,0.0,0.0,0.0,0.0,0.0,0.0,0.0,0.0,0.0,0.0,0.0,0.0,0.0,0.0,0.0,0.0,0.0,0.0,0.0,0.0,0.0,0.0,0.0,0.0,0.0,0.0,0.0,0.0,0.0,0.0,0.0,0.0,0.0,0.0,0.0,0.0,0.0,0.0,0.0,0.0,0.0,0.0,0.0,0.0,0.0,0.0,0.0,0.0,0.0,0.0,0.0,0.0,0.0,0.0,0.0,0.0,0.0,0.0,0.0,0.0,0.0,0.0,0.0,0.0,0.0,0.0,0.0,0.0,0.0,0.0,0.0,-0.7056,-0.7137,-0.7519,-0.834,-0.7481,-0.6714,-0.6424,-0.4686,-0.3862,-0.4469,0.0,0.0,0.0,0.0,0.0,0.0,0.0,0.0,0.0,0.0,0.0,0.0,0.0,0.0,0.0,0.0,0.0,0.0,0.0,0.0,0.0,0.0,0.0,0.0,0.0,0.0,0.0,0.0,0.0,0.0,0.0,0.0,0.0,0.0,0.0,0.0,0.0,0.0,0.0,0.0,0.0,0.0,0.0,0.0,0.0,0.0,0.0,0.0,0.0,0.0,0.0,0.0,0.0,0.0,0.0,0.0,0.0,0.0,0.0,0.0,0.0,0.0,0.0,0.0,0.0,0.0,0.0,0.0,0.0,0.0,0.0,0.0,0.0,0.0,0.0,0.0,0.0,0.0,0.0,0.0,0.0,0.0,0.0,0.0,0.0,0.0,0.0,0.0,0.0,0.0,0.0,0.0,0.0,0.0,0.0,0.0,0.0,0.0,0.0,0.0,0.0,0.0,-0.702,-0.6826,-0.7014,-0.7804,-0.678,-0.5997,-0.5811,-0.3706,-0.2482,-0.269,0.0,0.0,0.0,0.0,0.0,0.0,0.0,0.0,0.0,0.0,0.0,0.0,0.0,0.0,0.0,0.0,0.0,0.0,0.0,0.0,0.0,0.0,0.0,0.0,0.0,0.0,0.0,0.0,0.0,0.0,0.0,0.0,0.0,0.0,0.0,0.0,0.0,0.0,0.0,0.0,0.0,0.0,0.0,0.0,0.0,0.0,0.0,0.0,0.0,0.0,0.0,0.0,0.0,0.0,0.0,0.0,0.0,0.0,0.0,0.0,0.0,0.0,0.0,0.0,0.0,0.0,0.0,0.0,0.0,0.0,0.0,0.0,0.0,0.0,0.0,0.0,0.0,0.0,0.0,0.0,0.0,0.0,0.0,0.0,0.0,0.0,0.0,0.0,0.0,0.0,0.0,0.0,0.0,0.0,0.0,0.0,0.0,0.0,0.0,0.0,0.0,0.0,-0.69,-0.6373,-0.6284,-0.7014,-0.6377,-0.5625,-0.4947,-0.3504,-0.1872,-0.0111,0.0,0.0,0.0,0.0,0.0,0.0,0.0,0.0,0.0,0.0,0.0,0.0,0.0,0.0,0.0,0.0,0.0,0.0,0.0,0.0,0.0,0.0,0.0,0.0,0.0,0.0,0.0,0.0,0.0,0.0,0.0,0.0,0.0,0.0,0.0,0.0,0.0,0.0,0.0,0.0,0.0,0.0,0.0,0.0,0.0,0.0,0.0,0.0,0.0,0.0,0.0,0.0,0.0,0.0,0.0,0.0,0.0,0.0,0.0,0.0,-1.0772,-0.943,0.0,0.0,0.0,0.0,0.0,0.0,0.0,0.0,0.0,0.0,0.0,0.0,0.0,0.0,0.0,0.0,0.0,0.0,0.0,0.0,0.0,0.0,0.0,0.0,0.0,0.0,0.0,0.0,0.0,0.0,0.0,0.0,0.0,0.0,0.0,0.0,0.0,0.0,0.0,0.0,-0.697,-0.6334,-0.6214,-0.7025,-0.5867,-0.4998,-0.4843,-0.4545,-0.3118,-0.0186,-0.1203,0.0,0.0,0.0,0.0,0.0,0.0,0.0,0.0,0.0,0.0,0.0,0.0,0.0,0.0,0.0,0.0,0.0,0.0,0.0,0.0,0.0,0.0,0.0,0.0,0.0,0.0,0.0,0.0,0.0,0.0,0.0,0.0,0.0,0.0,0.0,0.0,0.0,0.0,0.0,0.0,0.0,0.0,0.0,0.0,0.0,0.0,0.0,0.0,0.0,0.0,0.0,0.0,0.0,0.0,0.0,0.0,0.0,0.0,0.0,-1.2162,-1.0949,0.0,0.0,0.0,0.0,0.0,0.0,0.0,0.0,0.0,0.0,0.0,0.0,0.0,0.0,0.0,0.0,0.0,0.0,0.0,0.0,0.0,0.0,0.0,0.0,0.0,0.0,0.0,0.0,0.0,0.0,0.0,0.0,0.0,0.0,0.0,0.0,0.0,0.0,0.0,0.0,-0.8047,-0.7105,-0.6744,-0.759,-0.6382,-0.5018,-0.3759,-0.435,-0.3429,-0.0201,0.0,0.0,0.0,0.0,0.0,0.0,0.0,0.0,0.0,0.0,0.0,0.0,0.0,0.0,0.0,0.0,0.0,0.0,0.0,0.0,0.0,0.0,0.0,0.0,0.0,0.0,0.0,0.0,0.0,0.0,0.0,0.0,0.0,0.0,0.0,0.0,0.0,0.0,0.0,0.0,0.0,0.0,0.0,0.0,0.0,0.0,0.0,0.0,0.0,0.0,0.0,0.0,0.0,0.0,-1.6505,-1.6682,-1.7357,-1.673,-1.6576,-1.6651,-1.3966,-1.3077,-1.3427,-1.1858,0.0,0.0,0.0,0.0,0.0,0.0,0.0,0.0,0.0,0.0,0.0,0.0,0.0,0.0,0.0,0.0,0.0,0.0,0.0,0.0,0.0,0.0,-0.9703,-1.0414,-1.0399,-1.0081,-0.9654,0.0,0.0,0.0,0.0,0.0,0.0,0.0,0.0,0.0,0.0,0.0,-0.9045,-0.8006,-0.7491,-0.8205,-0.7161,-0.535,-0.2703,-0.3755,-0.3349,-0.0522,-0.0342,-0.0538,0.0,0.0,0.0,0.0,0.0,0.0,0.0,0.0,0.0,0.0,0.0,0.0,0.0,0.0,0.0,0.0,0.0,0.0,0.0,0.0,0.0,0.0,0.0,0.0,0.0,0.0,0.0,0.0,0.0,0.0,0.0,0.0,-1.2433,-1.2488,0.0,0.0,0.0,0.0,0.0,0.0,0.0,0.0,0.0,0.0,0.0,0.0,0.0,-1.6158,-1.9075,-1.8672,-1.9363,-2.1193,-2.165,-2.1338,-2.0424,-2.0317,-2.0021,-1.948,-1.7575,0.0,-1.5211,-1.4389,0.0,0.0,0.0,0.0,0.0,0.0,0.0,0.0,0.0,0.0,0.0,0.0,0.0,0.0,0.0,0.0,0.0,0.0,0.0,0.0,0.0,0.0,-1.1841,-1.1441,-1.0383,-0.966,-1.0426,-0.9507,-0.8757,-0.9516,-0.9738,-0.9743,0.0,0.0,0.0,0.0,0.0,0.0,-0.8505,-0.8175,-0.8089,-0.82,-0.7423,-0.5797,-0.3071,-0.3558,-0.335,-0.1835,-0.1741,-0.2645,-0.4689,-0.5965,0.0,0.0,0.0,0.0,0.0,0.0,0.0,0.0,0.0,0.0,0.0,0.0,0.0,0.0,0.0,0.0,0.0,0.0,0.0,0.0,0.0,0.0,0.0,0.0,0.0,0.0,0.0,0.0,0.0,-1.3168,-1.4658,-1.4794,-1.4883,-1.4609,0.0,0.0,0.0,0.0,0.0,0.0,0.0,0.0,0.0,-1.8494,-1.8641,-1.9471,-2.1064,-2.1158,-2.1816,-2.3064,-2.3339,-2.368,-2.4064,-2.3224,-2.305,-2.3246,-2.104,-1.9446,-1.8315,-1.709,-1.5905,-1.4819,0.0,0.0,0.0,0.0,-1.2242,-1.2064,-1.2347,-1.2948,-1.3469,-1.2713,0.0,0.0,0.0,0.0,0.0,0.0,0.0,-1.1633,-1.1521,-1.2043,-1.2587,-1.2434,-1.158,-1.0944,-1.1375,-1.0641,-0.986,-0.9771,-1.0239,-1.0484,-0.9942,-1.0288,0.0,0.0,0.0,-0.9716,-0.9571,-0.9158,-0.8873,-0.8873,-0.8021,-0.6437,-0.3951,-0.3847,-0.3702,-0.3266,-0.3135,-0.353,-0.4563,-0.5398,-0.6206,0.0,0.0,0.0,0.0,0.0,0.0,0.0,0.0,0.0,0.0,0.0,0.0,0.0,0.0,0.0,0.0,0.0,0.0,0.0,0.0,0.0,0.0,0.0,0.0,0.0,0.0,0.0,0.0,-1.4707,-1.6537,-1.6438,-1.6831,-1.6782,0.0,0.0,0.0,0.0,0.0,0.0,-1.8814,-1.948,-2.0471,-2.1937,-2.2521,-2.2958,-2.3223,-2.3734,-2.4223,-2.4704,-2.4857,-2.56,-2.681,-2.5373,-2.5127,-2.5694,-2.3439,-2.1985,-2.1107,-1.9231,-1.767,-1.6503,-1.6907,-1.6003,-1.4575,-1.508,-1.5059,-1.4778,-1.4824,-1.4845,-1.4809,-1.4577,-1.4205,-1.386,-1.3946,0.0,0.0,0.0,0.0,-1.3051,-1.3074,-1.3397,-1.3713,-1.367,-1.2953,-1.229,-1.229,-1.1733,-1.1024,-1.0222,-1.0696,-1.0927,-1.0048,-1.0172,0.0,-1.0734,-1.0248,-1.0014,-1.0522,-1.0081,-0.9706,-0.9706,-0.881,-0.735,-0.5222,-0.4651,-0.4363,-0.424,-0.4064,-0.3972,-0.3972,-0.4726,-0.5508,-0.6284,0.0,0.0,0.0,0.0,0.0,0.0,0.0,0.0,0.0,0.0,0.0,0.0,0.0,0.0,0.0,0.0,0.0,0.0,0.0,0.0,0.0,0.0,0.0,0.0,0.0,0.0,0.0,0.0,0.0,-1.5901,-1.9252,0.0,0.0,0.0,0.0,-1.8298,-1.9496,-2.0955,-2.2526,-2.3258,-2.4287,-2.5691,-2.5953,-2.6226,-2.6573,-2.6847,-2.6927,-2.6857,-2.7405,-2.7737,-2.7786,-2.6496,-2.581,-2.5529,-2.4072,-2.328,-2.288,-2.0445,-1.9181,-1.8719,-1.7623,-1.7543,-1.796,-1.7297,-1.7092,-1.7239,-1.8133,-1.7989,-1.7422,-1.7476,-1.6988,-1.616,-1.4857,-1.4435,0.0,0.0,-1.3546,-1.4627,-1.4013,-1.5024,-1.6044,-1.5342,-1.4088,-1.3043,-1.3043,-1.2623,-1.1953,-1.1019,-1.088,-1.0694,-1.0018,0.0,-1.0803,-0.95,-1.0598,-1.1348,-1.0675,-1.055,-1.0532,-1.0532,-0.9813,-0.8633,-0.6923,-0.6168,-0.5374,-0.4357,-0.423,-0.4182,-0.4182,-0.4174,-0.466,-0.5725,-0.6528,0.0,0.0,0.0,0.0,0.0,0.0,0.0,0.0,0.0,0.0,0.0,0.0,0.0,0.0,0.0,0.0,0.0,0.0,0.0,0.0,0.0,0.0,0.0,0.0,0.0,0.0,0.0,0.0,-1.9942,-2.1755,0.0,-2.1391,-2.1549,-2.1816,-2.2033,-2.3816,-2.5111,-2.5654,-2.6722,-2.7515,-2.7971,-2.8066,-2.8157,-2.8284,-2.8278,-2.8276,-2.8225,-2.8333,-2.8472,-2.8528,-2.7899,-2.7602,-2.7486,-2.565,-2.4799,-2.4608,-2.2807,-2.1931,-2.1615,-2.0749,-2.0273,-2.0036,-2.0028,-1.9777,-1.9449,-1.9608,-1.9238,-1.8536,-1.76,-1.711,-1.6795,-1.6523,-1.6432,-1.6329,-1.5817,-1.6103,-1.651,-1.627,-1.6309,-1.6337,-1.6072,-1.5242,-1.4529,-1.4529,-1.3986,-1.3281,-1.2464,-1.2069,-1.1739,-1.1323,-1.1353,-1.1386,-1.1287,-1.1517,-1.1603,-1.1336,-1.1318,-1.1323,-1.1368,-1.0195,-0.8926,-0.7765,-0.6498,-0.5368,-0.4422,-0.4254,-0.4227,-0.4261,-0.4201,-0.4288,-0.4544,-0.4019,-0.4105,0.0,0.0,0.0,0.0,0.0,0.0,0.0,0.0,0.0,0.0,0.0,0.0,0.0,0.0,0.0,0.0,0.0,0.0,0.0,0.0,0.0,0.0,0.0,0.0,0.0,-1.9637,-2.2077,-2.3041,-2.4622,-2.5532,-2.5242,-2.5267,-2.5545,-2.6134,-2.7717,-2.8655,-2.8655,-2.9498,-2.993,-2.9845,-2.9873,-2.977,-2.9422,-2.9244,-2.9003,-2.8736,-2.8797,-2.8889,-2.8943,-2.8702,-2.8595,-2.8494,-2.6701,-2.5894,-2.5728,-2.4623,-2.4196,-2.4114,-2.3157,-2.2459,-2.2021,-2.2016,-2.1745,-2.1279,-2.061,-2.0105,-1.9569,-1.8342,-1.7911,-1.7915,-1.8137,-1.8021,-1.7888,-1.8137,-1.7868,-1.7553,-1.7773,-1.7304,-1.6768,-1.6768,-1.6204,-1.5674,-1.5674,-1.5083,-1.4427,-1.3939,-1.2992,-1.2145,-1.1755,-1.1537,-1.1549,-1.2003,-1.2041,-1.205,-1.205,-1.208,-1.2127,-1.2168,-1.1015,-0.969,-0.8277,-0.7412,-0.6254,-0.4611,-0.4636,-0.4597,-0.4386,-0.4608,-0.4727,-0.4717,-0.3599,-0.4434,-0.7338,0.0,0.0,0.0,0.0,0.0,0.0,0.0,0.0,0.0,0.0,0.0,0.0,0.0,0.0,0.0,0.0,0.0,0.0,0.0,0.0,0.0,0.0,0.0,-1.9058,-2.2762,-2.5252,-2.4873,-2.7892,-2.9574,-2.8456,-2.952,-3.0346,-3.0501,-3.1068,-3.1454,-3.154,-3.1555,-3.1482,-3.1307,-3.1438,-3.1067,-3.0157,-2.9799,-2.9223,-2.8461,-2.89,-2.9097,-2.9081,-2.8909,-2.8686,-2.8367,-2.7192,-2.6528,-2.6234,-2.5752,-2.5809,-2.6053,-2.4545,-2.3984,-2.3934,-2.3142,-2.2845,-2.2659,-2.1232,-2.0718,-2.0586,-1.9879,-1.9617,-1.9601,-1.9601,-1.9088,-1.8675,-1.9402,-1.8621,-1.7718,-1.8373,-1.8038,-1.7536,-1.7553,-1.6984,-1.6437,-1.647,-1.5873,-1.5325,-1.5325,-1.36,-1.1916,-1.1294,-1.1219,-1.1288,-1.1438,-1.2176,0.0,-1.2745,-1.2856,-1.2938,-1.2932,-1.2359,-1.0982,-0.8548,-0.8983,-0.8061,-0.4904,-0.5311,-0.5318,-0.453,-0.5311,-0.5933,-0.6305,-0.5497,-0.7244,-1.1633,0.0,0.0,0.0,0.0,0.0,0.0,0.0,0.0,0.0,0.0,0.0,0.0,0.0,0.0,0.0,0.0,0.0,0.0,0.0,0.0,0.0,-2.113,-2.3168,-2.3696,-2.5586,-2.7671,-2.9796,-3.1293,-3.2061,-3.1916,-3.2228,-3.2496,-3.2632,-3.3259,-3.3215,-3.2273,-3.2706,-3.2482,-3.1468,-3.1467,-3.1392,-3.1112,-3.0458,-3.0003,-2.9763,-2.9326,-2.8912,-2.8528,-2.923,-2.9296,-2.8896,-2.8715,-2.8309,-2.7744,-2.7088,-2.6576,-2.6134,-2.5352,-2.4965,-2.4696,-2.3951,-2.3007,-2.2029,-2.1647,-2.1149,-2.0669,-2.0456,-2.0028,-1.9601,-1.9601,-1.9452,-1.9336,-1.9535,-1.9316,-1.9068,-1.925,-1.877,-1.8356,-1.8902,-1.8087,-1.7321,-1.7822,-1.6956,-1.6105,-1.6105,-1.5207,-1.4222,-1.3475,-1.2635,-1.2263,-1.2833,-1.2875,-1.3046,-1.3574,-1.3761,-1.3828,-1.3788,-1.3687,-1.2416,-0.9363,-0.9331,-0.8107,-0.4907,-0.4787,-0.4723,-0.4508,-0.4722,-0.534,-0.6348,-0.6652,-0.795,0.0,0.0,0.0,0.0,0.0,0.0,0.0,0.0,0.0,0.0,0.0,0.0,0.0,0.0,0.0,0.0,0.0,0.0,0.0,0.0,0.0,0.0,-2.414,-2.7032,-2.8614,-2.9347,-3.0528,-3.2713,-3.3528,-3.3991,-3.4195,-3.4226,-3.4258,-3.4337,-3.4427,-3.4054,-3.2976,-3.3021,-3.2617,-3.154,-3.1511,-3.1511,-3.1511,-3.0767,-3.0384,-3.0369,-2.9571,-2.9017,-2.8735,-2.927,-2.9301,-2.8952,-2.9067,-2.8843,-2.8343,-2.7597,-2.705,-2.6599,0.0,0.0,0.0,0.0,-2.3073,-2.1812,-2.1812,-2.1531,-2.1166,-2.1166,-2.087,-2.0508,-2.0508,-2.0309,-2.0141,-2.0425,-2.0078,-1.9667,-1.9978,-1.9515,-1.9072,-1.9502,-1.8969,-1.8485,-1.8886,-1.8319,-1.7652,-1.7372,-1.6781,0.0,-1.5332,-1.4384,-1.3905,-1.4427,-1.4006,-1.3911,-1.4726,-1.4385,-1.4199,-1.4555,-1.4421,-1.3257,-1.0663,-1.0794,0.0,0.0,0.0,-0.5755,-0.5073,-0.5346,0.0,0.0,0.0,-0.8291,-0.8267,-0.7448,0.0,0.0,-1.0127,-0.9317,0.0,0.0,0.0,0.0,0.0,0.0,0.0,0.0,0.0,0.0,0.0,0.0,0.0,0.0,0.0,0.0,-2.6557,-3.0017,-3.3104,-3.3271,-3.3397,-3.4248,-3.4874,-3.5294,-3.5472,-3.5504,-3.5504,-3.5504,-3.4936,-3.4339,-3.3649,-3.2976,0.0,0.0,0.0,-3.1511,-3.1511,-3.0851,-3.0507,-3.0492,-2.9635,-2.9225,-2.9209,-2.906,-2.8885,-2.8667,-2.8774,-2.8673,-2.8381,-2.7694,-2.7315,-2.7116,-2.6468,-2.6152,-2.5921,-2.4613,-2.3189,-2.1928,-2.1928,0.0,0.0,-2.1812,-2.1812,-2.1812,-2.1812,-2.1348,-2.0967,-2.1613,-2.087,-1.9995,-2.0638,-2.0274,-1.9747,-1.9829,-1.9717,-1.9617,-1.9714,-1.9664,-1.9409,-1.8735,-1.8145,-1.7518,-1.6867,-1.6049,-1.5571,-1.5856,-1.5165,-1.4951,-1.5897,-1.4947,-1.4502,-1.5317,-1.4993,0.0,-1.2182,-1.2762,-1.2173,-0.9667,-0.8604,-0.7433,-0.5986,-0.6384,-0.7031,-0.7859,-0.8637,-0.8095,-0.6222,-0.7322,-0.7418,-0.663,-0.8425,-0.8258,0.0,0.0,0.0,0.0,0.0,0.0,0.0,0.0,0.0,0.0,0.0,0.0,0.0,0.0,0.0,-2.8045,-3.0499,-3.2784,-3.478,-3.4889,-3.4854,-3.5215,-3.535,-3.5472,-3.5504,-3.5504,-3.5504,-3.5504,-3.5385,-3.5011,-3.4354,-3.3664,-3.3006,-3.2318,-3.178,-3.1511,-3.1511,-3.0851,-3.0507,-3.0492,-2.9312,0.0,-2.8744,-2.8529,-2.8442,-2.842,-2.9237,-2.9221,-2.8628,-2.8303,-2.7497,-2.6402,-2.6252,-2.5838,-2.5292,-2.4994,-2.3951,-2.2691,-2.2691,-2.2294,-2.1812,-2.1812,-2.1812,-2.1812,-2.1812,-2.1713,0.0,-2.1763,-2.1582,-2.14,-2.1547,-2.105,-2.0652,-2.1234,-2.0458,-1.9777,-2.0428,-2.0093,-1.9471,-1.8809,-1.862,-1.8395,-1.7829,-1.6047,-1.4984,-1.5787,-1.5201,-1.5021,-1.5967,-1.5987,-1.5978,-1.6096,-1.6756,-1.5994,-1.3046,-1.3564,-1.275,-0.9685,-0.8123,-0.7144,-0.6789,-0.5659,-0.5126,-0.5317,-0.6203,-0.6349,-0.5744,-0.6135,-0.6172,-0.5901,-0.6411,-0.6053,0.0,0.0,0.0,0.0,0.0,0.0,0.0,0.0,0.0,0.0,0.0,-2.0553,0.0,0.0,-2.8522,-2.9959,-3.2397,-3.4424,-3.5382,-3.5407,-3.5392,-3.5504,-3.5504,-3.5504,-3.5504,-3.5504,-3.5504,-3.5504,-3.5504,-3.5205,-3.4548,-3.3844,-3.3185,-3.2512,-3.1854,-3.1511,-3.1511,-3.1167,-3.0987,-3.0972,-3.0028,-2.9385,-2.9097,-2.8651,-2.8396,-2.8312,-2.8834,-2.8989,-2.8836,-2.8249,-2.7306,-2.6202,-2.6202,-2.5739,-2.511,-2.511,-2.4398,-2.3454,-2.3454,-2.3205,-2.2841,-2.246,-2.2344,-2.2278,-2.1912,-2.2061,-2.2261,-2.1897,-2.2077,-2.2261,-2.1912,-2.1531,-2.1348,-2.1713,-2.1234,-2.0818,-2.1254,-2.1066,-2.0611,-1.9978,-1.9567,-1.9159,-1.8557,-1.7171,-1.6343,-1.6915,-1.6331,-1.6152,-1.6991,-1.672,-1.6578,-1.6911,-1.7159,-1.6624,-1.4997,-1.4884,-1.3877,-1.1453,-1.0141,-0.8727,-0.7116,-0.6565,-0.5922,-0.5114,-0.5928,-0.628,-0.6146,-0.5884,-0.5712,-0.5651,-0.537,-0.5027,0.0,0.0,0.0,0.0,0.0,0.0,0.0,0.0,-1.8692,-2.0932,-2.2373,-2.381,-2.5699,-2.8483,-3.0703,-3.1421,-3.3627,-3.5326,-3.5472,-3.5504,-3.5459,-3.5325,-3.5429,-3.5504,-3.5504,-3.5504,-3.5504,-3.5504,-3.5504,-3.5265,-3.4728,-3.3933,-3.3245,-3.2721,-3.1914,-3.1511,-3.1511,-3.1511,-3.1511,-3.1496,-3.0808,-3.0238,-2.9756,-2.8951,-2.8509,-2.8357,-2.8317,-2.8513,-2.8835,-2.8004,-2.7201,-2.6471,-2.6471,-2.6099,-2.5508,-2.5375,-2.4862,-2.4216,-2.4216,-2.4116,-2.3901,-2.3305,-2.3106,-2.3007,-2.241,-2.2642,-2.299,-2.2377,-2.2674,-2.2973,-2.2377,-2.2243,-2.2193,-2.2059,-2.2142,-2.2189,-2.1995,-2.2074,-2.1936,-2.119,-2.0548,-1.9921,-1.9237,-1.8611,-1.82,-1.811,-1.7559,-1.7377,-1.8021,-1.7344,-1.7045,-1.7622,-1.7322,-1.7001,-1.6887,-1.6168,-1.5187,-1.3872,-1.2709,-1.0774,-0.7924,-0.7808,-0.7038,-0.5411,-0.5969,-0.628,-0.6263,-0.567,-0.5385,-0.5395,-0.4854,-0.4622,-1.4157,-1.399,-1.4373,-1.4992,-1.6254,-1.8088,0.0,0.0,-2.2445,-2.6002,-2.7563,-2.8895,-3.0892,-3.2731,-3.4153,-3.484,-3.5245,-3.5472,-3.5504,-3.5504,-3.528,-3.4698,-3.513,-3.5504,-3.5504,-3.5504,-3.5504,-3.5504,-3.5504,-3.5474,-3.5385,-3.4188,-3.3469,-3.338,-3.2153,-3.1511,-3.1511,-3.1511,-3.1511,-3.1496,-3.0808,-3.0462,-3.0357,-2.9146,-2.8588,-2.8572,-2.8385,-2.8233,-2.8104,-2.799,-2.7748,-2.7454,-2.7454,-2.7267,-2.6967,-2.6319,-2.5624,-2.4978,-2.4978,-2.4547,-2.3984,-2.3901,-2.3884,-2.3868,-2.3785,-2.3818,-2.3868,-2.3785,-2.3818,-2.3868,-2.3785,-2.3752,-2.3602,-2.3017,-2.3365,-2.353,-2.2411,-2.2673,-2.275,-2.1434,-2.1109,-2.0805,-2.0014,-1.9811,-1.9389,-1.8265,-1.7885,-1.7803,-1.8069,-1.8004,-1.7948,-1.8042,-1.8208,-1.8072,-1.7531,-1.6939,-1.6494,-1.6312,-1.4197,-1.216,-1.0365,-0.8247,-0.6322,-0.4651,-0.4712,-0.475,-0.475,-0.4668,-0.466,-0.4717,-0.4639,-0.4596,-1.6553,-1.6357,-1.6802,0.0,-1.9877,-2.1428,-2.3682,-2.4763,-2.6059,-2.883,-3.0423,-3.1825,-3.3593,-3.4537,-3.5175,0.0,-3.5504,-3.5504,-3.5504,-3.516,-3.4666,-3.3978,-3.4158,-3.4487,-3.4876,-3.4906,-3.507,-3.5474,-3.5504,-3.5504,-3.5504,-3.4592,-3.3888,-3.3499,-3.2587,-3.1884,-3.1511,-3.1511,-3.1511,-3.1511,-3.1212,-3.0702,-2.9953,-2.9415,-2.8768,-2.8004,-2.7931,-2.7743,-2.7534,-2.7542,-2.7406,-2.7222,-2.7497,-2.7559,-2.7414,-2.6988,-2.6369,-2.5739,-2.5739,-2.554,-2.5209,-2.4779,-2.4646,-2.4564,-2.4133,-2.4299,-2.4547,-2.4116,-2.4315,-2.4547,-2.4116,-2.4,-2.3918,-2.3651,-2.3849,-2.3963,-2.3472,-2.3664,-2.3774,-2.3224,-2.2781,-2.2361,-2.204,-2.1278,-2.0522,-1.9989,-1.9172,-1.8449,-1.7983,-1.8166,-1.833,-1.833,-1.8428,-1.8449,-1.8306,-1.7652,-1.7275,-1.7392,-1.6015,-1.427,-1.2178,-1.0199,-0.814,-0.6005,-0.5001,-0.4499,-0.4499,-0.4499,-0.451,-0.4542,-0.4582,-0.4618,-1.7966,-1.8152,0.0,-2.1309,-2.2952,-2.4342,-2.5762,-2.7105,-2.8584,-3.0528,-3.1834,-3.3102,-3.4632,-3.5076,-3.522,-3.522,-3.5385,-3.5504,-3.5504,-3.4756,-3.4023,-3.3559,-3.317,-3.3215,-3.3873,-3.4129,-3.4487,-3.5175,-3.522,-3.5295,-3.5489,-3.4846,-3.4294,-3.3784,-3.2961,-3.2258,-3.178,-3.1585,-3.1511,-3.1511,-3.1511,-3.1017,-3.0118,-2.9924,-2.9142,-2.7884,-2.7884,-2.767,-2.7326,-2.732,-2.7311,-2.7308,-2.765,-2.7843,-2.7883,-2.7735,-2.7319,-2.6783,-2.6568,-2.6501,-2.6385,-2.564,-2.5408,-2.5342,-2.5011,-2.5276,-2.559,-2.506,-2.5292,-2.5524,-2.4813,-2.463,-2.4597,-2.4447,-2.4613,-2.4695,-2.4357,-2.4519,-2.4699,-2.4541,-2.4068,-2.3697,-2.3697,-2.2815,-2.1969,-2.1563,-2.0675,-1.9667,-1.855,-1.8536,-1.853,-1.8332,-1.8348,-1.8448,-1.8584,-1.819,-1.7993,-1.8136,-1.7442,-1.6052,-1.3847,-1.242,-1.0602,-0.8372,-0.6473,-0.551,-0.5485,-0.4831,-0.4493,-0.4498,-0.4569,-0.4634,-1.7562,0.0,-2.0021,-2.2359,-2.468,-2.6549,-2.714,-2.8241,-2.9591,-3.1145,-3.173,-3.2393,-3.3947,-3.4392,-3.4533,-3.4533,-3.507,-3.5504,-3.5504,-3.4352,-3.3514,-3.3499,-3.2333,-3.1824,0.0,-3.3155,-3.3799,-3.4488,-3.4533,-3.4801,-3.5474,-3.4846,-3.4503,-3.4474,-3.3185,-3.2497,-3.2452,-3.1824,-3.1511,-3.1511,-3.1511,-3.1481,-3.1421,-3.0776,-2.9774,-2.8562,-2.8562,-2.8199,-2.7595,-2.7595,-2.7849,-2.8266,-2.8275,-2.8455,-2.8671,-2.866,-2.8527,-2.8227,-2.7514,-2.7265,-2.7149,-2.6419,-2.6169,-2.6303,-2.7,-2.7216,-2.7216,-2.7218,-2.7216,-2.7068,-2.6394,-2.6229,-2.6098,-2.558,-2.6,-2.6152,-2.4781,-2.5067,-2.5355,-2.4643,-2.4474,-2.4457,-2.4457,-2.4423,-2.3915,-2.2482,-2.2243,-2.1667,-2.012,-1.9329,-1.8612,-1.789,-1.8008,-1.8111,-1.8121,-1.8528,-1.8761,-1.877,-1.8192,-1.7139,-1.5488,-1.4575,-1.3317,-1.1686,-0.9314,-0.8049,-0.7982,-0.5635,-0.4496,-0.4498,-0.4569,-0.4634,-2.1059,0.0,-2.415,-2.6091,-2.7329,-2.8247,-2.8825,-2.951,-3.0122,-3.0649,-3.0366,-3.0147,-3.0498,-3.0205,-3.0406,-3.1854,-3.3007,-3.4122,-3.5337,-3.5115,-3.4337,-3.3006,-3.2452,0.0,0.0,0.0,0.0,-3.4429,-3.4503,-3.4771,-3.5474,-3.5295,-3.4951,-3.4518,-3.3619,-3.2961,-3.2512,-3.1839,-3.1511,-3.1496,-3.1032,-3.0851,-3.0836,-3.0178,-2.9654,-2.925,-2.925,-2.9157,-2.8933,-2.8933,-2.8767,-2.8541,-2.8838,-2.8759,-2.8512,-2.9181,-2.9377,-2.9146,-2.7923,-2.7728,-2.7921,-2.7333,-2.7364,-2.7613,-2.7365,-2.7298,-2.7199,-2.67,-2.6605,-2.6576,-2.6362,-2.6365,-2.6384,-2.6201,-2.6387,-2.6471,-2.6,-2.6117,-2.6251,-2.6014,-2.5963,-2.5963,-2.5963,-2.5541,-2.4729,-2.3257,-2.1738,-2.0589,-2.0069,-1.9367,-1.8792,-1.8555,-1.815,-1.7936,-1.809,-1.8235,-1.8469,-1.8779,-1.861,-1.8068,-1.7131,-1.5795,-1.4539,-1.3407,-1.1555,-1.0586,-1.0545,-0.8132,-0.695,-0.6914,-0.539,-0.4673,-2.3838,-2.5448,-2.6784,-2.8551,-2.8959,-2.8988,-2.9402,-2.9434,-2.9328,-2.9181,-2.8452,-2.7778,-2.7697,-2.7342,-2.7783,-3.0119,-3.1394,-3.2884,-3.5185,-3.4891,-3.4233,-3.3649,-3.2946,-3.2273,0.0,0.0,0.0,-3.4099,-3.4369,-3.4771,-3.5474,-3.5504,-3.5295,-3.4861,-3.4203,-3.3529,-3.2871,-3.2183,-3.1735,-3.1496,-3.1062,-3.0866,-3.0823,-3.0462,-3.0148,-2.9909,-2.9909,-2.9654,-2.925,-2.9517,-2.919,-2.8618,-2.8925,-2.8889,-2.8715,-2.9114,-2.9377,-2.9434,-2.8554,-2.8367,-2.8451,-2.8016,-2.799,-2.8112,-2.8053,-2.7879,-2.7597,-2.7151,-2.6857,-2.6646,-2.6466,-2.6468,-2.6537,-2.6572,-2.6589,-2.664,-2.664,-2.6674,-2.6691,-2.6691,-2.6691,-2.6691,-2.6691,-2.6099,-2.5186,-2.3983,-2.2327,-2.1028,-2.05,-2.001,-1.9604,-1.9321,-1.8865,-1.8529,-1.8408,-1.845,-1.8517,-1.8553,-1.8705,-1.8637,-1.8246,-1.7292,-1.6519,-1.5955,-1.4093,-1.3113,-1.3082,-1.0682,-0.9515,-0.9444,-0.799,-0.6996,-2.5855,-2.7258,-2.802,-2.9778,-2.956,-2.8875,-2.8813,-2.8104,-2.7323,-2.6816,-2.59,-2.527,0.0,-2.5665,-2.6587,-2.9202,-3.0295,-3.1912,-3.5066,-3.3918,-3.344,0.0,0.0,0.0,0.0,0.0,0.0,-3.3649,-3.4219,-3.4831,-3.5519,-3.5549,-3.5549,-3.5504,-3.4863,-3.4173,-3.3559,-3.2856,-3.2153,-3.1511,-3.1511,-3.1511,-3.1511,-3.1511,-3.1152,-3.0552,-3.0552,-2.9879,-2.8801,-2.943,-2.9295,-2.8697,-2.8697,-2.8938,-2.9244,-2.8587,-2.8692,-2.9189,-2.9324,-2.9103,-2.8681,-2.8471,-2.8105,-2.7944,-2.9041,-2.8953,-2.8481,-2.8474,-2.7977,-2.7349,-2.6756,-2.6623,-2.6674,-2.6691,-2.6691,-2.6691,-2.6691,-2.6691,-2.6691,-2.6691,-2.6691,-2.6691,-2.6691,-2.6116,-2.5389,-2.4609,-2.3915,-2.2919,-2.1444,-2.1207,-2.0919,-2.0149,-2.0018,-1.9727,-1.9012,-1.9093,-1.8885,-1.8194,-1.8544,-1.8769,-1.8797,-1.8976,-1.9078,-1.9095,-1.6852,-1.5655,-1.5583,-1.3238,-1.2052,-1.1985,-1.2007,-1.1141,-2.8677,-2.9733,-3.027,-3.1338,-3.0238,-2.8675,-2.7896,-2.6596,-2.5287,-2.4209,-2.2487,-2.1147,-2.1008,-2.1654,-2.3305,-2.6664,-2.9217,0.0,-3.5066,-3.5893,0.0,-3.5549,0.0,-3.5355,-3.5026,-3.5429,0.0,0.0,-3.5429,-3.5534,-3.6207,-3.6237,-3.6013,-3.5519,-3.4863,-3.4429,-3.4264,-3.308,-3.2153,-3.1511,-3.1511,-3.1511,-3.1511,-3.1511,-3.1406,-3.1241,-3.1241,-3.1062,-3.0763,-3.0943,-3.0627,-3.0013,-3.0013,-2.9811,-2.9486,-2.9174,-2.9462,-2.9925,-2.937,-2.916,-2.9077,-2.8623,-2.8954,-2.9503,-2.9247,-2.9297,-2.9223,-2.8141,-2.8127,-2.8166,-2.6908,-2.7045,-2.735,-2.6826,-2.6691,-2.6691,-2.6691,-2.6691,-2.6691,-2.6691,-2.6691,-2.6691,-2.6691,-2.6539,-2.5981,-2.4694,-2.4338,-2.3695,-2.2209,-2.1546,-2.1123,-2.0919,-2.0352,-1.9917,-1.9744,-1.9263,-1.8956,-1.8919,-1.8523,-1.844,-1.8788,-1.8843,-1.8941,-1.9105,-1.8489,-1.8181,-1.8155,-1.5748,-1.4576,-1.4516,-1.2799,-1.1141,-3.0706,-3.137,-3.1337,-3.1801,-3.0036,-2.7885,-2.6699,-2.4953,-2.3115,-2.1367,-1.9859,0.0,-1.8811,-1.9807,-2.1833,0.0,0.0,0.0,-3.4573,-3.5669,-3.6178,0.0,-3.6432,0.0,-3.6342,-3.6671,-3.7015,0.0,-3.6716,-3.6387,-3.6477,-3.6492,-3.6178,-3.5534,-3.513,-3.4786,-3.4503,-3.317,-3.2303,-3.1929,-3.1645,-3.1511,-3.1511,-3.1511,-3.1511,-3.1511,-3.1511,-3.1331,-3.1077,-3.1376,-3.1092,-3.0507,-3.0507,-3.0353,-3.0087,-2.9685,-2.9785,-3.0103,-2.9648,-2.9572,-2.96,-2.9038,-2.9303,-2.9816,-2.9634,-2.9535,-2.9383,-2.8781,-2.8706,-2.8626,-2.7854,-2.7992,-2.823,-2.7808,-2.7435,-2.7182,-2.7182,-2.6928,-2.6691,-2.6691,-2.6691,-2.6691,-2.6691,-2.6691,-2.62,-2.4711,-2.4491,-2.3966,-2.2496,-2.1938,-2.1684,-2.1684,-2.1282,-2.0876,-2.0538,-2.0145,-1.9818,-1.957,-1.927,-1.9068,-1.8976,-1.9086,-1.9051,-1.8843,-1.8923,-1.8967,-1.8967,-1.7705,-1.7089,-1.7103,-1.6162,-1.4867,-3.2,-3.2193,-3.1552,-3.1576,-2.9393,-2.6806,-2.5319,-2.3251,-2.1001,-1.8741,0.0,-1.7663,-1.7987,-1.923,-2.1464,-2.5292,0.0,-3.0029,-3.3962,-3.4593,-3.531,-3.718,-3.7015,-3.6985,-3.7614,-3.7674,-3.7913,-3.8482,-3.7844,-3.7152,-3.6641,-3.6611,-3.6267,-3.5534,-3.5504,-3.513,-3.4384,-3.3215,-3.2557,-3.2348,-3.178,-3.1511,-3.1511,-3.1511,-3.1511,-3.1511,-3.1511,-3.1167,-3.0687,-3.1256,-3.1152,-3.0642,-3.067,-3.0797,-3.0832,-3.0196,-3.008,-3.0243,-3.0061,-3.0182,-3.0304,-2.954,-2.9377,-2.9557,-2.993,-2.9688,-2.935,-2.9727,-2.9498,-2.91,-2.9007,-2.9077,-2.9128,-2.9027,-2.8467,-2.7959,-2.7959,-2.7385,-2.681,-2.6708,-2.6691,-2.6691,-2.6691,-2.6691,-2.6218,-2.4846,-2.4558,-2.4,-2.2617,-2.2347,-2.2296,-2.2296,-2.2296,-2.204,-2.141,-2.1258,-2.0903,-2.02,-2.0277,-2.0049,-1.9401,-1.9578,-1.9374,-1.866,-1.8837,-1.8895,-1.8797,-1.9108,-1.9297,-1.9366,-2.0235,-1.98,-3.2059,-3.1745,-3.0825,-3.098,-2.8815,-2.6042,-2.3759,-2.144,0.0,0.0,-1.6738,-1.6642,-1.7185,-1.8625,-2.1098,-2.5309,0.0,0.0,0.0,0.0,-3.5848,0.0,0.0,0.0,0.0,-3.9029,0.0,0.0,-3.8051,-3.7317,-3.7251,-3.724,-3.6716,-3.5549,-3.5504,-3.4921,-3.3679,-3.344,-3.2781,-3.1675,-3.1555,-3.1511,-3.1511,-3.1511,-3.1511,-3.1511,-3.1511,-3.1436,-3.1331,-3.1451,-3.1436,-3.1331,-3.1518,-3.1603,-3.1556,-3.0988,-3.1162,-3.1508,-3.0369,-3.0694,-3.1332,-2.9743,-2.9574,-2.9887,-2.9432,-2.974,-3.0141,-2.9643,-3.0104,-3.0511,-2.9314,-2.9448,-2.9753,-2.9145,-2.8891,-2.8807,-2.8807,-2.818,-2.7418,-2.6826,-2.6691,-2.6691,-2.6691,-2.6691,-2.6404,-2.5541,-2.4897,-2.4186,-2.3325,-2.2682,-2.2296,-2.2296,-2.2296,-2.2245,-2.211,-2.1546,-2.114,-2.1004,-2.0408,-2.0108,-2.0193,-2.024,-1.9985,-1.9423,-1.9615,-1.9411,-1.8797,-1.9678,-2.01,-2.0125,-2.0997,-2.0584,-3.094,-3.101,-3.0889,-3.0445,-2.8147,-2.5336,-2.2665,0.0,0.0,0.0,-1.6094,-1.6315,-1.7071,-1.8521,0.0,-2.3603,0.0,0.0,0.0,0.0,0.0,0.0,0.0,0.0,0.0,-3.8775,-3.8775,-3.8775,-3.8553,-3.7919,-3.688,-3.6173,-3.5688,-3.5487,-3.5504,-3.519,-3.4547,-3.3844,-3.3185,-3.2512,-3.1824,-3.1511,-3.1511,-3.1511,-3.1511,-3.1511,-3.1511,-3.1511,-3.1511,-3.1511,-3.1511,-3.1511,-3.1727,-3.1841,-3.1881,-3.1688,-3.1875,-3.2127,-3.1469,-3.1655,-3.1951,-3.0751,-3.0398,-3.028,-2.9388,-2.9579,-3.01,-3.0001,-3.0392,-3.0731,-3.0273,-3.0395,-3.0581,-3.0245,-2.9837,-2.9465,-2.9077,-2.8366,-2.7705,-2.7334,-2.6962,-2.6691,-2.6691,-2.6691,-2.6437,-2.571,-2.5304,-2.4661,-2.3528,-2.3088,-2.2733,-2.233,-2.2296,-2.2296,-2.2296,-2.1972,-2.1769,-2.1769,-2.14,-2.1081,-2.0832,-2.0828,-2.0502,-1.982,-2.0048,-2.0004,-1.9679,-2.0414,-2.0786,-2.0843,-2.1826,-2.1898,-3.0024,-3.0538,-3.0972,-2.988,-2.7406,-2.4578,-2.1885,-1.9537,0.0,0.0,-1.5758,-1.6293,-1.7084,-1.8249,-1.9789,0.0,-2.3349,-2.5469,0.0,0.0,0.0,0.0,0.0,0.0,0.0,-3.8133,0.0,-3.8464,-3.8473,-3.7927,-3.6599,-3.5278,-3.4839,-3.5472,-3.5504,-3.5429,-3.5295,-3.4098,-3.3425,-3.3275,-3.2064,-3.1511,-3.1511,-3.1511,-3.1511,-3.1511,-3.1511,-3.1585,-3.1705,-3.157,-3.1585,-3.1734,-3.1816,-3.1927,-3.2025,-3.2163,-3.233,-3.2398,-3.2398,-3.2398,-3.2275,-3.1624,-3.1089,-3.052,-2.947,-2.9384,-2.9728,-3.0102,-3.0335,-3.058,-3.0938,-3.1131,-3.119,-3.119,-3.0768,-3.0125,-2.9381,-2.8602,-2.7975,-2.7718,-2.7164,-2.6674,-2.659,-2.6641,-2.6488,-2.593,-2.5694,-2.5186,-2.4019,-2.3596,-2.3144,-2.2512,-2.2352,-2.2296,-2.2296,-2.2296,-2.2296,-2.2296,-2.2296,-2.204,-2.1461,-2.1444,-2.1059,-2.0268,-2.0502,-2.0591,-2.0477,-2.1081,-2.1427,-2.154,-2.2598,-2.3133,-3.0555,-3.0972,-3.0419,-2.9251,-2.6565,-2.3567,-2.1365,0.0,0.0,-1.5519,-1.577,-1.6349,-1.6909,-1.7243,-1.8495,-2.1768,-2.1782,-2.3338,0.0,0.0,0.0,0.0,0.0,0.0,0.0,-3.8005,-3.8629,-3.9256,-3.6997,-3.6108,-3.7233,-3.6093,-3.5424,-3.5504,-3.5504,-3.5205,-3.4608,-3.3858,-3.32,-3.2572,-3.1854,-3.1511,-3.1511,-3.1511,-3.1511,-3.1511,-3.1511,-3.1854,-3.2348,-3.175,-3.1854,-3.2362,-3.2081,-3.1996,-3.2038,-3.2302,-3.2398,-3.2398,-3.2398,-3.2398,-3.2275,-3.1624,-3.0957,-3.0284,-2.9595,-2.9279,-2.9166,-2.9212,-2.9843,-3.0518,-3.0559,-3.0878,-3.119,-3.119,-3.114,-3.0903,-3.0159,-2.9397,-2.8563,-2.7476,-2.6939,-2.6573,-2.6228,-2.647,-2.6674,-2.6607,-2.6031,-2.5542,-2.5423,-2.4239,-2.3255,-2.2866,-2.2524,-2.2296,-2.2296,-2.2296,-2.2296,-2.2296,-2.2296,-2.2262,-2.2195,-2.2195,-2.1854,-2.1106,-2.1293,-2.1076,-2.0406,-2.1429,-2.2025,-2.2225,-2.3174,-2.3767,-2.7092,-2.8875,-3.0269,-2.88,-2.6201,-2.3429,-2.118,0.0,-1.6439,-1.5485,-1.5726,-1.6175,-1.6457,-1.682,-1.7756,-1.9747,-1.9502,-2.0675,-2.53,0.0,0.0,0.0,0.0,0.0,0.0,0.0,-3.75,-3.871,-3.6967,-3.5927,-3.6143,-3.4427,-3.3851,-3.4758,-3.4438,-3.4291,-3.4394,-3.3388,-3.2957,-3.3025,-3.1976,-3.1705,-3.2093,-3.2093,-3.1884,-3.1525,-3.1929,-3.2019,-3.1869,-3.1615,-3.1958,-3.2645,-3.2169,-3.2296,-3.2699,-3.2468,-3.2398,-3.2398,-3.2398,-3.2398,-3.2351,-3.2074,-3.1551,-3.0889,-3.0202,-3.0149,-3.0298,-3.0298,-3.0568,-3.1011,-3.1611,-3.1598,-3.1608,-3.2347,-3.1634,-3.0892,-3.1337,-3.0161,-2.8782,-2.8056,-2.7078,-2.621,-2.5817,-2.5872,-2.6052,-2.6298,-2.5891,-2.5559,-2.5594,-2.4876,-2.4227,-2.3901,-2.2931,-2.2209,-2.202,-2.218,-2.2296,-2.2296,-2.2296,-2.2296,-2.2296,-2.2296,-2.2175,-2.187,-2.1949,-2.1863,-2.1609,-2.2158,-2.2532,-2.2735,-2.3396,-2.3785,-2.4384,-2.6606,-2.8575,-2.762,-2.5139,-2.2417,0.0,-1.7941,-1.5861,-1.5205,-1.5474,-1.5913,-1.6122,-1.6565,-1.7278,-1.8421,-1.8074,-1.8949,-2.2617,-2.3617,0.0,0.0,0.0,-3.164,0.0,-3.5737,-3.6796,-3.7651,-3.6467,-3.5375,-3.469,-3.2836,-3.2541,-3.4245,-3.3518,-3.3489,-3.4298,-3.3105,-3.281,-3.3398,-3.2523,-3.2333,-3.2811,-3.2811,-3.2437,-3.1824,-3.2288,-3.2228,-3.1795,-3.1795,-3.2316,-3.305,-3.2713,-3.2977,-3.3473,-3.3126,-3.2875,-3.269,-3.269,-3.2567,-3.2398,-3.2398,-3.2074,-3.1597,-3.1136,-3.0939,-3.0901,-3.0901,-3.0986,-3.134,-3.2331,-3.2127,-3.1907,-3.2914,-3.1954,-3.1024,-3.1871,-3.0603,-2.9136,-2.8508,-2.7334,-2.6244,-2.561,-2.5503,-2.5596,-2.5872,-2.5689,-2.5528,-2.5562,-2.5245,-2.4862,-2.4545,-2.3452,-2.2731,-2.2608,-2.2635,-2.2632,-2.2632,-2.2343,-2.2295,-2.26,-2.2529,-2.263,-2.2953,-2.275,-2.2646,-2.2703,-2.263,-2.2751,-2.2977,-2.333,-2.3595,-2.3573,-2.4683,-2.4808,-2.5452,-2.3,-2.0079,0.0,-1.6396,-1.4522,-1.451,-1.5038,-1.5625,-1.5944,-1.6402,-1.7135,-1.8385,-1.7926,-1.8603,-2.2046,-2.3204,0.0,0.0,0.0,-2.9585,-3.1287,-3.4938,-3.6907,-3.6175,-3.493,-3.3902,-3.3159,-3.1763,-3.2028,-3.423,-3.3052,-3.3004,-3.4298,-3.3114,-3.2809,-3.3398,-3.3441,-3.3484,-3.3484,-3.3484,-3.3125,-3.2497,-3.2512,-3.2512,-3.2497,-3.2497,-3.2991,-3.3789,-3.394,-3.4074,-3.4223,-3.4415,-3.3998,-3.3398,-3.3398,-3.2952,-3.2398,-3.2398,-3.2398,-3.2382,-3.2382,-3.1459,-3.0402,-3.0402,-3.074,-3.134,-3.2331,-3.2194,-3.1922,-3.2467,-3.2039,-3.1494,-3.151,-3.0767,-2.9741,-2.8608,-2.7748,-2.6819,-2.5707,-2.5503,-2.5503,-2.5503,-2.5503,-2.5503,-2.5486,-2.5212,-2.4873,-2.4541,-2.4114,-2.4047,-2.4443,-2.3799,-2.3376,-2.3376,-2.2389,-2.2276,-2.3344,-2.3073,-2.3392,-2.4457,-2.3763,-2.3376,-2.3376,-2.272,-2.2561,-2.2892,-2.2977,-2.3301,-1.9393,-2.0888,-2.1996,-2.1876,-2.0064,-1.804,-1.7183,-1.5432,-1.4031,-1.4031,-1.4524,-1.5004,-1.521,-1.5896,-1.6839,-1.8061,-1.7971,-1.841,0.0,0.0,0.0,0.0,-2.9339,-3.253,0.0,0.0,-3.6179,-3.5456,-3.4178,-3.3138,-3.2472,-3.1501,-3.1542,-3.2777,-3.1612,-3.1378,-3.2187,-3.1425,-3.1602,-3.2705,-3.2211,-3.2266,-3.2819,-3.2771,-3.2154,-3.1189,-3.2095,-3.2228,-3.1854,-3.2465,-3.3185,-3.3955,-3.4089,-3.4529,-3.5031,-3.4645,-3.4014,-3.3398,-3.3398,-3.2952,-3.2398,-3.2398,-3.2398,-3.2398,-3.2398,-3.2105,-3.1767,-3.1767,-3.2137,-3.2688,-3.338,-3.2829,-3.2431,-3.3771,-3.2622,-3.1418,-3.2099,-3.1231,-3.0085,-2.9314,-2.8293,-2.7181,-2.6042,-2.5573,-2.5293,-2.5123,-2.4859,-2.4922,-2.5612,-2.5493,-2.5489,-2.5893,-2.5746,-2.5213,-2.4228,-2.343,-2.3106,-2.3378,-2.2389,-2.2278,-2.3359,-2.309,-2.3409,-2.4474,-2.4271,-2.4152,-2.4152,-2.393,-2.3773,-2.3637,-2.3759,-2.3821,0.0,-1.7945,-1.8976,-1.9089,-1.7701,0.0,-1.5468,-1.4226,-1.3303,-1.3651,-1.409,-1.457,-1.5105,-1.5782,-1.66,-1.7656,-1.7725,-1.8052,0.0,0.0,0.0,-2.4793,0.0,0.0,0.0,-3.396,-3.4643,-3.3895,-3.3145,-3.2421,-3.1726,-3.1259,-3.1093,-3.1355,-3.041,-3.0323,-3.1192,-3.0683,-3.0918,-3.1958,-3.1976,-3.2277,-3.2762,-3.2775,-3.222,-3.1264,-3.2123,-3.2243,0.0,-3.281,-3.3653,-3.441,-3.479,-3.5339,-3.5784,-3.5136,-3.4443,-3.3767,-3.3506,-3.2952,-3.2398,-3.2398,-3.2398,-3.2398,-3.2398,-3.2398,-3.2398,-3.2398,-3.2641,-3.3029,-3.3563,-3.3002,-3.2615,-3.3881,-3.2784,-3.1634,-3.2173,-3.1368,-3.0335,-2.9595,-2.8588,-2.7534,-2.6545,-2.5773,-2.525,-2.5071,-2.4683,-2.4634,-2.5269,-2.546,-2.5703,-2.6171,-2.6154,-2.5755,-2.4895,-2.4215,-2.3927,-2.4177,-2.3162,-2.3065,-2.4143,-2.3862,-2.4164,-2.5208,-2.5033,-2.4929,-2.4914,-2.4659,-2.4435,-2.4271,-2.4195,-2.4138,0.0,-1.5664,-1.5859,0.0,0.0,-1.4327,-1.3683,-1.2833,0.0,-1.3285,-1.3673,-1.4214,-1.5359,-1.591,-1.6426,-1.7227,-1.7342,-1.7674,0.0,-1.9724,0.0,0.0,-2.778,0.0,-3.0113,-3.1843,-3.2611,-3.1874,-3.1937,-3.17,-3.1061,-3.0947,-3.0699,-3.0179,-2.9562,-2.9812,-3.1053,-3.056,-3.0608,-3.1205,-3.2422,-3.3017,-3.3059,-3.3149,-3.2858,-3.233,-3.2432,-3.2527,-3.2632,-3.3502,-3.4303,-3.5078,-3.5889,-3.6305,-3.6415,-3.5784,-3.5121,-3.4412,-3.3767,-3.3044,-3.2398,-3.2398,-3.2398,-3.2398,-3.2398,-3.2398,-3.2398,-3.2398,-3.2398,-3.252,-3.3066,-3.2788,-3.2547,-3.3066,-3.263,-3.2076,-3.1855,-3.1313,-3.0612,-2.9708,-2.8817,-2.7993,-2.7247,-2.6178,-2.5419,-2.5373,-2.5004,-2.4714,-2.4708,-2.5249,-2.5654,-2.5661,-2.5642,-2.5772,-2.6188,-2.5731,-2.5429,-2.5512,-2.4431,-2.4298,-2.5462,-2.5196,-2.546,-2.6401,-2.5998,-2.5757,-2.5709,-2.5078,-2.4781,-2.4784,-2.441,-2.4392,-1.2852,0.0,-1.2889,-1.3091,-1.2768,-1.235,0.0,-1.1895,-1.187,0.0,0.0,-1.3739,-1.4178,-1.5241,-1.6272,-1.6913,-1.7796,-1.8478,-1.8655,0.0,0.0,-2.628,-2.928,-3.1079,-3.0817,-3.157,-3.199,-3.1797,-3.1438,-3.1198,-3.1024,-3.0568,-3.0477,-3.0777,-2.9353,-2.8974,-2.9742,-2.961,-3.0126,-3.1205,-3.094,-3.1115,-3.1664,-3.1227,-3.1241,-3.165,-3.2199,-3.2753,-3.332,-3.4149,-3.4696,-3.5078,-3.5889,-3.6305,-3.6476,-3.6307,-3.5537,-3.4551,-3.4876,-3.386,-3.2398,-3.2398,-3.2398,-3.2398,-3.2398,-3.2398,-3.2398,-3.2398,-3.2398,-3.252,-3.3066,-3.2788,-3.2547,-3.3066,-3.2743,-3.2275,-3.2067,-3.1774,-3.1443,-3.1072,-3.0125,-2.9172,-2.8485,-2.7567,-2.6734,-2.6211,-2.6039,-2.5899,-2.5711,-2.5938,-2.6163,-2.6221,-2.5974,-2.5956,-2.6314,-2.5318,-2.4906,-2.5462,-2.4431,-2.4298,-2.5462,-2.538,-2.5715,-2.6538,-2.6656,-2.6702,-2.6669,-2.6562,-2.6232,-2.5697,-2.5643,-2.5446,-1.1899,-1.1979,-1.2016,-1.1881,-1.18,-1.1719,-1.1626,0.0,0.0,0.0,0.0,-1.3597,-1.4352,-1.5278,-1.6138,-1.6822,-1.7943,0.0,0.0,0.0,-2.624,-2.7538,-2.9673,-3.1106,-3.1352,-3.1418,-3.1301,-3.104,-3.0727,-3.0594,-3.0594,-3.0059,-2.9889,-3.0189,-2.9048,-2.8708,-2.931,-2.9035,-2.9245,-2.9907,-2.9767,-2.9934,-3.0308,-3.003,-3.0437,-3.1406,-3.1818,-3.2731,-3.3994,-3.4495,-3.4983,-3.5504,-3.6011,-3.6305,-3.6445,-3.6138,-3.5568,-3.4982,-3.5028,-3.406,-3.2813,-3.249,-3.2398,-3.2398,-3.2398,-3.2398,-3.2398,-3.2398,-3.2398,-3.2465,-3.2761,-3.2614,-3.2465,-3.2761,-3.2614,-3.2334,-3.2123,-3.1784,-3.1422,-3.1218,-3.0516,-2.9717,-2.9057,-2.8348,-2.7626,-2.6949,-2.667,-2.642,-2.6062,-2.6172,-2.624,-2.6056,-2.5862,-2.5842,-2.601,-2.5359,-2.5131,-2.5557,-2.5107,-2.5041,-2.5576,-2.5644,-2.5982,-2.6624,-2.6876,-2.6991,-2.6991,-2.7039,-2.6849,-2.6485,-2.6188,-2.5972,-1.1645,-1.1945,-1.2187,-1.1959,-1.1837,-1.1793,-1.1682,0.0,0.0,0.0,0.0,0.0,0.0,-1.5675,0.0,0.0,0.0,0.0,-2.2668,-2.5275,-2.7341,-2.8347,-2.9529,0.0,-3.1458,-3.1222,-3.079,-3.027,-3.0231,-3.0192,-3.01,-2.9588,-2.931,-2.931,-2.8643,-2.8543,-2.9179,-2.8669,-2.8459,-2.8551,-2.897,-2.9231,-2.9297,-2.9346,-3.0125,-3.1366,-3.1647,-3.2718,-3.432,-3.467,-3.5222,-3.5863,-3.6085,-3.6305,-3.6415,-3.5845,-3.5598,-3.5398,-3.4613,-3.4012,-3.3444,-3.2644,-3.2398,-3.2398,-3.2398,-3.2398,-3.2398,-3.2398,-3.2398,-3.2398,-3.2398,-3.2398,-3.2398,-3.2398,-3.2398,-3.2338,-3.2186,-3.1637,-3.1197,-3.1128,-3.0638,-3.0054,-2.9609,-2.899,-2.8365,-2.7796,-2.728,-2.682,-2.6419,-2.6395,-2.6262,-2.5918,-2.5718,-2.5616,-2.5672,-2.5597,-2.5581,-2.5642,-2.5846,-2.5901,-2.5775,-2.5939,-2.6278,-2.6708,-2.6925,-2.7057,-2.7057,-2.7057,-2.7072,-2.7117,-2.6499,-2.6342,-1.1533,-1.1978,-1.235,-1.192,-1.18,-1.1745,-1.156,0.0,0.0,0.0,0.0,0.0,0.0,-1.6144,-1.7616,0.0,0.0,-2.3415,0.0,0.0,-2.8075,-2.786,0.0,-3.0738,-3.0388,-3.0751,-3.0947,-3.0869,-3.0856,-3.0647,-3.0127,-2.9588,-2.931,-2.931,-2.8229,-2.7941,-2.8551,-2.8459,-2.8669,-2.9179,-2.876,-2.8826,-2.931,-2.9324,-3.0019,-3.1293,-3.2437,-3.3111,-3.3502,-3.4838,-3.5272,-3.5121,-3.5799,-3.6226,-3.6476,-3.6368,-3.5984,-3.5291,-3.4014,-3.3891,-3.412,-3.2813,-3.2398,-3.2398,-3.2398,-3.2398,-3.2398,-3.2398,-3.2398,-3.2398,-3.2398,-3.2398,-3.2398,-3.2398,-3.2398,-3.2394,-3.2369,-3.2009,-3.187,-3.2458,-3.1555,-3.0847,-3.1385,-3.0249,-2.9202,-2.9095,-2.8559,-2.8109,-2.8045,-2.7354,-2.6963,-2.7108,-2.6202,-2.5694,-2.5917,-2.5565,-2.5352,-2.5355,-2.5605,-2.5832,-2.6033,-2.6227,-2.6487,-2.6791,-2.7105,-2.725,-2.725,-2.725,-2.725,-2.7266,-2.7145,-2.7125,-1.1771,-1.2163,-1.2527,-1.2807,-1.2693,-1.2476,-1.2397,0.0,0.0,0.0,0.0,0.0,0.0,0.0,-1.9042,-2.1297,0.0,-2.5275,-2.659,-2.7905,-2.8777,0.0,-2.9876,-3.0542,-3.0594,-3.0555,-3.0398,-3.0085,-2.9758,-2.9457,-2.9196,-2.8647,-2.8477,-2.8813,-2.7968,-2.762,-2.7915,-2.8229,-2.836,-2.8333,-2.8059,-2.8072,-2.8333,-2.8333,-2.9207,-3.08,-3.1419,-3.225,-3.3297,-3.4375,-3.4857,-3.4975,-3.5703,-3.5981,-3.5937,-3.5568,-3.546,-3.5367,-3.4321,-3.4459,-3.4828,-3.3398,-3.2936,-3.2875,-3.2505,-3.2398,-3.2398,-3.2398,-3.2398,-3.2398,-3.2398,-3.2398,-3.2398,-3.2398,-3.2398,-3.2398,-3.2398,-3.2181,-3.2067,-3.241,-3.1964,-3.1501,-3.1462,-3.0908,-3.0243,-2.952,-2.915,-2.8719,-2.8093,-2.7894,-2.771,-2.744,-2.682,-2.6398,-2.6393,-2.5826,-2.5486,-2.5511,-2.5492,-2.5645,-2.603,-2.6137,-2.6314,-2.659,-2.6875,-2.7121,-2.7299,-2.7299,-2.7299,-2.7299,-2.7299,-2.7299,-1.1843,-1.2281,-1.2725,-1.3492,-1.3472,-1.3376,-1.3819,0.0,0.0,0.0,0.0,0.0,0.0,-1.865,0.0,-2.3735,-2.5441,-2.6862,-2.8241,-2.9109,-2.9699,-2.9928,-3.0181,-3.0361,-3.0531,-3.0153,-2.9745,-2.9314,-2.8878,-2.8564,-2.842,-2.7968,-2.7863,-2.8177,-2.7758,-2.749,-2.749,-2.8098,-2.8098,-2.749,-2.7777,-2.7863,-2.7699,-2.7986,-2.8918,-3.0333,-3.0676,-3.1527,-3.2769,-3.3665,-3.4279,-3.4695,-3.5462,-3.5749,-3.566,-3.5167,-3.5306,-3.566,-3.4982,-3.4982,-3.5075,-3.3814,-3.329,-3.3106,-3.2736,-3.2521,-3.2428,-3.2582,-3.2521,-3.2398,-3.2398,-3.2398,-3.2398,-3.2398,-3.2398,-3.2398,-3.2398,-3.2246,-3.2157,-3.2315,-3.222,-3.1984,-3.1647,-3.1503,-3.0997,-2.9802,-2.9494,-2.9064,-2.8154,-2.8237,-2.8244,-2.7867,-2.7392,-2.6937,-2.6484,-2.5924,-2.5637,-2.5701,-2.5549,-2.5565,-2.5754,-2.5974,-2.6171,-2.6314,-2.6641,-2.6957,-2.7299,-2.7299,-2.7299,-2.7299,-2.7299,-2.7299,-1.1389,-1.2193,-1.3025,-1.3277,-1.3534,0.0,-1.5942,-1.6299,0.0,-1.8848,0.0,0.0,0.0,-2.1599,-2.3477,-2.4639,-2.6883,-2.8692,-2.933,-3.052,-3.0867,-2.9688,-3.0371,-3.0479,-2.9256,-2.9282,-2.9327,-2.931,-2.9284,-2.9009,-2.8446,-2.8381,-2.8098,-2.7568,-2.7516,-2.749,-2.749,-2.8098,-2.8098,-2.7503,-2.8634,-2.8869,-2.836,-2.9444,-2.9993,-3.0194,-3.1446,-3.1669,-3.1272,-3.2698,-3.3478,-3.3876,-3.4662,-3.5561,-3.6415,-3.6368,-3.6384,-3.6322,-3.5645,-3.5059,-3.4443,-3.366,-3.2982,-3.2567,-3.3152,-3.289,-3.2521,-3.3152,-3.2875,-3.2398,-3.2398,-3.2398,-3.2398,-3.2398,-3.2398,-3.2398,-3.2398,-3.2246,-3.2283,-3.2993,-3.2562,-3.2283,-3.2945,-3.2137,-3.1151,-3.0432,-2.9787,-2.9308,-2.9036,-2.8426,-2.8307,-2.9001,-2.7901,-2.674,-2.5849,-2.5672,-2.5637,-2.5701,-2.5864,-2.568,-2.5103,-2.5921,-2.6297,-2.6122,-2.6573,-2.6957,-2.7299,-2.7299,-2.7299,-2.7299,-2.7299,-2.7299,-1.169,-1.279,-1.3882,-1.4211,-1.4957,0.0,0.0,-1.7309,-1.7799,-1.932,-1.9904,0.0,0.0,0.0,-2.4249,-2.5665,-2.6968,-2.8071,-2.8738,-2.9245,-2.9434,-2.9061,-2.9349,-2.9406,-2.9038,-2.8724,-2.8621,-2.8726,-2.8386,-2.8098,-2.7863,-2.785,-2.7758,-2.7503,-2.749,-2.749,-2.749,-2.8464,-2.8647,-2.8072,-2.8882,-2.9192,-2.8948,-2.9405,-2.9797,-3.0113,-3.0626,-3.0892,-3.1099,-3.2101,-3.267,-3.2982,-3.401,-3.5023,-3.5845,-3.5429,-3.5537,-3.5768,-3.5121,-3.5275,-3.5568,-3.4459,-3.4183,-3.4291,-3.4121,-3.3583,-3.3075,-3.3336,-3.2921,-3.2398,-3.2398,-3.2398,-3.2398,-3.2398,-3.2398,-3.2398,-3.2398,-3.2346,-3.2357,-3.2648,-3.2493,-3.2373,-3.2648,-3.1975,-3.1166,-3.0494,-2.9817,-2.9215,-2.8722,-2.8973,-2.9253,-2.9442,-2.8706,-2.7761,-2.6658,-2.6134,-2.5798,-2.5654,-2.5712,-2.5715,-2.5624,-2.5791,-2.6028,-2.6279,-2.6453,-2.6792,-2.7299,-2.7299,-2.7299,-2.7299,-2.7299,-2.7299,-1.1759,-1.2966,-1.4107,0.0,0.0,0.0,-1.8446,-1.8465,-1.8854,-2.0933,-2.208,0.0,0.0,0.0,0.0,0.0,-2.6804,-2.7553,-2.8191,-2.8527,-2.86,-2.8293,-2.8515,-2.862,-2.8402,-2.8049,-2.7919,-2.8111,-2.7745,-2.749,-2.749,-2.749,-2.749,-2.749,-2.749,-2.749,-2.749,-2.8503,-2.8917,-2.8708,-2.9114,-2.9379,-2.9549,-2.9732,-3.0032,-3.0361,-3.0361,-3.062,-3.1061,-3.1529,-3.216,-3.2912,-3.4017,-3.4994,-3.5753,-3.5306,-3.5429,-3.5707,-3.5059,-3.5429,-3.5953,-3.4613,-3.4445,-3.4737,-3.4305,-3.3798,-3.3398,-3.3398,-3.3075,-3.2659,-3.2444,-3.2398,-3.2398,-3.2398,-3.2398,-3.2398,-3.2398,-3.2398,-3.2398,-3.2398,-3.2398,-3.2398,-3.2398,-3.1909,-3.1299,-3.0634,-2.9969,-2.9265,-2.857,-2.9219,-2.9751,-2.9716,-2.9461,-2.8864,-2.779,-2.6812,-2.617,-2.5972,-2.5748,-2.5715,-2.5901,-2.5881,-2.5974,-2.6209,-2.6349,-2.6607,-2.7055,-2.7218,-2.7299,-2.7299,-2.7299,-2.7299,-1.146,-1.2494,-1.3524,0.0,0.0,0.0,-2.0594,-2.0083,-2.0277,-2.4333,0.0,-2.5016,-2.3047,-2.3875,0.0,-2.5324,-2.6483,-2.7469,-2.8009,-2.8759,-2.877,-2.7442,-2.8117,-2.8241,-2.7126,-2.718,-2.7335,-2.749,-2.749,-2.749,-2.749,-2.749,-2.749,-2.749,-2.749,-2.749,-2.749,-2.8098,-2.8708,-2.931,-2.931,-2.9575,-3.0113,-3.0725,-3.0973,-3.0973,-3.0986,-3.0986,-3.0986,-3.0986,-3.2051,-3.3774,-3.4732,-3.5657,-3.6492,-3.6492,-3.6492,-3.6384,-3.5707,-3.5476,-3.5275,-3.386,-3.3413,-3.3429,-3.3429,-3.3413,-3.3398,-3.3413,-3.3398,-3.3244,-3.2567,-3.2398,-3.2398,-3.2398,-3.2398,-3.2398,-3.2398,-3.2398,-3.2398,-3.2398,-3.2398,-3.2398,-3.2398,-3.2071,-3.1587,-3.09,-3.023,-2.9519,-2.8802,-2.9104,-2.9572,-2.9974,-3.0057,-2.9824,-2.9077,-2.7644,-2.6795,-2.6711,-2.607,-2.5701,-2.5701,-2.6138,-2.621,-2.5803,-2.6192,-2.6436,-2.6505,-2.7039,-2.7299,-2.7299,-2.7299,-2.7299,-1.2144,-1.3534,0.0,-1.5979,0.0,0.0,0.0,-2.0772,0.0,0.0,-2.4174,-2.4658,-2.3479,-2.4429,0.0,-2.5507,-2.6226,-2.6801,-2.6964,-2.7198,-2.7185,-2.6776,-2.6981,-2.7059,-2.6798,-2.6977,-2.7146,-2.7335,-2.7091,-2.7105,-2.7477,-2.7144,-2.7105,-2.749,-2.749,-2.749,-2.749,-2.8098,-2.8499,-2.8682,-2.9114,-2.9575,-3.0113,-3.0283,-3.0348,-3.0375,-3.0817,-3.0986,-3.0986,-3.0986,-3.1713,-3.2883,-3.3774,-3.4699,-3.5593,-3.6258,-3.6184,-3.5722,-3.5044,-3.5121,-3.5275,-3.386,-3.406,-3.4876,-3.4876,-3.4183,-3.3506,-3.4014,-3.3444,-3.2644,-3.2444,-3.2398,-3.2398,-3.2398,-3.2398,-3.2398,-3.2398,-3.2398,-3.2398,-3.2398,-3.2398,-3.2398,-3.2398,-3.1683,-3.1025,-3.0822,-2.9955,-2.9358,-2.9448,-2.9886,-3.0352,-3.0791,-3.0743,-3.0441,-2.99,-2.8158,-2.7042,-2.6981,-2.6208,-2.576,-2.5703,-2.6138,-2.6332,-2.621,-2.6522,-2.6691,-2.6724,-2.7121,-2.7299,-2.7299,-2.7299,-2.7299,-1.2154,-1.3663,0.0,-1.6563,-1.8573,-2.0528,-2.1406,0.0,0.0,0.0,0.0,-2.5294,-2.478,-2.5198,0.0,-2.5933,-2.6273,-2.6499,-2.6499,-2.6499,-2.6499,-2.6499,-2.6499,-2.6555,-2.6679,-2.6794,-2.6909,-2.6958,-2.672,-2.6765,-2.717,-2.6902,-2.6935,-2.7477,-2.749,-2.749,-2.749,-2.7863,-2.815,-2.842,-2.8516,-2.8882,-2.9457,-2.9892,-3.01,-3.0127,-3.0738,-3.0986,-3.0986,-3.0986,-3.1542,-3.247,-3.3129,-3.4095,-3.519,-3.5911,-3.5891,-3.5414,-3.4736,-3.4767,-3.489,-3.346,-3.3752,-3.4614,-3.4337,-3.386,-3.3444,-3.3627,-3.3244,-3.2736,-3.2459,-3.2398,-3.2398,-3.2398,-3.2398,-3.2398,-3.2398,-3.2398,-3.2398,-3.2398,-3.2398,-3.2305,-3.2044,-3.1326,-3.0748,-3.0541,-2.9793,-2.938,-2.975,-3.0054,-3.0456,-3.1131,-3.1081,-3.0956,-3.0762,-2.8954,-2.7784,-2.7661,-2.6669,-2.6052,-2.5977,-2.6261,-2.6349,-2.6279,-2.6505,-2.6607,-2.6522,-2.7039,-2.7299,-2.7299,-2.7299,-2.7299,-1.1887,0.0,0.0,-1.6417,-1.9325,0.0,-2.2615,-2.4093,-2.511,-2.4275,0.0,-2.6461,-2.6327,-2.5963,-2.585,-2.6411,-2.6499,-2.6499,-2.6499,-2.6499,-2.6499,-2.6499,-2.6499,-2.6543,-2.6569,-2.6616,-2.6544,-2.6336,-2.6265,-2.6375,-2.6661,-2.6601,-2.6831,-2.7477,-2.7438,-2.7438,-2.749,-2.749,-2.7798,-2.8294,-2.7771,-2.7798,-2.8381,-2.947,-2.9996,-3.0127,-3.0686,-3.0934,-3.0986,-3.0986,-3.1505,-3.2376,-3.2755,-3.3754,-3.5011,-3.5512,-3.5596,-3.5353,-3.4706,-3.4505,-3.4274,-3.2844,-3.2844,-3.329,-3.2675,-3.2875,-3.3198,-3.2644,-3.289,-3.3167,-3.2552,-3.2398,-3.2398,-3.2398,-3.2398,-3.2398,-3.2398,-3.2398,-3.2398,-3.2398,-3.2336,-3.2105,-3.1516,-3.1016,-3.0563,-3.0109,-2.9733,-2.9582,-2.9788,-2.9832,-3.0182,-3.1055,-3.119,-3.131,-3.1579,-2.9883,-2.8727,-2.8576,-2.7259,-2.6488,-2.6435,-2.647,-2.6367,-2.6175,-2.6349,-2.6349,-2.6175,-2.6891,-2.7266,-2.7299,-2.7299,-2.7299,-1.3122,-1.4315,0.0,0.0,-2.1622,-2.4355,-2.539,-2.5931,-2.5367,-2.243,-2.4289,-2.6154,-2.5058,-2.564,-2.6348,-2.6474,-2.6499,-2.6499,-2.6499,-2.6499,-2.6499,-2.6499,-2.6499,-2.6311,-2.5892,-2.5987,-2.5924,-2.5557,-2.522,-2.555,-2.6654,-2.5855,-2.6007,-2.7451,-2.7092,-2.7079,-2.749,-2.749,-2.7555,-2.7673,-2.7555,-2.7555,-2.7699,-2.8438,-2.9261,-3.0113,-3.0231,-3.0568,-3.0986,-3.0986,-3.131,-3.1836,-3.2591,-3.3283,-3.3973,-3.5237,-3.5329,-3.4834,-3.4588,-3.4505,-3.4274,-3.2844,-3.2844,-3.3367,-3.3229,-3.2921,-3.269,-3.3075,-3.2906,-3.2582,-3.2428,-3.2398,-3.2398,-3.2398,-3.2398,-3.2398,-3.2398,-3.2398,-3.2398,-3.2398,-3.1967,-3.1551,-3.1439,-3.0644,-2.9923,-2.9669,-2.9566,-2.9582,-2.9858,-3.007,-3.0356,-3.0841,-3.112,-3.1408,-3.1727,-2.9938,-2.8835,-2.8887,-2.7399,-2.6539,-2.6641,-2.6941,-2.6974,-2.6657,-2.6691,-2.6691,-2.6657,-2.6825,-2.7039,-2.7299,-2.7299,-2.7299,-1.2684,0.0,0.0,-1.9667,0.0,-2.4548,-2.5015,-2.5415,-2.5037,-2.2787,-2.431,-2.5828,-2.512,-2.5582,-2.6172,-2.6449,-2.6499,-2.6499,-2.6499,-2.6248,-2.6084,-2.6084,-2.5824,-2.5548,-2.5259,-2.53,-2.5203,-2.4791,-2.4628,-2.489,-2.5717,-2.5258,-2.5528,-2.6641,-2.6425,-2.6412,-2.6681,-2.6681,-2.6681,-2.6681,-2.6987,-2.7262,-2.7516,-2.8111,-2.8869,-2.9745,-2.9983,-3.027,-3.0594,-3.0869,-3.1123,-3.1371,-3.2223,-3.2981,-3.3734,-3.4894,-3.4991,-3.4592,-3.4524,-3.4058,-3.338,-3.2628,-3.2628,-3.2921,-3.2921,-3.2675,-3.2459,-3.2813,-3.2675,-3.2398,-3.2398,-3.2398,-3.2398,-3.2398,-3.2398,-3.2398,-3.2398,-3.2136,-3.1905,-3.1905,-3.1382,-3.092,-3.092,-3.0293,-2.9647,-2.9193,-2.9335,-2.9554,-2.9687,-2.9935,-3.022,-3.0539,-3.0707,-3.1024,-3.1523,-3.0223,-2.9467,-2.9666,-2.8167,-2.7233,-2.7181,-2.7194,-2.7087,-2.6808,-2.6791,-2.6791,-2.6791,-2.6957,-2.7137,-2.7299,-2.7299,-2.7299,-1.1812,0.0,-1.5863,-2.0128,-2.2326,0.0,-2.3652,-2.4119,-2.4352,-2.3786,-2.4633,-2.5485,-2.5573,-2.5523,-2.5649,-2.6248,-2.6273,-2.621,-2.621,-2.5762,-2.546,-2.546,-2.5084,-2.4713,-2.4525,-2.4499,-2.4287,-2.3816,-2.3976,-2.4166,-2.4395,-2.4662,-2.501,-2.548,-2.5628,-2.5649,-2.5649,-2.5741,-2.5793,-2.5806,-2.6399,-2.6974,-2.7516,-2.802,-2.8556,-2.9192,-2.9627,-2.9918,-3.0127,-3.0542,-3.0878,-3.1161,-3.1729,-3.2615,-3.3636,-3.443,-3.4593,-3.4391,-3.4338,-3.3565,-3.2552,-3.2428,-3.2398,-3.2398,-3.2398,-3.2398,-3.2398,-3.2398,-3.2398,-3.2398,-3.2398,-3.2398,-3.2398,-3.2398,-3.2398,-3.2398,-3.2398,-3.1859,-3.1409,-3.1409,-3.0782,-3.0186,-3.0063,-2.9763,-2.9361,-2.8778,-2.9082,-2.938,-2.9425,-2.9681,-2.993,-3.0145,-3.0251,-3.0522,-3.1103,-3.0369,-2.9935,-3.0111,-2.8782,-2.7826,-2.7533,-2.7165,-2.6891,-2.6691,-2.6758,-2.6841,-2.6874,-2.7121,-2.7234,-2.7299,-2.7282,-2.7282,0.0,0.0,-1.6764,0.0,-2.0643,-2.1702,0.0,0.0,-2.3441,0.0,-2.448,-2.5059,-2.5511,-2.5222,-2.5096,-2.5624,-2.5335,-2.5046,-2.5046,-2.4938,-2.4888,-2.4888,-2.4825,-2.4399,-2.3421,-2.3333,-2.2954,-2.2109,-2.2531,-2.2955,-2.3202,-2.3751,-2.4122,-2.4305,-2.4818,-2.511,-2.511,-2.5576,-2.5793,-2.5806,-2.6399,-2.6974,-2.749,-2.7568,-2.7954,-2.8503,-2.8582,-2.9196,-3.0061,-2.968,-3.0303,-3.1502,-3.1429,-3.1987,-3.2939,-3.375,-3.3997,-3.394,-3.3645,-3.3413,-3.3167,-3.2582,-3.2398,-3.2398,-3.2398,-3.2398,-3.2398,-3.2398,-3.2398,-3.2398,-3.2398,-3.2398,-3.2398,-3.2398,-3.2398,-3.2398,-3.2398,-3.1859,-3.1409,-3.1409,-3.0397,-2.9341,-2.8781,-2.862,-2.8625,-2.8677,-2.8756,-2.8897,-2.9121,-2.9396,-2.9589,-2.9673,-3.0059,-3.0377,-3.0601,-2.9862,-2.9279,-2.9033,-2.8066,-2.7275,-2.6774,-2.6589,-2.6401,-2.621,-2.659,-2.694,-2.7234,-2.6989,-2.7023,-2.7299,-2.7184,-2.7184,-1.227,-1.4078,-1.5894,0.0,-1.8947,-2.0281,-2.144,0.0,-2.2284,-2.2535,-2.2786,-2.3314,-2.4481,-2.4519,-2.4544,-2.5071,-2.4938,-2.4788,-2.4788,-2.4525,-2.4356,-2.4356,-2.3803,-2.3195,-2.2694,-2.2397,-2.2036,-2.163,-2.2208,-2.2499,-2.2281,-2.299,-2.3272,-2.3033,-2.3365,-2.3537,-2.3537,-2.4086,-2.4687,-2.5354,-2.5929,-2.6504,-2.7053,-2.7346,-2.7633,-2.7915,-2.8242,-2.8673,-2.9157,-2.9248,-2.9718,-3.0355,-3.0678,-3.1399,-3.2348,-3.3109,-3.348,-3.3592,-3.3454,-3.3152,-3.2782,-3.249,-3.2398,-3.2398,-3.2398,-3.2398,-3.2398,-3.2398,-3.2398,-3.2398,-3.2398,-3.2398,-3.2398,-3.2398,-3.2398,-3.2398,-3.2398,-3.1582,-3.0628,-2.9858,-2.955,-2.9196,-2.8519,-2.8719,-2.8867,-2.8587,-2.8629,-2.8732,-2.8865,-2.9121,-2.9335,-2.9528,-2.9728,-2.9989,-3.0372,-3.0137,-2.9799,-2.9448,-2.871,-2.7969,-2.7246,-2.686,-2.6624,-2.6488,-2.659,-2.6691,-2.6858,-2.7023,-2.7153,-2.7299,-2.7168,-2.7168,0.0,0.0,-1.4547,-1.5632,-1.705,-1.8382,0.0,0.0,-2.0815,0.0,-2.1408,-2.1707,-2.31,-2.3364,-2.359,-2.4249,-2.4249,-2.4199,-2.4349,-2.3916,-2.3565,-2.3565,-2.2698,-2.2046,-2.1907,-2.1518,-2.1217,-2.1066,-2.1734,-2.1853,-2.131,-2.2195,-2.2426,-2.1796,-2.2189,-2.2335,-2.2151,-2.2871,-2.3733,-2.4796,-2.5328,-2.5981,-2.6719,-2.7118,-2.7359,-2.7529,-2.7981,-2.8242,-2.8399,-2.8712,-2.9013,-2.9368,-2.9927,-3.0729,-3.1608,-3.2441,-3.2856,-3.3023,-3.3113,-3.2813,-3.2398,-3.2398,-3.2398,-3.2398,-3.2398,-3.2398,-3.2398,-3.2398,-3.2398,-3.2398,-3.2398,-3.2398,-3.2398,-3.2398,-3.2259,-3.2136,-3.2136,-3.1228,-3.0048,-2.8864,-2.8935,-2.8996,-2.8488,-2.8827,-2.8996,-2.8488,-2.8525,-2.8629,-2.8629,-2.8842,-2.9052,-2.9198,-2.938,-2.9633,-2.9968,-2.9928,-2.9729,-2.9362,-2.8724,-2.8025,-2.7236,-2.6875,-2.6657,-2.6607,-2.6454,-2.6471,-2.6691,-2.7071,-2.725,-2.725,-2.7104,-2.712,0.0,-1.2171,0.0,-1.4078,-1.469,0.0,0.0,0.0,-1.897,-2.1054,-2.1094,-2.0918,-2.1506,-2.1619,-2.197,-2.302,-2.2757,-2.2594,-2.312,-2.2719,-2.2397,-2.2397,-2.1882,-2.1358,-2.083,-2.0754,-2.0503,-1.9924,-2.0453,-2.0581,-2.0104,-2.128,-2.1544,-2.0616,-2.1773,-2.2139,-2.1538,-2.2662,-2.3537,-2.4164,-2.4739,-2.562,-2.6706,-2.6745,-2.7013,-2.749,-2.7529,-2.7876,-2.8381,-2.7837,-2.8281,-2.9328,-2.9484,-2.9929,-3.0589,-3.1601,-3.1986,-3.2004,-3.2351,-3.2428,-3.2398,-3.2398,-3.2398,-3.2398,-3.2398,-3.2398,-3.2398,-3.2398,-3.2398,-3.2398,-3.2398,-3.2398,-3.2398,-3.2398,-3.1905,-3.1455,-3.1455,-3.0905,-3.0186,-2.9479,-2.8873,-2.8442,-2.8411,-2.8427,-2.8442,-2.8411,-2.8411,-2.842,-2.842,-2.8581,-2.8653,-2.8468,-2.9075,-2.9418,-2.919,-2.8589,-2.8104,-2.7822,-2.7061,-2.6411,-2.5932,-2.6049,-2.6104,-2.6033,-2.6031,-2.6419,-2.725,-2.7168,-2.7119,-2.7119,-2.6975,-2.6991,0.0,0.0,0.0,-1.267,-1.3635,-1.4731,-1.5941,-1.6981,-1.8026,-1.9195,-1.9522,-1.9773,-2.0313,-2.1004,-2.1619,-2.202,-2.1907,-2.1845,-2.2046,-2.1907,-2.1782,-2.1782,-2.1292,-2.0905,-2.0717,-2.0352,-2.0024,-1.9823,-2.0365,-2.0467,-1.99,-2.0831,-2.104,-2.0322,-2.0952,-2.1367,-2.1511,-2.189,-2.2399,-2.3027,-2.3968,-2.4635,-2.5066,-2.6209,-2.6811,-2.7,-2.7333,-2.7607,-2.7824,-2.7581,-2.7738,-2.8206,-2.8731,-2.925,-2.9808,-3.0929,-3.1516,-3.1838,-3.2252,-3.2398,-3.2398,-3.2398,-3.2398,-3.2398,-3.2398,-3.2398,-3.2398,-3.2398,-3.2398,-3.2398,-3.2398,-3.2398,-3.2398,-3.2398,-3.1874,-3.1409,-3.1409,-3.0874,-3.0202,-2.9525,-2.8873,-2.8411,-2.8411,-2.8411,-2.8411,-2.8411,-2.8411,-2.8411,-2.8411,-2.8468,-2.8525,-2.8597,-2.8842,-2.9082,-2.935,-2.9096,-2.8766,-2.837,-2.8068,-2.7785,-2.7488,-2.7491,-2.7479,-2.7402,-2.7367,-2.7165,-2.6791,-2.6825,-2.6923,-2.7103,-2.6975,-2.6975,-1.0248,0.0,0.0,0.0,0.0,-1.3753,-1.457,-1.5689,-1.6841,-1.7819,-1.8264,-1.8669,-1.9409,-2.0162,-2.079,-2.1182,-2.1232,-2.1307,-2.1455,-2.133,-2.1232,-2.1232,-2.0742,-2.0402,-2.0402,-2.0024,-1.9798,-1.9798,-2.0189,-2.0239,-1.9823,-2.0436,-2.0669,-2.0372,-2.0574,-2.0857,-2.1224,-2.142,-2.1707,-2.2126,-2.3234,-2.3887,-2.4164,-2.5528,-2.6235,-2.6412,-2.6759,-2.7137,-2.749,-2.749,-2.749,-2.7556,-2.8327,-2.8798,-2.9184,-3.0358,-3.1058,-3.1523,-3.2007,-3.2259,-3.2398,-3.2398,-3.2398,-3.2398,-3.2398,-3.2398,-3.2398,-3.2398,-3.2398,-3.2398,-3.2398,-3.2398,-3.2336,-3.2105,-3.1705,-3.1409,-3.1409,-3.0705,-2.9925,-2.9479,-2.8873,-2.8411,-2.8411,-2.8411,-2.8411,-2.8411,-2.8411,-2.8411,-2.8411,-2.8411,-2.8444,-2.8597,-2.8653,-2.885,-2.9198,-2.8967,-2.8717,-2.8381,-2.8217,-2.8075,-2.7934,-2.803,-2.8053,-2.802,-2.8074,-2.7668,-2.6806,-2.6674,-2.6793,-2.7165,-2.681,-2.6792,0.0,0.0,0.0,0.0,0.0,0.0,-1.3905,-1.4575,-1.5356,-1.7049,-1.7393,-1.7664,-1.8732,-1.8945,-1.9309,-2.0415,-2.0629,-2.0855,-2.1395,-2.1006,-2.0666,-2.0666,-2.015,-1.9798,-1.9798,-1.9798,-1.9798,-1.9798,-1.9798,-1.9798,-1.9798,-2.0042,-2.0334,-2.0687,-2.0699,-2.0699,-2.0699,-2.1211,-2.1485,-2.1498,-2.2648,-2.3469,-2.4057,-2.4717,-2.5275,-2.5767,-2.578,-2.6419,-2.7438,-2.7438,-2.7451,-2.753,-2.83,-2.8573,-2.8748,-2.9884,-3.0613,-3.1058,-3.1538,-3.2007,-3.2398,-3.2398,-3.2398,-3.2398,-3.2398,-3.2398,-3.2398,-3.2398,-3.2398,-3.2398,-3.2398,-3.2382,-3.2198,-3.1563,-3.1378,-3.132,-3.132,-3.0304,-2.9371,-2.9417,-2.8889,-2.8411,-2.8411,-2.8411,-2.8411,-2.8411,-2.8411,-2.8411,-2.8411,-2.8411,-2.8411,-2.8411,-2.8558,-2.8685,-2.8708,-2.8101,-2.7711,-2.7711,-2.7303,-2.7056,-2.7056,-2.7443,-2.766,-2.7729,-2.7994,-2.7904,-2.7432,-2.675,-2.6715,-2.7273,-2.6506,-2.6436,-0.9773,0.0,0.0,0.0,0.0,0.0,-1.2387,-1.341,-1.4494,-1.5133,-1.5732,-1.6371,-1.7064,-1.7551,-1.794,-1.8265,-1.9296,-2.0087,-2.025,-2.0137,-2.0037,-2.0037,-1.9899,-1.9798,-1.9798,-1.9798,-1.9798,-1.9798,-1.9798,-1.9798,-1.9798,-2.0042,-2.0334,-2.0687,-2.0699,-2.0699,-2.0699,-2.0856,-2.0923,-2.0936,-2.2087,-2.2701,-2.2936,-2.4364,-2.5083,-2.5254,-2.5641,-2.5976,-2.6263,-2.6263,-2.6543,-2.7007,-2.7669,-2.8225,-2.8748,-2.9884,-3.0613,-3.1058,-3.1538,-3.2007,-3.2398,-3.2398,-3.2398,-3.2398,-3.2398,-3.2398,-3.2398,-3.2398,-3.2398,-3.2398,-3.2398,-3.2028,-3.164,-3.1428,-3.0658,-2.995,-2.995,-2.9289,-2.8965,-2.994,-2.9196,-2.8411,-2.8411,-2.8411,-2.8411,-2.8411,-2.8411,-2.8411,-2.8411,-2.8411,-2.8411,-2.8411,-2.8444,-2.8549,-2.8685,-2.8403,-2.827,-2.8404,-2.8155,-2.8163,-2.8505,-2.8618,-2.8628,-2.8501,-2.8567,-2.8551,-2.84,-2.7399,-2.6947,-2.7012,-2.6776,-2.6775,0.0,0.0,0.0,0.0,0.0,0.0,-1.2309,-1.3094,-1.3901,-1.4281,-1.4764,-1.536,-1.6149,-1.6608,-1.6912,-1.7131,-1.812,-1.8955,-1.9108,-1.9133,-1.9133,-1.9133,-1.9133,-1.9133,-1.9133,-1.9346,-1.9472,-1.9472,-1.9673,-1.985,-1.9965,-2.0131,-2.0334,-2.0687,-2.0699,-2.0699,-2.0699,-2.0699,-2.0699,-2.0712,-2.1603,-2.2008,-2.2086,-2.3563,-2.4243,-2.4269,-2.4857,-2.5088,-2.5088,-2.5088,-2.5651,-2.662,-2.735,-2.7906,-2.8446,-2.9522,-3.022,-3.0689,-3.1433,-3.1866,-3.2148,-3.2342,-3.2398,-3.2398,-3.2398,-3.2398,-3.2398,-3.2398,-3.2398,-3.2336,-3.2044,-3.1701,-3.1347,-3.1043,-3.0181,-2.9464,-2.9756,-2.9064,-2.8642,-2.9402,-2.8925,-2.8411,-2.8411,-2.8411,-2.8411,-2.8411,-2.8411,-2.8411,-2.8411,-2.8411,-2.8411,-2.8411,-2.8411,-2.8444,-2.8573,-2.8468,-2.8444,-2.8573,-2.8468,-2.8517,-2.8795,-2.8803,-2.8739,-2.8631,-2.8842,-2.8828,-2.8544,-2.7463,-2.6722,-2.6331,-2.6331,-2.6452,0.0,0.0,0.0,0.0,-1.1913,0.0,-1.2895,-1.3216,-1.3514,-1.4032,-1.4164,-1.4489,-1.5529,-1.5812,-1.6037,-1.6454,-1.6969,-1.7476,-1.7951,-1.8129,-1.8179,-1.8129,-1.8166,-1.8204,-1.8204,-1.8682,-1.8983,-1.892,-1.9422,-1.9851,-2.0182,-2.0207,-2.0334,-2.0687,-2.0699,-2.0699,-2.0699,-2.0699,-2.0699,-2.0712,-2.1237,-2.1511,-2.1551,-2.2635,-2.313,-2.3221,-2.3757,-2.4031,-2.4096,-2.4178,-2.4985,-2.6254,-2.7134,-2.766,-2.8064,-2.9101,-2.9769,-3.0333,-3.1357,-3.1739,-3.1823,-3.2167,-3.2336,-3.2367,-3.2213,-3.2275,-3.2398,-3.2398,-3.2336,-3.2136,-3.1563,-3.132,-3.112,-3.0432,-2.9771,-2.9433,-3.0048,-2.9258,-2.8411,-2.8411,-2.8411,-2.8411,-2.8411,-2.8411,-2.8411,-2.8411,-2.8411,-2.8411,-2.8411,-2.8411,-2.8411,-2.8411,-2.8411,-2.8411,-2.8411,-2.8411,-2.8411,-2.8411,-2.8411,-2.8411,-2.8411,-2.8411,-2.8411,-2.8411,-2.8928,-2.8862,-2.817,-2.7203,-2.636,-2.5616,-2.5629,-2.5908,0.0,0.0,0.0,0.0,-1.1947,0.0,-1.195,-1.2601,-1.324,-1.3181,-1.3306,-1.3528,-1.3919,-1.431,-1.4623,-1.4763,-1.5191,-1.5815,-1.671,-1.7626,-1.8041,-1.7624,-1.794,-1.8204,-1.8204,-1.8682,-1.882,-1.8405,-1.8845,-1.9472,-2.0156,-2.0207,-2.0334,-2.0687,-2.0699,-2.0699,-2.0699,-2.0699,-2.0699,-2.0712,-2.1237,-2.1511,-2.1525,-2.2244,-2.2779,-2.3195,-2.3313,-2.3639,-2.4122,-2.4609,-2.4983,-2.5344,-2.6335,-2.7357,-2.8436,-2.9508,-3.051,-3.1416,-3.1622,-3.1951,-3.2195,-3.1724,-3.1951,-3.2198,-3.1136,-3.1551,-3.2398,-3.2398,-3.1997,-3.1551,-3.1413,-3.0997,-3.0443,-2.974,-2.9064,-2.8642,-2.8765,-2.8596,-2.8411,-2.8411,-2.8411,-2.8411,-2.8411,-2.8411,-2.8411,-2.8411,-2.8411,-2.8411,-2.8411,-2.8411,-2.8411,-2.8411,-2.8411,-2.8411,-2.8411,-2.8411,-2.8411,-2.8411,-2.8411,-2.8411,-2.8411,-2.8411,-2.8411,-2.8411,-2.8858,-2.8765,-2.804,-2.7347,-2.676,-2.6306,-2.6423,-2.6522,0.0,0.0,0.0,-1.2196,0.0,0.0,0.0,-1.2866,-1.3288,-1.3212,-1.3276,-1.3391,-1.3531,-1.3826,-1.4037,-1.4037,-1.4552,-1.5012,-1.5127,-1.5967,-1.6455,-1.6179,-1.6392,-1.6547,-1.6547,-1.7287,-1.7867,-1.8179,-1.8455,-1.8942,-1.9759,-1.981,-2.0076,-2.0674,-2.0699,-2.0699,-2.0699,-2.0699,-2.0699,-2.0699,-2.0975,-2.1106,-2.1132,-2.1708,-2.2243,-2.2805,-2.3093,-2.3535,-2.4109,-2.4426,-2.4543,-2.4675,-2.5998,-2.7329,-2.8609,-2.9563,-3.0238,-3.079,-3.1344,-3.132,-3.104,-3.0933,-3.1136,-3.1351,-3.1012,-3.1597,-3.2321,-3.1982,-3.1643,-3.1255,-3.0582,-3.0166,-2.9725,-2.9048,-2.8658,-2.8411,-2.8411,-2.8411,-2.8411,-2.8411,-2.8411,-2.8411,-2.8411,-2.8411,-2.8411,-2.8411,-2.8411,-2.8411,-2.8411,-2.8411,-2.8411,-2.8411,-2.8411,-2.8411,-2.8411,-2.8411,-2.8411,-2.8411,-2.8411,-2.8411,-2.8411,-2.8411,-2.8411,-2.8411,-2.8645,-2.8576,-2.8202,-2.7769,-2.7381,-2.7086,-2.6399,-2.6322,0.0,0.0,0.0,0.0,0.0,-1.3213,0.0,0.0,0.0,-1.3493,-1.3386,-1.3348,-1.3539,-1.362,-1.3667,-1.3618,-1.419,-1.4413,-1.3746,-1.4228,-1.4702,-1.4835,-1.5057,-1.5164,-1.5118,-1.5952,-1.6964,-1.8116,-1.8103,-1.8398,-1.9208,-1.9246,-1.9597,-2.0334,-2.0451,-2.0517,-2.0517,-2.0646,-2.0699,-2.0699,-2.0699,-2.0699,-2.0725,-2.1158,-2.1721,-2.2414,-2.2858,-2.3459,-2.4083,-2.4083,-2.4229,-2.4574,-2.5908,-2.7235,-2.8476,-2.9373,-2.9766,-2.9974,-3.088,-3.0605,-2.9883,-3.0144,-3.0125,-3.0156,-3.0966,-3.1397,-3.1567,-3.1289,-3.1105,-3.0766,-2.9689,-2.9387,-2.9243,-2.8565,-2.8411,-2.8411,-2.8411,-2.8411,-2.8411,-2.8411,-2.8411,-2.8411,-2.8411,-2.8411,-2.8411,-2.8411,-2.8411,-2.8411,-2.8411,-2.8411,-2.8411,-2.8411,-2.8288,-2.8273,-2.8396,-2.8288,-2.8273,-2.8396,-2.8411,-2.8411,-2.8411,-2.8411,-2.8411,-2.8411,-2.8273,-2.8273,-2.8411,-2.799,-2.7848,-2.7867,-2.6617,-2.6461,0.0,0.0,0.0,0.0,-1.3263,-1.3551,-1.3189,0.0,-1.3284,-1.3459,0.0,-1.2724,-1.339,0.0,0.0,-1.2912,-1.3376,-1.3594,-1.3148,-1.3474,-1.3968,-1.4569,-1.5574,-1.6139,-1.5913,-1.6241,-1.6964,-1.8116,-1.7752,-1.7842,-1.8633,-1.8695,-1.8812,-1.9107,-1.9616,-1.9904,-1.9904,-2.0425,-2.0699,-2.0699,-2.0699,-2.0699,-2.0699,-2.0777,-2.1367,-2.2388,-2.2452,-2.3091,-2.4083,-2.4083,-2.4708,-2.566,-2.6084,-2.6724,-2.761,-2.8949,-2.9828,-3.035,-3.0479,-3.0422,-3.0242,-2.9694,-2.9095,-2.8873,-3.0125,-2.975,-2.9089,-3.0186,-3.0079,-2.9597,-2.9433,-2.9387,-2.9243,-2.8565,-2.8411,-2.8411,-2.8411,-2.8411,-2.8411,-2.8411,-2.8411,-2.8411,-2.8411,-2.8411,-2.8411,-2.8411,-2.8411,-2.8411,-2.8411,-2.8411,-2.8411,-2.8411,-2.7873,-2.775,-2.835,-2.7857,-2.7765,-2.8365,-2.8411,-2.8411,-2.8411,-2.8411,-2.8411,-2.8411,-2.7811,-2.7811,-2.8411,-2.7543,-2.7631,-2.8579,-2.8161,-2.8256,0.0,0.0,0.0,0.0,0.0,-1.4069,-1.3328,-1.3146,-1.3093,-1.2909,0.0,0.0,0.0,0.0,0.0,0.0,-1.3124,-1.3419,-1.3549,-1.403,-1.4301,-1.4154,-1.4589,-1.5047,-1.544,-1.5498,-1.5937,-1.697,-1.6876,-1.7076,-1.7796,-1.8057,-1.8393,-1.8832,-1.9475,-1.9799,-1.9799,-2.0399,-2.0699,-2.0699,-2.0699,-2.0699,-2.0699,-2.0699,-2.1328,-2.2388,-2.2401,-2.3041,-2.4083,-2.4083,-2.4578,-2.5398,-2.5972,-2.7043,-2.839,-2.9119,-2.9571,-2.9817,-2.9817,-2.9556,-2.9196,-2.8919,-2.8904,-2.9104,-2.9648,-2.9981,-3.0089,-2.9889,-2.9894,-2.9787,-2.9002,-2.8827,-2.8765,-2.8473,-2.8411,-2.8411,-2.8411,-2.8411,-2.8411,-2.8411,-2.8411,-2.8411,-2.8411,-2.8411,-2.8411,-2.8411,-2.8411,-2.8411,-2.8411,-2.8411,-2.8411,-2.8411,-2.7796,-2.7673,-2.835,-2.7426,-2.7272,-2.8334,-2.8411,-2.8411,-2.8411,-2.8411,-2.8411,-2.8411,-2.8119,-2.8119,-2.8411,-2.8,-2.8213,-2.8914,-2.7774,-2.7679,-1.459,-1.4846,-1.4881,-1.496,-1.4704,-1.4243,-1.3599,-1.3276,-1.2967,-1.2488,-1.2262,0.0,0.0,0.0,-1.1712,-1.2124,0.0,-1.2947,-1.3388,-1.3974,-1.4249,-1.3947,-1.4147,-1.4524,-1.5062,-1.5225,-1.5509,-1.6042,-1.6166,-1.6468,-1.7006,-1.7377,-1.78,-1.8287,-1.9115,-1.9564,-1.9564,-2.0321,-2.0699,-2.0699,-2.0699,-2.0699,-2.0699,-2.0699,-2.1315,-2.2401,-2.2401,-2.3041,-2.4083,-2.4083,-2.4534,-2.5286,-2.589,-2.7205,-2.8758,-2.9035,-2.9135,-2.9135,-2.9135,-2.8827,-2.8411,-2.8411,-2.8735,-2.9135,-2.9135,-2.9812,-3.0366,-2.9412,-2.9464,-2.9617,-2.8658,-2.8411,-2.8411,-2.8411,-2.8411,-2.8411,-2.8411,-2.8411,-2.8411,-2.8411,-2.8411,-2.8411,-2.8411,-2.8411,-2.8411,-2.8411,-2.8411,-2.8411,-2.8411,-2.8411,-2.8411,-2.8411,-2.7642,-2.7396,-2.8073,-2.6872,-2.6595,-2.778,-2.7857,-2.7857,-2.7857,-2.8027,-2.8134,-2.8134,-2.8134,-2.8227,-2.8411,-2.8227,-2.8387,-2.8873,-2.7748,-2.7784,-1.5594,-1.5488,-1.5344,-1.5586,-1.4697,-1.3791,-1.4018,-1.3609,-1.3031,-1.2431,-1.188,-1.1492,-1.1431,-1.1044,0.0,0.0,-1.1282,0.0,0.0,-1.2585,-1.3274,-1.4087,-1.5056,-1.55,-1.5142,-1.5968,-1.6332,-1.5851,-1.5936,-1.6136,-1.6415,-1.6645,-1.6831,-1.7062,-1.826,-1.8937,-1.8937,-2.0098,-2.0699,-2.0699,-2.0699,-2.0699,-2.0699,-2.0699,-2.1328,-2.2413,-2.2413,-2.3054,-2.4083,-2.4083,-2.4765,-2.5783,-2.5945,-2.6837,-2.8075,-2.8345,-2.8442,-2.8442,-2.8442,-2.8427,-2.8411,-2.8411,-2.8411,-2.8442,-2.8442,-2.8473,-2.8488,-2.8442,-2.8458,-2.8458,-2.8411,-2.8411,-2.8411,-2.8411,-2.8411,-2.8411,-2.8411,-2.8411,-2.8411,-2.8411,-2.8411,-2.8411,-2.8411,-2.8411,-2.8411,-2.8411,-2.8411,-2.8411,-2.8411,-2.8411,-2.8411,-2.8411,-2.7211,-2.6688,-2.738,-2.6149,-2.5672,-2.6411,-2.6441,-2.6441,-2.6441,-2.7088,-2.7426,-2.7426,-2.7426,-2.775,-2.8411,-2.775,-2.7765,-2.842,-2.8818,-2.952,-1.7025,-1.7215,-1.7159,-1.6848,-1.6129,-1.5229,-1.4188,-1.3466,-1.2719,-1.1768,-1.1456,-1.1139,-1.0342,-1.0143,0.0,0.0,0.0,-1.1378,0.0,-1.2457,-1.319,-1.3966,-1.449,-1.4843,-1.5014,-1.5216,-1.5401,-1.5589,-1.5682,-1.5874,-1.6187,-1.6563,-1.6831,-1.701,-1.8243,-1.8911,-1.8911,-2.0098,-2.0699,-2.0699,-2.0699,-2.0699,-2.0699,-2.0699,-2.1106,-2.1838,-2.2243,-2.2831,-2.3579,-2.4374,-2.4907,-2.537,-2.6349,-2.7004,-2.7484,-2.8048,-2.86,-2.9048,-2.9048,-2.8781,-2.8411,-2.8411,-2.8411,-2.8411,-2.8411,-2.8719,-2.8956,-2.8535,-2.8735,-2.8965,-2.8519,-2.8411,-2.8411,-2.8411,-2.8411,-2.8411,-2.8411,-2.8411,-2.8411,-2.8411,-2.8411,-2.8411,-2.8411,-2.8411,-2.8411,-2.8411,-2.8411,-2.8411,-2.8411,-2.8411,-2.8227,-2.7796,-2.6934,-2.6495,-2.6718,-2.6303,-2.5933,-2.5687,-2.6118,-2.6402,-2.6402,-2.6633,-2.6949,-2.738,-2.7396,-2.7734,-2.8411,-2.8181,-2.795,-2.7734,-2.7907,-2.8381,-1.8173,-1.8234,-1.8086,-1.7946,-1.7145,-1.6077,-1.4842,-1.4097,-1.3265,-1.1946,-1.1502,-1.1131,-1.0356,-0.9926,-0.9895,0.0,0.0,0.0,0.0,-1.2282,-1.2983,-1.3327,-1.406,-1.4633,-1.4796,-1.4764,-1.4915,-1.537,-1.5271,-1.548,-1.61,-1.6477,-1.6888,-1.7316,-1.8347,-1.9002,-1.9224,-2.0203,-2.0699,-2.0699,-2.0699,-2.0699,-2.0712,-2.0896,-2.1302,-2.1851,-2.2439,-2.3113,-2.3891,-2.4673,-2.5272,-2.5769,-2.6666,-2.7225,-2.7575,-2.8347,-2.8953,-2.9387,-2.9387,-2.9135,-2.8719,-2.8488,-2.8565,-2.8719,-2.8473,-2.8704,-2.8965,-2.8535,-2.8719,-2.8925,-2.8519,-2.8411,-2.8411,-2.8411,-2.8411,-2.8411,-2.8411,-2.8411,-2.8411,-2.8411,-2.8411,-2.8411,-2.8411,-2.8411,-2.8411,-2.8411,-2.8411,-2.8411,-2.8411,-2.8411,-2.8242,-2.7796,-2.6934,-2.6195,-2.5687,-2.5872,-2.5703,-2.4989,-2.561,-2.5903,-2.5656,-2.5872,-2.6441,-2.738,-2.7165,-2.7488,-2.8411,-2.7919,-2.7457,-2.7042,-2.7042,-2.7272]},{"header":{"parameterUnit":"m.s-1","parameterCategory":1,"la1":30.6,"la2":29.2853,"lo1":-89.7004,"lo2":-87.6739,"dy":0.0162,"dx":0.0183,"nx":112,"ny":82,"refTime":"2023-11-18T06:00:00:Z","depth":0,"parameterNumber":3,"parameterNumberName":"V-component_of_WINDS"},"data":[0.0,0.0,0.0,0.0,0.0,0.0,0.0,0.0,0.0,0.0,0.0,0.0,0.0,0.0,0.0,0.0,0.0,0.0,0.0,0.0,0.0,0.0,0.0,0.0,0.0,0.0,0.0,0.0,0.0,0.0,0.0,0.0,0.0,0.0,0.0,0.0,0.0,0.0,0.0,0.0,0.0,0.0,0.0,0.0,0.0,0.0,0.0,0.0,0.0,0.0,0.0,0.0,0.0,0.0,0.0,0.0,0.0,0.0,0.0,0.0,0.0,0.0,0.0,0.0,0.0,0.0,0.0,0.0,0.0,0.0,0.0,0.0,0.0,0.0,0.0,0.0,0.0,0.0,0.0,0.0,0.0,0.0,0.0,0.0,0.0,0.0,0.0,0.0,0.0,0.0,0.2554,0.2656,0.3228,0.3603,0.3615,0.3658,0.3587,0.333,0.0,0.0,0.0,0.0,0.0,0.0,0.0,0.0,0.0,0.0,0.0,0.0,0.0,0.0,0.0,0.0,0.0,0.0,0.0,0.0,0.0,0.0,0.0,0.0,0.0,0.0,0.0,0.0,0.0,0.0,0.0,0.0,0.0,0.0,0.0,0.0,0.0,0.0,0.0,0.0,0.0,0.0,0.0,0.0,0.0,0.0,0.0,0.0,0.0,0.0,0.0,0.0,0.0,0.0,0.0,0.0,0.0,0.0,0.0,0.0,0.0,0.0,0.0,0.0,0.0,0.0,0.0,0.0,0.0,0.0,0.0,0.0,0.0,0.0,0.0,0.0,0.0,0.0,0.0,0.0,0.0,0.0,0.0,0.0,0.0,0.0,0.0,0.0,0.0,0.0,0.0,0.0,0.0,0.0,0.0,0.0,0.0,0.0,0.0,0.0,0.0,0.0,0.0,0.0,0.2799,0.337,0.353,0.3627,0.3681,0.3389,0.3257,0.3374,0.0,0.0,0.0,0.0,0.0,0.0,0.0,0.0,0.0,0.0,0.0,0.0,0.0,0.0,0.0,0.0,0.0,0.0,0.0,0.0,0.0,0.0,0.0,0.0,0.0,0.0,0.0,0.0,0.0,0.0,0.0,0.0,0.0,0.0,0.0,0.0,0.0,0.0,0.0,0.0,0.0,0.0,0.0,0.0,0.0,0.0,0.0,0.0,0.0,0.0,0.0,0.0,0.0,0.0,0.0,0.0,0.0,0.0,0.0,0.0,0.0,0.0,0.0,0.0,0.0,0.0,0.0,0.0,0.0,0.0,0.0,0.0,0.0,0.0,0.0,0.0,0.0,0.0,0.0,0.0,0.0,0.0,0.0,0.0,0.0,0.0,0.0,0.0,0.0,0.0,0.0,0.0,0.0,0.0,0.0,0.0,0.0,0.0,0.0,0.0,0.0,0.0,0.0,0.253,0.2764,0.3329,0.339,0.3452,0.3631,0.3247,0.3217,0.3747,0.3783,0.0,0.0,0.0,0.0,0.0,0.0,0.0,0.0,0.0,0.0,0.0,0.0,0.0,0.0,0.0,0.0,0.0,0.0,0.0,0.0,0.0,0.0,0.0,0.0,0.0,0.0,0.0,0.0,0.0,0.0,0.0,0.0,0.0,0.0,0.0,0.0,0.0,0.0,0.0,0.0,0.0,0.0,0.0,0.0,0.0,0.0,0.0,0.0,0.0,0.0,0.0,0.0,0.0,0.0,0.0,0.0,0.0,0.0,0.0,0.0,0.0,0.0,0.0,0.0,0.0,0.0,0.0,0.0,0.0,0.0,0.0,0.0,0.0,0.0,0.0,0.0,0.0,0.0,0.0,0.0,0.0,0.0,0.0,0.0,0.0,0.0,0.0,0.0,0.0,0.0,0.0,0.0,0.0,0.0,0.0,0.0,0.0,0.0,0.0,0.0,0.0,0.0,0.2592,0.2745,0.3153,0.3197,0.3283,0.3468,0.3096,0.3185,0.3951,0.3735,0.0,0.0,0.0,0.0,0.0,0.0,0.0,0.0,0.0,0.0,0.0,0.0,0.0,0.0,0.0,0.0,0.0,0.0,0.0,0.0,0.0,0.0,0.0,0.0,0.0,0.0,0.0,0.0,0.0,0.0,0.0,0.0,0.0,0.0,0.0,0.0,0.0,0.0,0.0,0.0,0.0,0.0,0.0,0.0,0.0,0.0,0.0,0.0,0.0,0.0,0.0,0.0,0.0,0.0,0.0,0.0,0.0,0.0,0.0,0.0,0.0,0.0,0.0,0.0,0.0,0.0,0.0,0.0,0.0,0.0,0.0,0.0,0.0,0.0,0.0,0.0,0.0,0.0,0.0,0.0,0.0,0.0,0.0,0.0,0.0,0.0,0.0,0.0,0.0,0.0,0.0,0.0,0.0,0.0,0.0,0.0,0.0,0.0,0.0,0.0,0.0,0.0,0.2717,0.2957,0.3178,0.3197,0.3181,0.3138,0.2878,0.3003,0.3679,0.359,0.0,0.0,0.0,0.0,0.0,0.0,0.0,0.0,0.0,0.0,0.0,0.0,0.0,0.0,0.0,0.0,0.0,0.0,0.0,0.0,0.0,0.0,0.0,0.0,0.0,0.0,0.0,0.0,0.0,0.0,0.0,0.0,0.0,0.0,0.0,0.0,0.0,0.0,0.0,0.0,0.0,0.0,0.0,0.0,0.0,0.0,0.0,0.0,0.0,0.0,0.0,0.0,0.0,0.0,0.0,0.0,0.0,0.0,0.0,0.0,0.0,0.0,0.0,0.0,0.0,0.0,0.0,0.0,0.0,0.0,0.0,0.0,0.0,0.0,0.0,0.0,0.0,0.0,0.0,0.0,0.0,0.0,0.0,0.0,0.0,0.0,0.0,0.0,0.0,0.0,0.0,0.0,0.0,0.0,0.0,0.0,0.0,0.0,0.0,0.0,0.0,0.0,0.2912,0.3103,0.3298,0.3097,0.3043,0.3265,0.2965,0.3103,0.3895,0.0,0.0,0.0,0.0,0.0,0.0,0.0,0.0,0.0,0.0,0.0,0.0,0.0,0.0,0.0,0.0,0.0,0.0,0.0,0.0,0.0,0.0,0.0,0.0,0.0,0.0,0.0,0.0,0.0,0.0,0.0,0.0,0.0,0.0,0.0,0.0,0.0,0.0,0.0,0.0,0.0,0.0,0.0,0.0,0.0,0.0,0.0,0.0,0.0,0.0,0.0,0.0,0.0,0.0,0.0,0.0,0.0,0.0,0.0,0.0,0.0,0.0,0.0,0.0,0.0,0.0,0.0,0.0,0.0,0.0,0.0,0.0,0.0,0.0,0.0,0.0,0.0,0.0,0.0,0.0,0.0,0.0,0.0,0.0,0.0,0.0,0.0,0.0,0.0,0.0,0.0,0.0,0.0,0.0,0.0,0.0,0.0,0.0,0.0,0.0,0.0,0.0,0.2915,0.2924,0.303,0.3246,0.2984,0.2874,0.3065,0.2809,0.2915,0.355,0.0,0.0,0.0,0.0,0.0,0.0,0.0,0.0,0.0,0.0,0.0,0.0,0.0,0.0,0.0,0.0,0.0,0.0,0.0,0.0,0.0,0.0,0.0,0.0,0.0,0.0,0.0,0.0,0.0,0.0,0.0,0.0,0.0,0.0,0.0,0.0,0.0,0.0,0.0,0.0,0.0,0.0,0.0,0.0,0.0,0.0,0.0,0.0,0.0,0.0,0.0,0.0,0.0,0.0,0.0,0.0,0.0,0.0,0.0,0.0,0.0,0.0,0.0,0.0,0.0,0.0,0.0,0.0,0.0,0.0,0.0,0.0,0.0,0.0,0.0,0.0,0.0,0.0,0.0,0.0,0.0,0.0,0.0,0.0,0.0,0.0,0.0,0.0,0.0,0.0,0.0,0.0,0.0,0.0,0.0,0.0,0.0,0.0,0.0,0.0,0.0,0.0,0.2893,0.2728,0.2706,0.2979,0.2882,0.268,0.2421,0.2324,0.2346,0.0,0.0,0.0,0.0,0.0,0.0,0.0,0.0,0.0,0.0,0.0,0.0,0.0,0.0,0.0,0.0,0.0,0.0,0.0,0.0,0.0,0.0,0.0,0.0,0.0,0.0,0.0,0.0,0.0,0.0,0.0,0.0,0.0,0.0,0.0,0.0,0.0,0.0,0.0,0.0,0.0,0.0,0.0,0.0,0.0,0.0,0.0,0.0,0.0,0.0,0.0,0.0,0.0,0.0,0.0,0.0,0.0,0.0,0.0,0.0,0.0,0.0,0.0,0.0,0.0,0.0,0.0,0.0,0.0,0.0,0.0,0.0,0.0,0.0,0.0,0.0,0.0,0.0,0.0,0.0,0.0,0.0,0.0,0.0,0.0,0.0,0.0,0.0,0.0,0.0,0.0,0.0,0.0,0.0,0.0,0.0,0.0,0.0,0.0,0.0,0.0,0.0,0.0,0.3215,0.2929,0.2867,0.3181,0.2631,0.2279,0.2394,0.1688,0.1599,0.2452,0.0,0.0,0.0,0.0,0.0,0.0,0.0,0.0,0.0,0.0,0.0,0.0,0.0,0.0,0.0,0.0,0.0,0.0,0.0,0.0,0.0,0.0,0.0,0.0,0.0,0.0,0.0,0.0,0.0,0.0,0.0,0.0,0.0,0.0,0.0,0.0,0.0,0.0,0.0,0.0,0.0,0.0,0.0,0.0,0.0,0.0,0.0,0.0,0.0,0.0,0.0,0.0,0.0,0.0,0.0,0.0,0.0,0.0,0.0,0.0,0.0,0.0,0.0,0.0,0.0,0.0,0.0,0.0,0.0,0.0,0.0,0.0,0.0,0.0,0.0,0.0,0.0,0.0,0.0,0.0,0.0,0.0,0.0,0.0,0.0,0.0,0.0,0.0,0.0,0.0,0.0,0.0,0.0,0.0,0.0,0.0,0.0,0.0,0.0,0.0,0.0,0.0,0.3339,0.2915,0.2763,0.3104,0.2501,0.208,0.2079,0.1294,0.1,0.1472,0.0,0.0,0.0,0.0,0.0,0.0,0.0,0.0,0.0,0.0,0.0,0.0,0.0,0.0,0.0,0.0,0.0,0.0,0.0,0.0,0.0,0.0,0.0,0.0,0.0,0.0,0.0,0.0,0.0,0.0,0.0,0.0,0.0,0.0,0.0,0.0,0.0,0.0,0.0,0.0,0.0,0.0,0.0,0.0,0.0,0.0,0.0,0.0,0.0,0.0,0.0,0.0,0.0,0.0,0.0,0.0,0.0,0.0,0.0,0.0,0.0,0.0,0.0,0.0,0.0,0.0,0.0,0.0,0.0,0.0,0.0,0.0,0.0,0.0,0.0,0.0,0.0,0.0,0.0,0.0,0.0,0.0,0.0,0.0,0.0,0.0,0.0,0.0,0.0,0.0,0.0,0.0,0.0,0.0,0.0,0.0,0.0,0.0,0.0,0.0,0.0,0.0,0.3319,0.2779,0.2539,0.2869,0.2464,0.202,0.1649,0.116,0.0622,0.0037,0.0,0.0,0.0,0.0,0.0,0.0,0.0,0.0,0.0,0.0,0.0,0.0,0.0,0.0,0.0,0.0,0.0,0.0,0.0,0.0,0.0,0.0,0.0,0.0,0.0,0.0,0.0,0.0,0.0,0.0,0.0,0.0,0.0,0.0,0.0,0.0,0.0,0.0,0.0,0.0,0.0,0.0,0.0,0.0,0.0,0.0,0.0,0.0,0.0,0.0,0.0,0.0,0.0,0.0,0.0,0.0,0.0,0.0,0.0,0.0,1.0772,0.998,0.0,0.0,0.0,0.0,0.0,0.0,0.0,0.0,0.0,0.0,0.0,0.0,0.0,0.0,0.0,0.0,0.0,0.0,0.0,0.0,0.0,0.0,0.0,0.0,0.0,0.0,0.0,0.0,0.0,0.0,0.0,0.0,0.0,0.0,0.0,0.0,0.0,0.0,0.0,0.0,0.3353,0.282,0.2606,0.2946,0.2319,0.1856,0.1769,0.1559,0.1021,0.0061,0.0689,0.0,0.0,0.0,0.0,0.0,0.0,0.0,0.0,0.0,0.0,0.0,0.0,0.0,0.0,0.0,0.0,0.0,0.0,0.0,0.0,0.0,0.0,0.0,0.0,0.0,0.0,0.0,0.0,0.0,0.0,0.0,0.0,0.0,0.0,0.0,0.0,0.0,0.0,0.0,0.0,0.0,0.0,0.0,0.0,0.0,0.0,0.0,0.0,0.0,0.0,0.0,0.0,0.0,0.0,0.0,0.0,0.0,0.0,0.0,1.1642,1.1093,0.0,0.0,0.0,0.0,0.0,0.0,0.0,0.0,0.0,0.0,0.0,0.0,0.0,0.0,0.0,0.0,0.0,0.0,0.0,0.0,0.0,0.0,0.0,0.0,0.0,0.0,0.0,0.0,0.0,0.0,0.0,0.0,0.0,0.0,0.0,0.0,0.0,0.0,0.0,0.0,0.3817,0.3201,0.2906,0.3212,0.266,0.2021,0.1378,0.1637,0.1312,0.0077,0.0,0.0,0.0,0.0,0.0,0.0,0.0,0.0,0.0,0.0,0.0,0.0,0.0,0.0,0.0,0.0,0.0,0.0,0.0,0.0,0.0,0.0,0.0,0.0,0.0,0.0,0.0,0.0,0.0,0.0,0.0,0.0,0.0,0.0,0.0,0.0,0.0,0.0,0.0,0.0,0.0,0.0,0.0,0.0,0.0,0.0,0.0,0.0,0.0,0.0,0.0,0.0,0.0,0.0,1.5492,1.5186,1.4923,1.4543,1.4064,1.3514,1.2714,1.2437,1.2493,1.173,0.0,0.0,0.0,0.0,0.0,0.0,0.0,0.0,0.0,0.0,0.0,0.0,0.0,0.0,0.0,0.0,0.0,0.0,0.0,0.0,0.0,0.0,0.7598,0.7531,0.7452,0.7291,0.6982,0.0,0.0,0.0,0.0,0.0,0.0,0.0,0.0,0.0,0.0,0.0,0.4218,0.3627,0.3296,0.3514,0.3123,0.234,0.1078,0.1791,0.173,0.0378,0.0291,0.0421,0.0,0.0,0.0,0.0,0.0,0.0,0.0,0.0,0.0,0.0,0.0,0.0,0.0,0.0,0.0,0.0,0.0,0.0,0.0,0.0,0.0,0.0,0.0,0.0,0.0,0.0,0.0,0.0,0.0,0.0,0.0,0.0,1.393,1.3217,0.0,0.0,0.0,0.0,0.0,0.0,0.0,0.0,0.0,0.0,0.0,0.0,0.0,1.5233,1.7633,1.7148,1.7666,1.9166,1.9622,1.9297,1.8269,1.8213,1.787,1.7273,1.5447,0.0,1.3136,1.2563,0.0,0.0,0.0,0.0,0.0,0.0,0.0,0.0,0.0,0.0,0.0,0.0,0.0,0.0,0.0,0.0,0.0,0.0,0.0,0.0,0.0,0.0,0.8722,0.8142,0.744,0.6906,0.6966,0.6337,0.5879,0.6254,0.6234,0.6117,0.0,0.0,0.0,0.0,0.0,0.0,0.3943,0.3726,0.3633,0.3672,0.3305,0.268,0.1751,0.2579,0.2659,0.155,0.148,0.2071,0.3415,0.4148,0.0,0.0,0.0,0.0,0.0,0.0,0.0,0.0,0.0,0.0,0.0,0.0,0.0,0.0,0.0,0.0,0.0,0.0,0.0,0.0,0.0,0.0,0.0,0.0,0.0,0.0,0.0,0.0,0.0,1.4688,1.5412,1.4761,1.4948,1.4834,0.0,0.0,0.0,0.0,0.0,0.0,0.0,0.0,0.0,1.7397,1.7497,1.8039,1.9134,1.9176,1.9729,2.0767,2.1015,2.063,1.9661,1.9144,1.8335,1.728,1.5891,1.4955,1.4373,1.3716,1.3375,1.3168,0.0,0.0,0.0,0.0,1.1242,1.0887,1.1215,1.1481,1.1657,1.1421,0.0,0.0,0.0,0.0,0.0,0.0,0.0,0.8967,0.8564,0.861,0.8651,0.8249,0.7665,0.721,0.7264,0.6779,0.6297,0.6255,0.6167,0.6099,0.6092,0.597,0.0,0.0,0.0,0.4582,0.4337,0.4113,0.3985,0.3985,0.3592,0.3019,0.2258,0.2879,0.3032,0.2416,0.2522,0.2903,0.3581,0.3967,0.4246,0.0,0.0,0.0,0.0,0.0,0.0,0.0,0.0,0.0,0.0,0.0,0.0,0.0,0.0,0.0,0.0,0.0,0.0,0.0,0.0,0.0,0.0,0.0,0.0,0.0,0.0,0.0,0.0,1.5634,1.6718,1.5874,1.6254,1.6277,0.0,0.0,0.0,0.0,0.0,0.0,1.7854,1.8486,1.9257,2.0234,2.0637,2.0854,2.091,2.1277,2.1668,2.2097,2.1895,2.1481,2.0852,1.9868,1.8678,1.7372,1.6412,1.5827,1.5441,1.4624,1.4118,1.3786,1.3539,1.3104,1.2587,1.2626,1.2222,1.1729,1.2139,1.2021,1.1753,1.207,1.1632,1.1,1.1143,0.0,0.0,0.0,0.0,0.9181,0.8839,0.8847,0.8863,0.8604,0.8094,0.768,0.768,0.7243,0.6756,0.6419,0.6316,0.623,0.6068,0.5858,0.0,0.5647,0.5096,0.4683,0.4698,0.4488,0.4322,0.4322,0.3934,0.3417,0.2784,0.3093,0.3199,0.29,0.3077,0.3195,0.3195,0.3562,0.3848,0.4022,0.0,0.0,0.0,0.0,0.0,0.0,0.0,0.0,0.0,0.0,0.0,0.0,0.0,0.0,0.0,0.0,0.0,0.0,0.0,0.0,0.0,0.0,0.0,0.0,0.0,0.0,0.0,0.0,0.0,1.5389,1.7758,0.0,0.0,0.0,0.0,1.7631,1.8582,1.9541,2.0371,2.0988,2.1772,2.278,2.266,2.3,2.3874,2.3596,2.3563,2.3761,2.2945,2.2511,2.2451,2.1313,2.0165,1.902,1.8099,1.7069,1.5984,1.4991,1.4818,1.5057,1.3799,1.3552,1.3843,1.3423,1.3145,1.305,1.3387,1.322,1.2804,1.2697,1.2371,1.1849,1.0918,1.0536,0.0,0.0,0.9463,0.9819,0.9297,0.9641,1.0001,0.954,0.8782,0.817,0.817,0.7547,0.6953,0.6802,0.6766,0.6585,0.6005,0.0,0.5684,0.4801,0.4956,0.5052,0.4739,0.4683,0.4676,0.4676,0.4369,0.3946,0.3405,0.3375,0.3229,0.283,0.288,0.2915,0.2915,0.306,0.3355,0.3807,0.3572,0.0,0.0,0.0,0.0,0.0,0.0,0.0,0.0,0.0,0.0,0.0,0.0,0.0,0.0,0.0,0.0,0.0,0.0,0.0,0.0,0.0,0.0,0.0,0.0,0.0,0.0,0.0,0.0,1.9049,2.0287,0.0,1.9644,1.979,1.9991,2.0101,2.1303,2.2168,2.2498,2.3383,2.4077,2.4476,2.4397,2.453,2.4859,2.3939,2.3517,2.3578,2.2487,2.1896,2.1791,2.0644,1.9825,1.9246,1.7919,1.7124,1.6677,1.5712,1.5499,1.574,1.4903,1.4528,1.439,1.3927,1.3466,1.3149,1.3539,1.3284,1.265,1.2012,1.176,1.1597,1.0989,1.0773,1.068,1.0321,1.0383,1.0544,1.034,1.0241,1.0159,0.9994,0.9478,0.9035,0.9035,0.8613,0.8119,0.777,0.718,0.6777,0.6905,0.6309,0.5833,0.5938,0.5524,0.5151,0.5032,0.5024,0.5012,0.4958,0.4473,0.4009,0.3683,0.3338,0.3006,0.269,0.2809,0.2885,0.2834,0.2921,0.3137,0.3479,0.2704,0.2052,0.0,0.0,0.0,0.0,0.0,0.0,0.0,0.0,0.0,0.0,0.0,0.0,0.0,0.0,0.0,0.0,0.0,0.0,0.0,0.0,0.0,0.0,0.0,0.0,0.0,1.9723,2.1366,2.1628,2.271,2.3191,2.2579,2.2551,2.265,2.2868,2.3935,2.4582,2.4582,2.5249,2.5675,2.5773,2.5741,2.5651,2.5576,2.443,2.3802,2.3635,2.2147,2.1376,2.127,2.0098,1.9288,1.8771,1.7799,1.7179,1.6828,1.6375,1.6205,1.6151,1.551,1.5078,1.4749,1.4331,1.3886,1.3491,1.3448,1.315,1.2648,1.1883,1.1687,1.1717,1.1444,1.1261,1.1178,1.1333,1.1138,1.0941,1.1106,1.0786,1.0427,1.0427,1.0077,0.9747,0.9747,0.9402,0.9015,0.8689,0.7729,0.7012,0.7133,0.6461,0.6028,0.6382,0.5921,0.5539,0.5539,0.5473,0.5415,0.537,0.479,0.4213,0.3739,0.3515,0.3127,0.2478,0.2751,0.2852,0.2674,0.2797,0.2939,0.31,0.2047,0.1747,0.2252,0.0,0.0,0.0,0.0,0.0,0.0,0.0,0.0,0.0,0.0,0.0,0.0,0.0,0.0,0.0,0.0,0.0,0.0,0.0,0.0,0.0,0.0,0.0,1.9225,2.1837,2.3496,2.2841,2.4949,2.5936,2.4573,2.5492,2.609,2.5878,2.6418,2.6687,2.6524,2.6537,2.6593,2.6679,2.6555,2.6358,2.61,2.5227,2.4576,2.4147,2.2076,2.1092,2.108,1.9868,1.8763,1.7812,1.7871,1.7352,1.6472,1.7004,1.6881,1.6319,1.5562,1.517,1.4992,1.4637,1.4414,1.4159,1.3235,1.2915,1.2832,1.2452,1.2318,1.2307,1.2307,1.1986,1.1726,1.2183,1.1664,1.1045,1.1509,1.1271,1.0931,1.0941,1.0561,1.0221,1.0242,0.987,0.953,0.953,0.8457,0.7356,0.6686,0.6428,0.6225,0.5986,0.6087,0.0,0.6216,0.6029,0.5896,0.5911,0.5374,0.4619,0.3606,0.3929,0.36,0.219,0.2655,0.2813,0.2421,0.2655,0.2759,0.2692,0.1661,0.2354,0.4834,0.0,0.0,0.0,0.0,0.0,0.0,0.0,0.0,0.0,0.0,0.0,0.0,0.0,0.0,0.0,0.0,0.0,0.0,0.0,0.0,0.0,2.0992,2.2373,2.2243,2.3652,2.5135,2.6246,2.7323,2.7809,2.7319,2.7586,2.7693,2.7503,2.797,2.7932,2.714,2.7444,2.7316,2.658,2.6521,2.6458,2.6396,2.483,2.4026,2.3888,2.1999,2.1345,2.1791,2.0467,1.9994,2.0093,1.8826,1.7905,1.7336,1.7132,1.6809,1.641,1.6582,1.6174,1.5469,1.5003,1.4412,1.3765,1.3493,1.3183,1.2884,1.2782,1.2545,1.2307,1.2307,1.2214,1.2141,1.2266,1.2099,1.1944,1.2058,1.1757,1.1498,1.184,1.1302,1.0797,1.1137,1.057,1.0015,1.0015,0.9387,0.8715,0.8177,0.7295,0.6762,0.7022,0.6437,0.6083,0.6384,0.6163,0.6012,0.6103,0.5845,0.519,0.4035,0.4009,0.3494,0.2185,0.2393,0.2558,0.2544,0.2518,0.2504,0.2484,0.1955,0.2317,0.0,0.0,0.0,0.0,0.0,0.0,0.0,0.0,0.0,0.0,0.0,0.0,0.0,0.0,0.0,0.0,0.0,0.0,0.0,0.0,0.0,0.0,2.3109,2.4879,2.5371,2.6193,2.7128,2.825,2.889,2.916,2.9012,2.8975,2.8937,2.8812,2.8888,2.8512,2.767,2.7708,2.7369,2.6524,2.6499,2.6499,2.6499,2.5193,2.455,2.4537,2.2742,2.2115,2.245,2.112,2.0469,2.032,1.9285,1.8375,1.7668,1.7203,1.6862,1.6661,0.0,0.0,0.0,0.0,1.4417,1.3597,1.3597,1.3421,1.3194,1.3194,1.3041,1.2846,1.2846,1.2722,1.2586,1.2794,1.2576,1.2349,1.2514,1.2224,1.1975,1.2245,1.1882,1.1551,1.183,1.1447,1.1003,1.075,1.0258,0.0,0.9258,0.8367,0.7748,0.7853,0.7272,0.6898,0.7143,0.6631,0.6285,0.6348,0.6066,0.5457,0.4471,0.4512,0.0,0.0,0.0,0.2815,0.2606,0.2716,0.0,0.0,0.0,0.2734,0.2806,0.2887,0.0,0.0,0.3524,0.2507,0.0,0.0,0.0,0.0,0.0,0.0,0.0,0.0,0.0,0.0,0.0,0.0,0.0,0.0,0.0,0.0,2.4874,2.6791,2.8274,2.8858,2.916,2.925,2.972,3.0011,2.983,2.9792,2.9792,2.9792,2.9315,2.875,2.8235,2.767,0.0,0.0,0.0,2.6499,2.6499,2.5887,2.5598,2.5586,2.3891,2.3091,2.3079,2.1799,2.0651,1.9702,1.9546,1.8889,1.7864,1.7305,1.7027,1.6903,1.6539,1.6381,1.6236,1.538,1.449,1.3669,1.3669,0.0,0.0,1.3597,1.3597,1.3597,1.3597,1.3307,1.307,1.3473,1.3041,1.2525,1.2896,1.2668,1.2369,1.2421,1.238,1.2318,1.2348,1.2317,1.2099,1.1481,1.0984,1.0474,0.9886,0.9312,0.881,0.8453,0.8213,0.8075,0.8078,0.727,0.6705,0.67,0.6268,0.0,0.4937,0.5221,0.5011,0.3967,0.3674,0.328,0.2689,0.2994,0.3176,0.3175,0.3544,0.3322,0.2482,0.3337,0.3769,0.3789,0.334,0.2515,0.0,0.0,0.0,0.0,0.0,0.0,0.0,0.0,0.0,0.0,0.0,0.0,0.0,0.0,0.0,2.5363,2.7043,2.8436,2.9378,2.9732,2.9834,2.968,2.9793,2.983,2.9792,2.9792,2.9792,2.9792,2.9691,2.9377,2.8762,2.8247,2.7695,2.7178,2.6725,2.6499,2.6499,2.5887,2.5598,2.5586,2.4379,0.0,2.3748,2.249,2.1775,2.1513,2.0424,1.9617,1.8993,1.7988,1.7141,1.6498,1.6444,1.6184,1.5804,1.5618,1.4966,1.4144,1.4144,1.3931,1.3597,1.3597,1.3597,1.3597,1.3597,1.3535,0.0,1.3566,1.3486,1.3372,1.3431,1.3121,1.2874,1.3269,1.2815,1.2358,1.2641,1.2404,1.1961,1.1358,1.1105,1.0755,0.9934,0.9079,0.8499,0.8416,0.8146,0.7945,0.7939,0.754,0.7281,0.7399,0.7113,0.6503,0.5454,0.5584,0.52,0.3975,0.3458,0.3162,0.3094,0.2654,0.2411,0.2416,0.3009,0.32,0.2966,0.3314,0.3368,0.3171,0.3293,0.2871,0.0,0.0,0.0,0.0,0.0,0.0,0.0,0.0,0.0,0.0,0.0,2.1611,0.0,0.0,2.5738,2.6739,2.8286,2.9466,2.9755,2.9908,2.9895,2.9792,2.9792,2.9792,2.9792,2.9792,2.9792,2.9792,2.9792,2.9541,2.8925,2.8398,2.7846,2.7341,2.6788,2.6499,2.6499,2.621,2.6059,2.6047,2.5197,2.4657,2.4362,2.3461,2.2689,2.207,2.1385,2.0773,2.0145,1.8787,1.748,1.6413,1.6413,1.6122,1.5691,1.5691,1.5245,1.4656,1.4656,1.45,1.4273,1.4035,1.3962,1.3921,1.3659,1.3752,1.391,1.3683,1.3762,1.391,1.3659,1.3421,1.3307,1.3535,1.3269,1.2977,1.3088,1.2909,1.2568,1.1915,1.1613,1.1229,1.0473,0.9789,0.927,0.9041,0.8683,0.8521,0.8728,0.7908,0.7424,0.7729,0.7262,0.6717,0.6155,0.607,0.5642,0.4656,0.4252,0.3783,0.3177,0.3114,0.2961,0.2655,0.3244,0.3535,0.3495,0.3363,0.3232,0.31,0.2962,0.261,0.0,0.0,0.0,0.0,0.0,0.0,0.0,0.0,2.2178,2.2595,2.3627,2.4549,2.4925,2.6157,2.7284,2.7799,2.9103,2.9972,2.983,2.9792,2.9754,2.9641,2.9729,2.9792,2.9792,2.9792,2.9792,2.9792,2.9792,2.9591,2.9076,2.8473,2.7896,2.7457,2.6839,2.6499,2.6499,2.6499,2.6499,2.6487,2.5908,2.5372,2.4913,2.4293,2.3449,2.2456,2.2223,2.1682,2.0854,1.9563,1.8175,1.6864,1.6864,1.6467,1.5939,1.5856,1.5535,1.5132,1.5132,1.507,1.4935,1.4562,1.4438,1.4376,1.4003,1.4148,1.4366,1.3983,1.4134,1.4355,1.3983,1.3865,1.3834,1.3717,1.3769,1.3731,1.3412,1.3395,1.3246,1.2513,1.2104,1.1705,1.1134,1.0772,1.035,0.9705,0.941,0.9337,0.9582,0.8459,0.7813,0.8194,0.7577,0.7085,0.6952,0.6594,0.6155,0.5604,0.5248,0.4559,0.3425,0.3682,0.3567,0.2969,0.3411,0.3653,0.3644,0.3265,0.3055,0.2998,0.2561,0.2242,1.8408,1.8068,1.8191,1.8721,2.0162,2.1943,0.0,0.0,2.6164,2.623,2.7264,2.8026,2.7512,2.8079,2.8849,2.9429,2.9705,2.983,2.9792,2.9792,2.9603,2.9051,2.9478,2.9792,2.9792,2.9792,2.9792,2.9792,2.9792,2.9767,2.9691,2.8687,2.8084,2.8009,2.704,2.6499,2.6499,2.6499,2.6499,2.6487,2.5908,2.5561,2.5473,2.4456,2.3935,2.371,2.2578,2.1469,2.0465,2.0289,1.952,1.8431,1.8431,1.7792,1.681,1.6446,1.6011,1.5608,1.5608,1.5339,1.4987,1.4935,1.4925,1.4914,1.4863,1.4883,1.4914,1.4863,1.4883,1.4914,1.4863,1.4842,1.4713,1.4174,1.4353,1.4384,1.3366,1.3422,1.3367,1.2406,1.2187,1.2012,1.1584,1.1467,1.1026,0.9789,0.9914,1.0021,0.9658,0.9447,0.9343,0.9417,0.9004,0.8475,0.7828,0.7081,0.6622,0.6549,0.5736,0.499,0.4373,0.3661,0.3032,0.2486,0.2659,0.2749,0.2749,0.2695,0.255,0.2313,0.225,0.2205,2.0624,2.0381,2.0749,0.0,2.4113,2.5822,2.7728,2.855,2.8942,2.9146,2.9508,2.9678,2.9202,2.9302,2.9515,0.0,2.9792,2.9792,2.9792,2.9503,2.9089,2.8511,2.8662,2.8938,2.9264,2.9289,2.9428,2.9767,2.9792,2.9792,2.9792,2.9026,2.8436,2.8109,2.7344,2.6813,2.6499,2.6499,2.6499,2.6499,2.6248,2.5762,2.5134,2.4682,2.4086,2.3446,2.2922,2.2068,2.1033,2.0991,2.0326,1.9283,1.8854,1.8414,1.7888,1.707,1.6477,1.6122,1.6122,1.5998,1.5753,1.5484,1.5401,1.5349,1.508,1.5183,1.5339,1.507,1.5194,1.5339,1.507,1.4997,1.4945,1.4671,1.4722,1.4649,1.4103,1.4009,1.3899,1.3408,1.312,1.291,1.2725,1.2285,1.1759,1.1194,1.0655,1.0226,1.0019,0.9558,0.9239,0.9239,0.9088,0.8775,0.8246,0.7698,0.7289,0.7005,0.645,0.5765,0.4998,0.4316,0.3614,0.288,0.2617,0.2519,0.2598,0.2598,0.25,0.2314,0.2235,0.2159,2.1892,2.2118,0.0,2.5565,2.7475,2.9139,3.0702,3.125,3.1399,3.1202,3.0943,3.0599,2.9972,2.9694,2.9553,2.9553,2.9691,2.9792,2.9792,2.9164,2.8549,2.816,2.7833,2.7871,2.8423,2.8574,2.8938,2.9515,2.9553,2.9616,2.9779,2.9239,2.8712,2.8348,2.7657,2.7128,2.6725,2.6562,2.6499,2.6499,2.6499,2.6084,2.5272,2.5109,2.4399,2.3346,2.3346,2.2809,2.1932,2.1877,2.129,2.0392,1.9859,1.9315,1.8807,1.7968,1.7278,1.6736,1.6601,1.656,1.6487,1.6022,1.5877,1.5835,1.5628,1.5794,1.5991,1.5659,1.5804,1.5949,1.5429,1.5316,1.5258,1.5055,1.5009,1.4949,1.4563,1.4443,1.4368,1.4133,1.386,1.3682,1.3682,1.3139,1.2652,1.2418,1.1608,1.093,1.0683,0.9986,0.9493,0.9366,0.9248,0.9047,0.8765,0.8314,0.7894,0.7559,0.7091,0.6465,0.5612,0.5129,0.4514,0.3717,0.3079,0.2823,0.2955,0.2685,0.249,0.2398,0.226,0.2124,2.1591,0.0,2.445,2.7003,2.9544,3.157,3.2273,3.3286,3.3668,3.2182,3.1661,3.101,2.951,2.9051,2.8913,2.8913,2.9428,2.9792,2.9792,2.8825,2.8122,2.8109,2.719,2.6763,0.0,2.7821,2.836,2.8875,2.8913,2.9202,2.9767,2.9239,2.8888,2.8863,2.7846,2.7268,2.7291,2.6763,2.6499,2.6499,2.6499,2.6474,2.6424,2.5824,2.4983,2.3966,2.3966,2.3609,2.3053,2.3053,2.2652,2.2034,2.1992,2.0912,1.9385,1.9331,1.8614,1.7595,1.7151,1.6996,1.6924,1.6508,1.6392,1.6436,1.6831,1.6965,1.6965,1.6925,1.6965,1.6832,1.6214,1.6073,1.5875,1.5181,1.5354,1.5405,1.4343,1.4473,1.4639,1.4192,1.4094,1.4085,1.4085,1.4065,1.3773,1.3013,1.2842,1.251,1.1675,1.1131,1.0692,1.0303,0.9854,0.9579,0.9559,0.8837,0.8378,0.8357,0.7628,0.6903,0.6297,0.6,0.5567,0.496,0.4098,0.3721,0.3861,0.2879,0.2403,0.2398,0.226,0.2124,2.2982,0.0,2.7477,2.962,3.1857,3.3664,3.4352,3.3947,3.3089,3.1738,3.0566,2.9176,2.722,2.7196,2.7498,2.769,2.8567,2.9337,2.9717,2.9465,2.8812,2.7695,2.7231,0.0,0.0,0.0,0.0,2.8825,2.8888,2.9176,2.9767,2.9616,2.9327,2.89,2.821,2.7657,2.7281,2.6776,2.6499,2.6487,2.6097,2.5887,2.5875,2.5322,2.4883,2.4544,2.4544,2.4412,2.4224,2.4224,2.3873,2.3319,2.2887,2.2068,2.1098,2.0196,1.9629,1.92,1.8394,1.7835,1.7532,1.7835,1.7643,1.7213,1.7058,1.7017,1.6955,1.6684,1.6504,1.6366,1.6155,1.6038,1.5892,1.5666,1.5659,1.5593,1.5239,1.5193,1.5156,1.4981,1.4952,1.4952,1.4952,1.4746,1.4277,1.3428,1.2582,1.1917,1.1645,1.1182,1.085,1.0713,1.0321,0.9942,0.9619,0.9341,0.8958,0.8435,0.814,0.767,0.6921,0.6422,0.5985,0.5605,0.492,0.4603,0.4695,0.3727,0.3259,0.3243,0.2442,0.2038,2.4793,2.717,2.9682,3.164,3.3313,3.4623,3.504,3.3935,3.2359,3.0818,2.9271,2.7657,2.5771,2.5721,2.6193,2.6765,2.7653,2.8649,2.9655,2.9277,2.8725,2.8235,2.7645,2.708,0.0,0.0,0.0,2.8549,2.8775,2.9176,2.9767,2.9792,2.9616,2.9252,2.8699,2.8134,2.7582,2.7065,2.6688,2.6487,2.6122,2.59,2.5921,2.5561,2.5297,2.5096,2.5096,2.4883,2.4544,2.4713,2.4494,2.396,2.3527,2.2979,2.2284,2.1201,2.0666,2.0277,1.9034,1.8466,1.83,1.8324,1.8221,1.7996,1.7615,1.7378,1.7203,1.6884,1.6579,1.6289,1.6021,1.5904,1.5827,1.573,1.5662,1.5575,1.5575,1.5478,1.541,1.541,1.541,1.541,1.541,1.5068,1.4541,1.3812,1.2891,1.2171,1.1836,1.1553,1.1318,1.1183,1.0919,1.0563,1.0099,0.9939,0.9562,0.8874,0.8549,0.8176,0.7651,0.7096,0.6716,0.6548,0.5837,0.5499,0.557,0.4576,0.4125,0.4143,0.332,0.2809,2.6891,2.9167,3.1119,3.2927,3.393,3.4488,3.4414,3.3198,3.1501,2.9522,2.7897,2.6397,0.0,2.4623,2.4956,2.6121,2.6802,2.7802,2.9554,2.8461,2.8059,0.0,0.0,0.0,0.0,0.0,0.0,2.8235,2.865,2.9227,2.9804,2.9829,2.9829,2.9792,2.9189,2.8674,2.816,2.757,2.704,2.6499,2.6499,2.6499,2.6499,2.6499,2.6197,2.5636,2.5636,2.5071,2.4167,2.4695,2.4582,2.4079,2.4079,2.3696,2.3003,2.2385,2.1769,2.0965,1.918,1.8945,1.93,1.8269,1.8295,1.8716,1.8501,1.8092,1.7667,1.7492,1.7144,1.6637,1.5879,1.5721,1.5673,1.5449,1.541,1.541,1.541,1.541,1.541,1.541,1.541,1.541,1.541,1.5078,1.4658,1.4172,1.3773,1.3232,1.235,1.2213,1.2047,1.1663,1.1616,1.1418,1.0977,1.0556,1.0121,0.9674,0.8895,0.8455,0.8394,0.7981,0.7732,0.7691,0.683,0.6404,0.6475,0.5399,0.4946,0.5056,0.4745,0.4277,2.8803,3.1128,3.3324,3.324,3.3879,3.4249,3.3245,3.1556,2.9542,2.7243,2.5585,2.3955,2.2041,2.2423,2.3458,2.4702,2.6192,0.0,2.9554,3.0118,0.0,2.9829,0.0,2.9666,2.939,2.9729,0.0,0.0,2.9729,2.9817,3.0382,3.0407,3.0218,2.9804,2.9189,2.8825,2.8687,2.7758,2.704,2.6499,2.6499,2.6499,2.6499,2.6499,2.6411,2.6273,2.6273,2.6122,2.5871,2.6021,2.5699,2.5184,2.5184,2.4848,2.4199,2.3154,2.2915,2.2858,2.1047,2.0465,2.0549,2.0748,2.018,1.9297,1.8903,1.8351,1.7689,1.695,1.6859,1.6757,1.5929,1.5851,1.591,1.5488,1.541,1.541,1.541,1.541,1.541,1.541,1.541,1.541,1.541,1.5322,1.5,1.4221,1.4016,1.3646,1.2822,1.2408,1.2164,1.2047,1.178,1.1557,1.1428,1.101,1.0561,1.0139,0.9591,0.9019,0.8414,0.8291,0.8064,0.7719,0.747,0.7346,0.7358,0.6383,0.5945,0.5939,0.5025,0.4277,3.1383,3.3129,3.465,3.4252,3.3875,3.3305,3.2031,3.0003,2.767,2.5184,2.3773,0.0,2.0619,2.1241,2.2412,0.0,0.0,0.0,2.9139,2.993,3.0357,0.0,3.057,0.0,3.0495,3.0771,3.106,0.0,3.0809,3.0532,3.0608,3.062,3.0357,2.9817,2.9478,2.9189,2.8888,2.7833,2.7165,2.6851,2.6612,2.6499,2.6499,2.6499,2.6499,2.6499,2.6499,2.6348,2.6135,2.6386,2.6147,2.5598,2.5598,2.5357,2.4912,2.3985,2.3798,2.3838,2.2801,2.2386,2.2154,2.1634,2.0805,1.9922,1.9383,1.8816,1.8139,1.7251,1.6994,1.6862,1.6285,1.6243,1.6299,1.6015,1.584,1.5693,1.5693,1.5547,1.541,1.541,1.541,1.541,1.541,1.541,1.5089,1.4231,1.4104,1.3802,1.2988,1.2666,1.252,1.252,1.2318,1.2083,1.1888,1.1631,1.1298,1.0904,1.0435,0.99,0.9255,0.9027,0.8732,0.8291,0.8106,0.8002,0.8002,0.7221,0.6818,0.678,0.6184,0.5577,3.4092,3.4979,3.5428,3.5223,3.3738,3.2018,3.0714,2.8394,2.5819,2.3351,0.0,2.1332,2.0021,2.0577,2.1652,2.2874,0.0,2.6277,2.8561,2.8963,2.9628,3.1198,3.106,3.1035,3.1562,3.1612,3.1813,3.229,3.1896,3.1382,3.0746,3.0721,3.0432,2.9817,2.9792,2.9478,2.8787,2.7871,2.7318,2.7203,2.6725,2.6499,2.6499,2.6499,2.6499,2.6499,2.6499,2.621,2.5749,2.6285,2.6197,2.5711,2.5678,2.5556,2.536,2.4781,2.4522,2.4382,2.4235,2.4115,2.3676,2.1809,2.1003,2.0648,1.9998,1.9372,1.8743,1.795,1.7419,1.7056,1.6789,1.6746,1.6775,1.6716,1.6436,1.6183,1.6183,1.5811,1.5478,1.542,1.541,1.541,1.541,1.541,1.5137,1.4309,1.4143,1.3821,1.3091,1.2935,1.2905,1.2905,1.2905,1.2725,1.233,1.2242,1.2038,1.1692,1.124,1.0801,1.0397,0.9975,0.9554,0.9101,0.8684,0.8462,0.8394,0.7866,0.7553,0.7483,0.7616,0.7329,3.5761,3.6118,3.6011,3.4787,3.3075,3.1104,2.8886,2.6418,0.0,0.0,2.0901,2.0098,1.9297,1.9886,2.1052,2.2738,0.0,0.0,0.0,0.0,3.008,0.0,0.0,0.0,0.0,3.2822,0.0,0.0,3.3005,3.251,3.1326,3.1248,3.0809,2.9829,2.9792,2.9302,2.826,2.8059,2.7507,2.6637,2.6537,2.6499,2.6499,2.6499,2.6499,2.6499,2.6499,2.6436,2.6348,2.6449,2.6436,2.6348,2.6155,2.6052,2.5955,2.5262,2.5234,2.5458,2.4537,2.4035,2.3718,2.303,2.2286,2.1565,2.0994,1.9966,1.888,1.8388,1.8044,1.766,1.6882,1.7002,1.7178,1.6785,1.6638,1.659,1.659,1.6269,1.587,1.5488,1.541,1.541,1.541,1.541,1.5244,1.4746,1.4338,1.3929,1.3467,1.3096,1.2905,1.2905,1.2905,1.2876,1.2798,1.2408,1.2174,1.2096,1.1723,1.1261,1.0822,1.0734,1.0293,0.9499,0.9095,0.8744,0.8394,0.8176,0.8019,0.7902,0.8086,0.7799,3.6067,3.6469,3.6649,3.5256,3.2956,3.0396,2.8115,0.0,0.0,0.0,2.0415,1.9836,1.9084,1.9689,0.0,2.1914,0.0,0.0,0.0,0.0,0.0,0.0,0.0,0.0,0.0,3.3781,3.3781,3.3781,3.344,3.289,3.206,3.1445,3.0751,2.9843,2.9792,2.9528,2.8988,2.8398,2.7846,2.7341,2.6763,2.6499,2.6499,2.6499,2.6499,2.6499,2.6499,2.6499,2.6499,2.6499,2.6499,2.6499,2.627,2.6131,2.599,2.5546,2.5469,2.5498,2.4976,2.4676,2.4517,2.4025,2.2751,2.1351,2.1156,2.0376,1.9454,1.8883,1.8624,1.8328,1.7566,1.7549,1.7656,1.7418,1.7227,1.7012,1.6746,1.6377,1.6036,1.5821,1.5566,1.541,1.541,1.541,1.5264,1.4844,1.4609,1.4238,1.3584,1.333,1.3125,1.2925,1.2905,1.2905,1.2905,1.2686,1.2568,1.2568,1.2387,1.2079,1.1607,1.1575,1.1277,1.065,1.0215,0.9865,0.9598,0.9036,0.8663,0.8474,0.8433,0.8187,3.6099,3.6637,3.6911,3.5609,3.2662,2.9552,2.7514,2.4839,0.0,0.0,2.0306,1.9854,1.9099,1.9569,2.0314,0.0,2.1584,2.2882,0.0,0.0,0.0,0.0,0.0,0.0,0.0,3.4035,0.0,3.4105,3.3592,3.2969,3.238,3.128,3.0419,2.983,2.9792,2.9729,2.9616,2.8612,2.8047,2.7921,2.6964,2.6499,2.6499,2.6499,2.6499,2.6499,2.6499,2.6562,2.6663,2.6549,2.6562,2.6628,2.6285,2.6027,2.5875,2.5641,2.543,2.5312,2.5312,2.5312,2.5216,2.4652,2.3163,2.1519,2.1509,2.096,2.0193,1.9595,1.9233,1.8877,1.8361,1.811,1.8008,1.8008,1.7764,1.7393,1.6963,1.6514,1.6233,1.6286,1.5802,1.5439,1.5584,1.5497,1.5293,1.4971,1.4872,1.4541,1.3867,1.3623,1.3429,1.3194,1.3003,1.2905,1.2905,1.2905,1.2905,1.2905,1.2905,1.2725,1.2359,1.235,1.2158,1.1731,1.1277,1.0948,1.0745,0.9971,0.94,0.9088,0.8873,0.8678,3.6495,3.6911,3.6252,3.4938,3.1659,2.8336,2.6679,0.0,0.0,2.0782,2.0321,1.9833,1.9281,1.9192,1.966,2.1067,2.1081,2.2195,0.0,0.0,0.0,0.0,0.0,0.0,0.0,3.282,3.263,3.3159,3.3459,3.3014,3.159,3.0487,2.9856,2.9792,2.9792,2.9541,2.8976,2.8411,2.7858,2.7392,2.6788,2.6499,2.6499,2.6499,2.6499,2.6499,2.6499,2.6788,2.7203,2.67,2.6788,2.7155,2.627,2.591,2.5828,2.5465,2.5312,2.5312,2.5312,2.5312,2.5216,2.4652,2.4078,2.3448,2.2966,2.1963,2.0996,2.0933,1.9987,1.8977,1.8911,1.8462,1.8008,1.8008,1.7978,1.7842,1.7412,1.6973,1.6699,1.6878,1.6107,1.5575,1.6112,1.5748,1.54,1.5361,1.5029,1.4784,1.4678,1.3994,1.3664,1.4047,1.3367,1.2905,1.2905,1.2905,1.2905,1.2905,1.2905,1.2886,1.2846,1.2846,1.2617,1.2155,1.1742,1.1325,1.0879,1.0597,1.0212,0.9721,0.9688,0.9422,3.272,3.4641,3.6073,3.4322,3.1225,2.8171,2.6627,0.0,2.1088,2.0784,2.0356,1.9975,1.9744,1.9435,1.9677,2.1083,2.0239,2.0675,2.4326,0.0,0.0,0.0,0.0,0.0,0.0,0.0,3.3396,3.2626,3.2849,3.2633,3.1627,3.1755,3.1429,3.0482,3.0135,3.0007,3.0097,2.8453,2.8086,2.8962,2.731,2.6663,2.6989,2.6989,2.6813,2.6512,2.6851,2.6927,2.6801,2.6587,2.6756,2.703,2.6225,2.6037,2.6127,2.5538,2.5312,2.5312,2.5312,2.5312,2.5276,2.5059,2.465,2.4133,2.3649,2.2822,2.2063,2.2063,2.1654,2.1016,2.0138,1.9459,1.8992,1.8817,1.8681,1.8516,1.8184,1.7369,1.6827,1.7277,1.6593,1.614,1.6726,1.6641,1.6358,1.5997,1.61,1.5894,1.4926,1.48,1.4665,1.4184,1.3406,1.3017,1.3296,1.3065,1.2905,1.2905,1.2905,1.2905,1.2905,1.2905,1.2803,1.2627,1.245,1.2244,1.1978,1.1535,1.1142,1.0814,1.0112,0.964,2.9713,3.2133,3.4205,3.2916,3.0026,2.7133,0.0,2.2963,2.0671,2.0408,2.0303,2.0185,2.0043,1.9654,1.9788,2.1098,1.9811,1.9794,2.3066,2.331,0.0,0.0,0.0,3.164,0.0,3.4211,3.394,3.3019,3.2763,3.2629,3.2419,3.3123,3.2755,3.097,3.0579,3.0553,3.0882,2.8841,2.8585,3.0072,2.7962,2.719,2.7532,2.7532,2.7218,2.6763,2.7153,2.7102,2.6738,2.6738,2.6937,2.7184,2.6609,2.6467,2.6566,2.5997,2.5685,2.554,2.554,2.5444,2.5312,2.5312,2.5059,2.4687,2.4326,2.3687,2.3023,2.3023,2.2876,2.2355,2.0896,2.0418,2.0181,1.9777,1.9438,1.9199,1.9009,1.7892,1.7034,1.7512,1.6997,1.6639,1.7112,1.7202,1.7062,1.6641,1.6922,1.6776,1.5665,1.5622,1.546,1.4858,1.4022,1.3591,1.3719,1.3333,1.3066,1.3066,1.3096,1.31,1.3081,1.3204,1.3264,1.3252,1.3135,1.3042,1.2943,1.2351,1.1875,1.1519,1.0694,1.0046,2.8533,2.9744,2.9895,3.04,2.7715,2.463,0.0,2.1368,1.9625,1.961,2.0093,2.0409,2.0135,1.9764,1.9886,2.1103,1.9997,1.9906,2.2532,2.3255,0.0,0.0,0.0,2.8633,3.1907,3.3011,3.3819,3.463,3.3585,3.3242,3.4038,3.4286,3.3311,3.0957,3.1025,3.1047,3.0882,2.9686,2.9412,3.0072,2.8751,2.8097,2.8097,2.8097,2.7795,2.7268,2.7281,2.7281,2.7268,2.7268,2.7499,2.7792,2.7545,2.7347,2.7161,2.6949,2.6562,2.6093,2.6093,2.5745,2.5312,2.5312,2.5312,2.53,2.53,2.4578,2.3806,2.3806,2.327,2.2355,2.0896,2.1107,2.1481,2.0684,2.0118,1.9775,1.9785,1.8533,1.7431,1.7574,1.7255,1.7045,1.7177,1.7202,1.7202,1.7202,1.7202,1.7202,1.7191,1.6295,1.5884,1.6321,1.5548,1.4736,1.4148,1.374,1.3496,1.3496,1.3553,1.3551,1.3512,1.3932,1.416,1.4085,1.3685,1.3496,1.3496,1.2952,1.2314,1.1601,1.1519,1.0804,2.4055,2.591,2.7224,2.6894,2.4944,2.2935,2.2192,2.0433,1.8919,1.8919,1.9405,1.9776,1.9644,1.9674,2.0112,2.1381,2.0583,2.0402,0.0,0.0,0.0,0.0,3.0315,3.2959,0.0,0.0,3.4257,3.4165,3.3881,3.3648,3.348,3.4077,3.3825,3.2492,3.1751,3.1515,3.1838,3.0214,2.9858,3.0766,3.0037,2.9372,2.8782,2.8866,2.8385,2.7412,2.7351,2.7102,2.6788,2.7001,2.7295,2.7557,2.736,2.7404,2.7493,2.7067,2.6574,2.6093,2.6093,2.5745,2.5312,2.5312,2.5312,2.5312,2.5312,2.5083,2.4819,2.4819,2.4272,2.3424,2.2462,2.251,2.2603,2.1618,2.1592,2.1493,2.0499,1.9421,1.8527,1.814,1.8112,1.8205,1.8278,1.8665,1.8716,1.792,1.8186,1.8066,1.7073,1.6794,1.6513,1.5984,1.5739,1.5337,1.4702,1.4323,1.3952,1.3531,1.3553,1.3585,1.3486,1.3942,1.417,1.4094,1.3977,1.3909,1.3909,1.3747,1.311,1.2076,1.1878,1.0982,0.0,2.2661,2.3963,2.3998,2.2605,0.0,2.0527,1.9358,1.8436,1.8617,1.9216,1.9735,1.9774,1.984,2.0183,2.1135,2.0435,2.0225,0.0,0.0,0.0,2.7295,0.0,0.0,0.0,3.4483,3.4493,3.4492,3.4024,3.372,3.3652,3.4113,3.4081,3.3331,3.2397,3.2023,3.23,3.0885,3.0649,3.1542,3.1217,3.0764,3.0219,2.9771,2.9074,2.815,2.7557,2.7115,0.0,2.7167,2.7495,2.7802,2.7797,2.7859,2.7957,2.739,2.6849,2.6382,2.6178,2.5745,2.5312,2.5312,2.5312,2.5312,2.5312,2.5312,2.5312,2.5312,2.4933,2.4384,2.361,2.3758,2.3859,2.2907,2.2849,2.2616,2.1245,2.0371,1.9559,1.8538,1.8877,1.928,1.9154,1.9509,1.955,1.885,1.8812,1.8521,1.7611,1.7335,1.6972,1.6314,1.6343,1.6133,1.5481,1.4948,1.4483,1.41,1.4124,1.4134,1.408,1.4551,1.4807,1.4775,1.4453,1.4321,1.4348,1.4165,1.3649,1.2804,1.2228,1.132,0.0,1.9959,2.0252,0.0,0.0,1.9186,1.8618,1.8243,0.0,1.8497,1.9347,2.0066,2.0243,2.0137,2.0149,2.0576,1.9862,1.9672,0.0,2.1715,0.0,0.0,3.0651,0.0,3.3518,3.3998,3.459,3.5323,3.4098,3.3624,3.4346,3.437,3.4095,3.359,3.2832,3.2392,3.2298,3.1715,3.1696,3.2314,3.2211,3.2164,3.2064,3.0777,2.9911,2.9302,2.8007,2.7415,2.7381,2.774,2.8027,2.8343,2.8675,2.8685,2.845,2.7957,2.7378,2.6825,2.6382,2.5817,2.5312,2.5312,2.5312,2.5312,2.5312,2.5312,2.5312,2.5312,2.5312,2.5123,2.4301,2.4707,2.5087,2.4301,2.3871,2.3305,2.2098,2.137,2.0454,1.8835,1.9483,2.0152,1.9751,1.9816,1.9904,1.9868,1.9229,1.8708,1.8619,1.7844,1.7222,1.7106,1.7134,1.6937,1.6324,1.5576,1.5091,1.499,1.5045,1.5073,1.4998,1.5478,1.5794,1.5864,1.5048,1.4684,1.4806,1.4297,1.3949,1.3703,1.2707,1.1831,1.7289,0.0,1.7699,1.8059,1.7858,1.7556,0.0,1.7349,1.7271,0.0,0.0,1.9085,1.903,1.9595,2.0274,2.0886,2.0837,2.0839,2.1178,0.0,0.0,2.8742,3.2376,3.4593,3.4225,3.4755,3.5218,3.5392,3.4611,3.4196,3.438,3.3949,3.3848,3.4182,3.26,3.1968,3.2457,3.2313,3.2235,3.2314,3.289,3.286,3.2222,3.1501,3.0767,3.0035,2.9184,2.8472,2.7959,2.8276,2.8348,2.8343,2.8675,2.8685,2.8498,2.8366,2.7702,2.6934,2.7248,2.6454,2.5312,2.5312,2.5312,2.5312,2.5312,2.5312,2.5312,2.5312,2.5312,2.5123,2.4301,2.4707,2.5087,2.4301,2.4506,2.4543,2.3351,2.2248,2.1109,1.9748,1.9845,2.0003,1.9486,2.0306,2.0887,2.0478,2.0253,1.9828,1.8939,1.8459,1.7689,1.6345,1.6627,1.6655,1.6046,1.6129,1.5867,1.5036,1.5045,1.5073,1.4998,1.5174,1.5413,1.5749,1.5197,1.4916,1.4935,1.4686,1.4354,1.3989,1.3635,1.3,1.6798,1.6717,1.6691,1.6811,1.6892,1.6972,1.7036,0.0,0.0,0.0,0.0,1.9018,1.9484,1.9911,2.038,2.0959,2.1148,0.0,0.0,0.0,2.9015,3.0185,3.2811,3.4622,3.482,3.4893,3.484,3.4549,3.4201,3.3978,3.3978,3.3383,3.3195,3.3529,3.2191,3.1814,3.2481,3.2176,3.1985,3.1931,3.2699,3.2811,3.2359,3.1439,3.0771,3.0262,2.9283,2.8705,2.8461,2.8562,2.8646,2.8686,2.8773,2.8685,2.8474,2.8234,2.7789,2.727,2.7306,2.661,2.5636,2.5384,2.5312,2.5312,2.5312,2.5312,2.5312,2.5312,2.5312,2.5194,2.4743,2.4969,2.5194,2.4743,2.4969,2.498,2.377,2.2776,2.1798,2.0565,2.0632,2.076,2.0204,2.1024,2.1584,2.1055,2.065,2.0045,1.9022,1.8669,1.7992,1.668,1.6835,1.6902,1.657,1.6784,1.6634,1.597,1.5842,1.5838,1.5904,1.583,1.5727,1.5565,1.5205,1.5,1.5,1.4872,1.4692,1.438,1.4108,1.3556,1.7023,1.6862,1.6736,1.6804,1.6866,1.6921,1.6998,0.0,0.0,0.0,0.0,0.0,0.0,2.0567,0.0,0.0,0.0,0.0,2.4846,2.7887,3.0232,3.1139,3.2651,0.0,3.5014,3.4675,3.4196,3.3692,3.3649,3.3605,3.3503,3.2861,3.2481,3.2481,3.1741,3.17,3.2336,3.177,3.1538,3.164,3.2104,3.2394,3.2466,3.1333,3.0722,3.0556,2.9382,2.9074,2.9377,2.8963,2.897,2.9236,2.8961,2.8685,2.845,2.8005,2.775,2.7594,2.6982,2.6513,2.6129,2.5504,2.5312,2.5312,2.5312,2.5312,2.5312,2.5312,2.5312,2.5312,2.5312,2.5312,2.5312,2.5312,2.5312,2.5039,2.398,2.3144,2.2253,2.1294,2.1453,2.1635,2.1217,2.1796,2.2161,2.1716,2.098,2.0164,1.9195,1.8827,1.8304,1.7318,1.7266,1.7278,1.7194,1.7306,1.7295,1.7134,1.6825,1.674,1.6899,1.6645,1.6142,1.5381,1.5079,1.4921,1.4921,1.4921,1.4852,1.4647,1.4313,1.3859,1.7099,1.7387,1.7556,1.7023,1.6892,1.693,1.7057,0.0,0.0,0.0,0.0,0.0,0.0,2.0897,2.1949,0.0,0.0,2.6407,0.0,0.0,3.1043,3.0605,0.0,3.4138,3.3823,3.4153,3.437,3.4283,3.4269,3.4037,3.3532,3.2861,3.2481,3.2481,3.1351,3.1032,3.164,3.1538,3.177,3.2336,3.1872,3.1944,3.2481,3.2283,3.2121,3.1983,3.1668,3.1559,3.1516,3.0151,2.9794,3.0063,2.9314,2.8816,2.8498,2.8414,2.8114,2.7572,2.6574,2.6478,2.6597,2.5636,2.5312,2.5312,2.5312,2.5312,2.5312,2.5312,2.5312,2.5312,2.5312,2.5312,2.5312,2.5312,2.5312,2.5252,2.5063,2.3363,2.1904,2.2048,2.1535,2.1151,2.1369,2.223,2.2867,2.2782,2.2262,2.1374,1.9912,1.9602,1.8836,1.7063,1.7138,1.7127,1.6751,1.7284,1.7629,1.759,1.719,1.6775,1.6425,1.6151,1.5758,1.5235,1.4793,1.4565,1.4565,1.4565,1.4565,1.4536,1.4471,1.4385,1.7575,1.7781,1.7933,1.7831,1.796,1.8111,1.8165,0.0,0.0,0.0,0.0,0.0,0.0,0.0,2.3885,2.555,0.0,2.914,2.9726,3.1196,3.2171,0.0,3.318,3.392,3.3978,3.3935,3.3761,3.3412,3.305,3.2716,3.2425,3.1816,3.1627,3.193,3.1061,3.0743,3.1003,3.1351,3.1496,3.1467,3.1163,3.1177,3.1467,3.1467,3.1596,3.1755,3.1695,3.183,3.2015,3.0884,3.0368,3.0203,2.9431,2.8685,2.8014,2.7726,2.7642,2.757,2.6815,2.6861,2.715,2.6093,2.5733,2.5685,2.5396,2.5312,2.5312,2.5312,2.5312,2.5312,2.5312,2.5312,2.5312,2.5312,2.5312,2.5312,2.5312,2.3921,2.2715,2.2905,2.259,2.2263,2.2183,2.308,2.3628,2.3063,2.2775,2.2087,2.0646,1.9988,1.9268,1.8205,1.7584,1.7266,1.7345,1.742,1.7434,1.7329,1.7357,1.7095,1.6503,1.6332,1.6046,1.5584,1.5128,1.4764,1.4515,1.4515,1.4515,1.4515,1.4515,1.4515,1.7808,1.8079,1.8343,1.8613,1.8843,1.9103,1.9508,0.0,0.0,0.0,0.0,0.0,0.0,2.3871,0.0,2.8349,3.0052,3.1382,3.2203,3.2974,3.3495,3.3605,3.3667,3.3794,3.3983,3.3561,3.3035,3.2556,3.2002,3.1654,3.1495,3.1061,3.0945,3.1293,3.0829,3.0598,3.0598,3.1206,3.1206,3.0598,3.0917,3.0945,3.083,3.115,3.149,3.1825,3.1766,3.2082,3.2555,3.1599,3.0932,3.0494,2.969,2.8756,2.7861,2.7414,2.7522,2.7798,2.727,2.727,2.7342,2.6418,2.6009,2.5865,2.5576,2.5408,2.5336,2.5456,2.5408,2.5312,2.5312,2.5312,2.5312,2.5312,2.5312,2.5312,2.5312,2.4355,2.3525,2.364,2.3571,2.3398,2.3098,2.3847,2.4218,2.3336,2.3095,2.2504,2.112,2.0281,1.9594,1.9108,1.7959,1.7368,1.7738,1.7486,1.7211,1.7011,1.7273,1.7284,1.6965,1.6627,1.6314,1.6007,1.5459,1.4981,1.4515,1.4515,1.4515,1.4515,1.4515,1.4515,1.7289,1.8162,1.9085,1.9005,1.8799,0.0,2.0682,2.1098,0.0,2.4508,0.0,0.0,0.0,2.6086,2.7671,2.917,3.1338,3.3079,3.3741,3.4725,3.5043,3.4077,3.4178,3.3925,3.2922,3.2664,3.2571,3.2481,3.2452,3.2147,3.1524,3.1451,3.1206,3.0685,3.0627,3.0598,3.0598,3.1206,3.1206,3.0612,3.1801,3.2063,3.1496,3.2701,3.3311,3.3314,3.3138,3.3518,3.4128,3.2627,3.1769,3.1315,3.0532,2.951,2.845,2.8414,2.8426,2.8378,2.7849,2.733,2.6849,2.6298,2.5769,2.5444,2.5901,2.5697,2.5408,2.5901,2.5685,2.5312,2.5312,2.5312,2.5312,2.5312,2.5312,2.5312,2.5312,2.4355,2.3617,2.3971,2.3766,2.3617,2.3936,2.4272,2.4338,2.383,2.3324,2.2539,2.1242,2.0653,1.9913,1.8744,1.7818,1.7241,1.7069,1.7194,1.7211,1.7011,1.6797,1.7078,1.7947,1.6673,1.6036,1.6283,1.5575,1.4981,1.4515,1.4515,1.4515,1.4515,1.4515,1.4515,1.7746,1.8653,1.9462,1.9248,1.9714,0.0,0.0,2.2711,2.3196,2.5008,2.5939,0.0,0.0,0.0,2.8707,3.0451,3.1856,3.2867,3.3426,3.3866,3.3935,3.3431,3.3466,3.3311,3.275,3.2324,3.1997,3.1903,3.1526,3.1206,3.0945,3.093,3.0829,3.0612,3.0598,3.0598,3.0598,3.1613,3.1816,3.1177,3.2077,3.235,3.215,3.2658,3.3093,3.3518,3.3422,3.3787,3.4312,3.3241,3.2599,3.22,3.0355,2.8935,2.7942,2.7618,2.7702,2.7945,2.7378,2.7498,2.7726,2.6861,2.6707,2.6791,2.6659,2.6238,2.5841,2.6045,2.5721,2.5312,2.5312,2.5312,2.5312,2.5312,2.5312,2.5312,2.5312,2.4932,2.4661,2.4826,2.4708,2.4673,2.4826,2.4646,2.435,2.3878,2.3348,2.2723,2.189,2.0762,1.9918,1.9673,1.891,1.8071,1.7188,1.7836,1.798,1.7222,1.7099,1.706,1.7162,1.6909,1.6542,1.6065,1.5777,1.5274,1.4515,1.4515,1.4515,1.4515,1.4515,1.4515,1.7724,1.8603,1.9373,0.0,0.0,0.0,2.3931,2.4064,2.4405,2.6673,2.7758,0.0,0.0,0.0,0.0,0.0,3.1943,3.2691,3.3226,3.3401,3.3339,3.2908,3.2948,3.2779,3.2244,3.1773,3.1419,3.1221,3.0814,3.0598,3.0598,3.0598,3.0598,3.0598,3.0598,3.0598,3.0598,3.1656,3.2046,3.1814,3.2263,3.2629,3.2817,3.3021,3.3354,3.3794,3.3794,3.4008,3.4346,3.3811,3.3157,3.2272,3.0229,2.8847,2.7933,2.7522,2.7618,2.7897,2.733,2.7618,2.8089,2.6982,2.6911,2.714,2.6741,2.6406,2.6093,2.6093,2.5841,2.5516,2.5348,2.5312,2.5312,2.5312,2.5312,2.5312,2.5312,2.5312,2.5312,2.5312,2.5312,2.5312,2.5312,2.4763,2.4179,2.3666,2.3153,2.2659,2.2121,2.089,1.9879,1.9436,1.8859,1.8124,1.7113,1.7915,1.8197,1.7518,1.7327,1.706,1.674,1.6807,1.6627,1.6179,1.5989,1.5555,1.4843,1.4625,1.4515,1.4515,1.4515,1.4515,1.703,1.7885,1.883,0.0,0.0,0.0,2.5319,2.5079,2.5549,2.9982,0.0,3.028,2.9631,2.9548,0.0,3.0584,3.1702,3.2736,3.338,3.3897,3.3759,3.2632,3.2776,3.2488,3.1205,3.0925,3.0762,3.0598,3.0598,3.0598,3.0598,3.0598,3.0598,3.0598,3.0598,3.0598,3.0598,3.1206,3.1814,3.2481,3.2481,3.2846,3.3518,3.4124,3.4399,3.4399,3.4414,3.4414,3.4414,3.4414,3.3262,3.1426,3.0392,2.9394,2.851,2.851,2.851,2.8426,2.7897,2.7717,2.7498,2.6454,2.6105,2.6117,2.6117,2.6105,2.6093,2.6105,2.6093,2.5973,2.5444,2.5312,2.5312,2.5312,2.5312,2.5312,2.5312,2.5312,2.5312,2.5312,2.5312,2.5312,2.5312,2.4553,2.3802,2.3285,2.278,2.2295,2.1753,2.1049,1.976,1.7612,1.7353,1.7132,1.6746,1.7274,1.7693,1.789,1.7337,1.7011,1.7011,1.6293,1.614,1.6676,1.6169,1.5806,1.5574,1.4872,1.4515,1.4515,1.4515,1.4515,1.7628,1.8799,0.0,2.0133,0.0,0.0,0.0,2.5652,0.0,0.0,2.9456,2.9714,2.919,2.9701,0.0,3.0533,3.1255,3.1869,3.2064,3.2199,3.2184,3.1839,3.1871,3.1753,3.1308,3.1102,3.0955,3.0762,3.022,3.0103,3.0583,3.0147,3.0103,3.0598,3.0598,3.0598,3.0598,3.1206,3.1582,3.1785,3.2263,3.2846,3.3518,3.3707,3.3779,3.3808,3.4225,3.4414,3.4414,3.4414,3.3638,3.2384,3.1426,3.043,2.9471,2.8776,2.827,2.7846,2.7318,2.7378,2.7498,2.6454,2.661,2.7248,2.7248,2.6707,2.6178,2.6574,2.6129,2.5504,2.5348,2.5312,2.5312,2.5312,2.5312,2.5312,2.5312,2.5312,2.5312,2.5312,2.5312,2.5312,2.5312,2.4256,2.3379,2.3226,2.2267,2.133,2.0667,1.9922,1.9058,1.7957,1.7884,1.7664,1.696,1.8069,1.8412,1.748,1.702,1.6849,1.6972,1.6293,1.5979,1.614,1.5661,1.5371,1.5313,1.4764,1.4515,1.4515,1.4515,1.4515,1.7976,1.9067,0.0,2.0916,2.2834,2.507,2.6971,0.0,0.0,0.0,0.0,3.0278,2.9994,3.0231,0.0,3.0838,3.1241,3.1511,3.1511,3.1511,3.1511,3.1511,3.1511,3.1438,3.1307,3.1234,3.0955,3.047,3.0003,2.9857,3.0176,2.9813,2.9914,3.0583,3.0598,3.0598,3.0598,3.0945,3.1264,3.1495,3.1671,3.2077,3.2716,3.3271,3.3503,3.3532,3.4138,3.4414,3.4414,3.4414,3.3825,3.2826,3.2132,3.1106,2.9922,2.9145,2.8358,2.7606,2.7078,2.7102,2.7198,2.6142,2.637,2.7043,2.6827,2.6454,2.6129,2.6213,2.5973,2.5576,2.536,2.5312,2.5312,2.5312,2.5312,2.5312,2.5312,2.5312,2.5312,2.5312,2.5312,2.524,2.5035,2.3983,2.3065,2.2754,2.1696,2.0764,2.0161,1.9704,1.9077,1.811,1.808,1.7828,1.714,1.783,1.8,1.7284,1.6624,1.6358,1.6549,1.6132,1.595,1.6065,1.569,1.5517,1.5623,1.4872,1.4515,1.4515,1.4515,1.4515,1.813,0.0,0.0,2.1203,2.3758,0.0,2.9274,3.0424,3.0734,2.9978,0.0,3.1466,3.1375,3.0941,3.0806,3.1406,3.1511,3.1511,3.1511,3.1511,3.1511,3.1511,3.1511,3.1423,3.1246,3.1232,3.0806,2.9899,2.9753,2.9681,2.961,2.9479,2.9798,3.0583,3.0539,3.0539,3.0598,3.0598,3.0872,3.1424,3.0843,3.0872,3.1451,3.273,3.3387,3.3532,3.408,3.4356,3.4414,3.4414,3.3859,3.2946,3.2541,3.1476,3.0101,2.96,2.8697,2.7683,2.7115,2.6898,2.6717,2.5661,2.5661,2.6009,2.5528,2.5685,2.5937,2.5504,2.5697,2.5913,2.5432,2.5312,2.5312,2.5312,2.5312,2.5312,2.5312,2.5312,2.5312,2.5312,2.5264,2.5083,2.4568,2.3746,2.2823,2.1926,2.111,2.0474,2.0139,2.0074,1.9507,1.8202,1.8008,1.7759,1.7235,1.695,1.6921,1.7212,1.6218,1.568,1.5845,1.5787,1.5921,1.6197,1.595,1.595,1.6197,1.5098,1.4536,1.4515,1.4515,1.4515,1.8397,1.939,0.0,0.0,2.594,2.9154,3.0732,3.1247,3.0978,2.9564,3.0468,3.1239,3.0398,3.0829,3.1331,3.1481,3.1511,3.1511,3.1511,3.1511,3.1511,3.1511,3.1511,3.1286,3.072,3.0562,3.0153,2.9335,2.8695,2.869,2.9537,2.8652,2.8884,3.0554,3.0089,3.0074,3.0598,3.0598,3.067,3.0801,3.067,3.067,3.083,3.1584,3.2498,3.3518,3.3649,3.3949,3.4414,3.4414,3.4094,3.3548,3.2733,3.2001,3.1267,2.9896,2.8994,2.8271,2.7267,2.6898,2.6717,2.5661,2.5661,2.6069,2.5961,2.5721,2.554,2.5841,2.5709,2.5456,2.5336,2.5312,2.5312,2.5312,2.5312,2.5312,2.5312,2.5312,2.5312,2.5312,2.4975,2.465,2.4508,2.3461,2.2243,2.1065,2.0702,2.0474,2.014,1.9715,1.9199,1.8486,1.8012,1.7545,1.7003,1.6852,1.6774,1.6762,1.6019,1.5555,1.5497,1.5049,1.499,1.5429,1.5371,1.5371,1.5429,1.5177,1.4872,1.4515,1.4515,1.4515,1.8157,0.0,0.0,2.3805,0.0,2.945,3.0685,3.0762,3.044,2.9831,3.0426,3.0849,3.027,3.0623,3.1122,3.1451,3.1511,3.1511,3.1511,3.1212,3.1017,3.1017,3.0776,3.0447,3.0103,3.0018,2.964,2.8835,2.8331,2.8257,2.875,2.8113,2.829,2.9653,2.9348,2.9334,2.9697,2.9697,2.9697,2.9697,2.9972,3.0277,3.0627,3.1221,3.2063,3.3035,3.3373,3.3692,3.3978,3.4283,3.4264,3.4011,3.315,3.234,3.1526,3.0266,2.8973,2.7701,2.7095,2.6549,2.6021,2.5492,2.5492,2.5721,2.5721,2.5528,2.536,2.5636,2.5528,2.5312,2.5312,2.5312,2.5312,2.5312,2.5312,2.5312,2.5312,2.5107,2.4927,2.4927,2.4518,2.4157,2.4157,2.3245,2.2189,2.1259,2.0828,2.055,2.0356,1.9955,1.9485,1.8944,1.8633,1.8138,1.7339,1.7143,1.697,1.6699,1.6017,1.5683,1.5812,1.5035,1.4784,1.5206,1.5196,1.5196,1.5196,1.4981,1.4734,1.4515,1.4515,1.4515,1.7594,0.0,2.0767,2.4363,2.6726,0.0,2.9802,2.9652,2.941,2.997,3.0216,3.0372,3.0477,3.0417,3.0567,3.1212,3.1241,3.1167,3.1167,3.0702,3.0342,3.0342,2.9894,2.9517,2.9292,2.9262,2.888,2.7947,2.7887,2.78,2.7574,2.7571,2.7837,2.836,2.8463,2.8549,2.8549,2.8651,2.8709,2.8723,2.9319,2.9958,3.0627,3.1119,3.1714,3.235,3.2904,3.33,3.3532,3.392,3.4143,3.423,3.3435,3.2544,3.1573,3.0528,2.8963,2.7295,2.6888,2.6165,2.5432,2.5336,2.5312,2.5312,2.5312,2.5312,2.5312,2.5312,2.5312,2.5312,2.5312,2.5312,2.5312,2.5312,2.5312,2.5312,2.5312,2.4891,2.4484,2.4484,2.4049,2.3637,2.3541,2.2941,2.2276,2.1785,2.1178,2.0764,2.07,2.0399,1.9998,1.9529,1.9365,1.8934,1.8003,1.7711,1.737,1.6863,1.616,1.5904,1.6177,1.5369,1.5059,1.5371,1.5255,1.5147,1.5089,1.4764,1.4595,1.4515,1.4506,1.4506,0.0,0.0,2.1602,0.0,2.5153,2.6859,0.0,0.0,2.806,0.0,2.9304,2.9864,3.0402,3.0058,2.9909,3.0537,3.0193,2.9849,2.9849,2.9786,2.9726,2.9726,2.9651,2.9142,2.7974,2.7869,2.7295,2.5886,2.6322,2.6524,2.6283,2.6787,2.7085,2.7053,2.7563,2.7826,2.7826,2.8405,2.8709,2.8723,2.9319,2.9958,3.0598,3.0685,3.1047,3.1656,3.1743,3.2425,3.346,3.2962,3.3215,3.3782,3.2831,3.2479,3.2299,3.0322,2.9423,2.8859,2.6883,2.6105,2.5913,2.5456,2.5312,2.5312,2.5312,2.5312,2.5312,2.5312,2.5312,2.5312,2.5312,2.5312,2.5312,2.5312,2.5312,2.5312,2.5312,2.4891,2.4484,2.4484,2.3749,2.2975,2.2486,2.2311,2.2114,2.1757,2.162,2.1431,2.1158,2.0775,2.0431,2.0204,1.9661,1.9166,1.8844,1.8479,1.7898,1.7017,1.6656,1.6267,1.581,1.574,1.5864,1.614,1.5546,1.501,1.4595,1.4922,1.4902,1.4515,1.4606,1.4606,1.6772,1.864,2.062,0.0,2.3661,2.527,2.6418,0.0,2.6557,2.6856,2.7156,2.7784,2.9175,2.922,2.925,2.9879,2.9786,2.9606,2.9606,2.9292,2.9026,2.9026,2.8368,2.7705,2.7106,2.6692,2.6204,2.555,2.6059,2.6169,2.5687,2.6157,2.6247,2.5806,2.6006,2.6141,2.6141,2.675,2.7418,2.8158,2.8797,2.9435,3.0045,3.0438,3.0757,3.1003,3.1366,3.1845,3.2382,3.2483,3.2717,3.2982,3.2117,3.1467,3.0831,2.9486,2.8405,2.7446,2.6433,2.5901,2.5612,2.5384,2.5312,2.5312,2.5312,2.5312,2.5312,2.5312,2.5312,2.5312,2.5312,2.5312,2.5312,2.5312,2.5312,2.5312,2.5312,2.4675,2.3929,2.3328,2.3087,2.2811,2.2282,2.2438,2.2503,2.2035,2.1819,2.1651,2.1506,2.1158,2.0828,2.0484,2.0193,1.9802,1.921,1.8923,1.8395,1.739,1.6911,1.6475,1.6049,1.5703,1.5565,1.568,1.5507,1.5332,1.5118,1.4902,1.4704,1.4515,1.4636,1.4636,0.0,0.0,1.9217,2.028,2.1725,2.3213,0.0,0.0,2.4807,0.0,2.5457,2.5869,2.753,2.7844,2.8113,2.8963,2.8963,2.8903,2.9082,2.8502,2.8083,2.8083,2.7051,2.6273,2.6108,2.5644,2.5285,2.5106,2.5616,2.5643,2.4951,2.5477,2.5404,2.4528,2.4752,2.4805,2.4655,2.54,2.6358,2.7478,2.8129,2.8855,2.961,3.0118,3.0452,3.0641,3.1076,3.1366,3.154,3.1888,3.2222,3.2402,3.1537,3.0729,2.9994,2.8827,2.763,2.6504,2.6046,2.5636,2.5312,2.5312,2.5312,2.5312,2.5312,2.5312,2.5312,2.5312,2.5312,2.5312,2.5312,2.5312,2.5312,2.5312,2.5204,2.5107,2.5107,2.4398,2.3529,2.2602,2.2606,2.2654,2.2258,2.2522,2.2654,2.2258,2.1987,2.1819,2.1819,2.1537,2.1253,2.1019,2.0764,2.0366,1.9835,1.9575,1.8985,1.7949,1.7345,1.6839,1.6446,1.5831,1.5507,1.5517,1.5738,1.5671,1.5332,1.4813,1.4565,1.4565,1.4754,1.4725,0.0,1.6675,0.0,1.8346,1.9058,0.0,0.0,0.0,2.2607,2.5091,2.5083,2.4874,2.563,2.5764,2.6183,2.7495,2.718,2.6986,2.7615,2.7136,2.6692,2.6692,2.6078,2.5397,2.4769,2.4679,2.438,2.3744,2.4321,2.4365,2.3643,2.4642,2.462,2.3251,2.4234,2.4534,2.3972,2.5168,2.6141,2.6837,2.7476,2.8391,2.9595,2.9639,3.0001,3.0598,3.0641,3.0959,3.1451,3.0916,3.1409,3.2359,3.1069,3.0858,3.106,2.8768,2.7866,2.7576,2.5906,2.5336,2.5312,2.5312,2.5312,2.5312,2.5312,2.5312,2.5312,2.5312,2.5312,2.5312,2.5312,2.5312,2.5312,2.5312,2.4927,2.452,2.452,2.4145,2.3637,2.3083,2.2558,2.2221,2.2197,2.2209,2.2221,2.2197,2.2197,2.2154,2.2154,2.1882,2.1788,2.2092,2.1221,2.0743,2.1063,2.0628,1.9862,1.8722,1.821,1.7564,1.68,1.6436,1.6312,1.6425,1.6464,1.5835,1.4565,1.4636,1.4686,1.4686,1.5029,1.5,0.0,0.0,0.0,1.7084,1.7972,1.9026,2.0312,2.083,2.1436,2.2775,2.3214,2.3565,2.4208,2.5031,2.5764,2.6243,2.6108,2.6033,2.6273,2.6108,2.5959,2.5959,2.5375,2.4859,2.4634,2.4201,2.3864,2.3625,2.4216,2.4283,2.3611,2.4229,2.4204,2.3275,2.3475,2.3679,2.3891,2.4365,2.4931,2.5575,2.662,2.736,2.7839,2.9044,2.9711,2.9987,3.0423,3.0728,3.0901,3.0699,3.0874,3.1188,3.0276,2.983,2.9549,2.791,2.7096,2.6656,2.5654,2.5312,2.5312,2.5312,2.5312,2.5312,2.5312,2.5312,2.5312,2.5312,2.5312,2.5312,2.5312,2.5312,2.5312,2.5312,2.4903,2.4484,2.4484,2.4121,2.3649,2.3119,2.2558,2.2197,2.2197,2.2197,2.2197,2.2197,2.2197,2.2197,2.2197,2.2092,2.1987,2.1894,2.1537,2.1178,2.0839,2.0658,2.0142,1.9271,1.9021,1.8391,1.7302,1.7262,1.6798,1.582,1.588,1.5684,1.5196,1.5177,1.5001,1.4715,1.5029,1.5029,1.4041,0.0,0.0,0.0,0.0,1.7485,1.8607,1.9288,1.9982,2.1048,2.167,2.2298,2.3131,2.4029,2.4777,2.5187,2.5247,2.5337,2.557,2.542,2.5247,2.5247,2.4664,2.4261,2.4261,2.3864,2.3595,2.3595,2.4007,2.4066,2.3625,2.3822,2.3724,2.3179,2.3,2.3113,2.3572,2.3789,2.4109,2.4573,2.5861,2.6588,2.6837,2.829,2.9073,2.9334,2.9784,3.0205,3.0598,3.0598,3.0598,3.0538,2.9851,2.9369,2.8931,2.7696,2.6939,2.6393,2.5804,2.5488,2.5312,2.5312,2.5312,2.5312,2.5312,2.5312,2.5312,2.5312,2.5312,2.5312,2.5312,2.5312,2.5264,2.5083,2.4771,2.4484,2.4484,2.3989,2.3433,2.3083,2.2558,2.2197,2.2197,2.2197,2.2197,2.2197,2.2197,2.2197,2.2197,2.2197,2.2123,2.1894,2.1788,2.1494,2.1019,2.0805,2.0483,2.0011,1.9666,1.9116,1.8271,1.8159,1.7615,1.6505,1.6413,1.6217,1.5948,1.5673,1.5508,1.5448,1.5517,1.5274,0.0,0.0,0.0,0.0,0.0,0.0,1.7639,1.7878,1.822,2.0139,2.059,2.1051,2.2373,2.2628,2.3062,2.4276,2.453,2.4799,2.5442,2.4978,2.4575,2.4575,2.4014,2.3595,2.3595,2.3595,2.3595,2.3595,2.3595,2.3595,2.3595,2.3414,2.3187,2.2925,2.2888,2.2888,2.2888,2.3557,2.3862,2.3876,2.5154,2.6123,2.6777,2.7391,2.8071,2.868,2.8694,2.9406,3.0539,3.0539,3.0554,3.0509,2.9822,2.9588,2.9446,2.8235,2.7443,2.6939,2.6405,2.5804,2.5312,2.5312,2.5312,2.5312,2.5312,2.5312,2.5312,2.5312,2.5312,2.5312,2.5312,2.53,2.5155,2.4604,2.446,2.447,2.447,2.3676,2.2999,2.3035,2.257,2.2197,2.2197,2.2197,2.2197,2.2197,2.2197,2.2197,2.2197,2.2197,2.2197,2.2197,2.1913,2.1714,2.1683,2.1223,2.0929,2.0929,2.0203,1.9748,1.9748,1.9171,1.8789,1.8616,1.8179,1.7521,1.6687,1.6193,1.6251,1.6836,1.6442,1.5806,1.3733,0.0,0.0,0.0,0.0,0.0,1.5926,1.656,1.7312,1.8481,1.9,1.951,2.0382,2.0917,2.138,2.172,2.2945,2.3939,2.4133,2.3999,2.3879,2.3879,2.3714,2.3595,2.3595,2.3595,2.3595,2.3595,2.3595,2.3595,2.3595,2.3414,2.3187,2.2925,2.2888,2.2888,2.2888,2.3062,2.3186,2.32,2.4476,2.5212,2.5473,2.6999,2.7797,2.7985,2.8477,2.8912,2.9232,2.9232,2.9479,2.9797,2.9157,2.9164,2.9446,2.8235,2.7443,2.6939,2.6405,2.5804,2.5312,2.5312,2.5312,2.5312,2.5312,2.5312,2.5312,2.5312,2.5312,2.5312,2.5312,2.5023,2.4664,2.4554,2.3953,2.34,2.34,2.2883,2.263,2.3445,2.2811,2.2197,2.2197,2.2197,2.2197,2.2197,2.2197,2.2197,2.2197,2.2197,2.2197,2.2197,2.2123,2.1956,2.1714,2.1794,2.1742,2.1502,2.1507,2.1271,2.071,2.0554,1.9999,1.9043,1.8908,1.8719,1.8487,1.7371,1.6433,1.5674,1.5576,1.5381,0.0,0.0,0.0,0.0,0.0,0.0,1.544,1.5885,1.6457,1.7209,1.7595,1.8063,1.9033,1.9489,1.9845,2.0147,2.1357,2.239,2.2772,2.2802,2.2802,2.2802,2.2802,2.2802,2.2802,2.3056,2.3206,2.3206,2.3445,2.3551,2.348,2.3363,2.3187,2.2925,2.2888,2.2888,2.2888,2.2888,2.2888,2.2902,2.394,2.4442,2.453,2.617,2.6924,2.6953,2.7607,2.7924,2.7924,2.7924,2.8364,2.8987,2.8758,2.8521,2.826,2.7651,2.7091,2.6619,2.6317,2.5978,2.5629,2.5382,2.5312,2.5312,2.5312,2.5312,2.5312,2.5312,2.5312,2.5264,2.5035,2.4712,2.4436,2.4254,2.358,2.3071,2.33,2.2758,2.2378,2.3023,2.265,2.2197,2.2197,2.2197,2.2197,2.2197,2.2197,2.2197,2.2197,2.2197,2.2197,2.2197,2.2197,2.2123,2.1925,2.2092,2.2123,2.1925,2.2092,2.203,2.16,2.1557,2.1217,2.0469,2.0102,1.9813,1.9572,1.8134,1.6942,1.6017,1.6017,1.5855,0.0,0.0,0.0,0.0,1.518,0.0,1.5643,1.5681,1.5787,1.6321,1.6439,1.6778,1.7943,1.819,1.8408,1.9054,1.9694,2.0417,2.1346,2.1605,2.1665,2.1605,2.165,2.1695,2.1695,2.2313,2.2673,2.2598,2.3146,2.3448,2.3319,2.3297,2.3187,2.2925,2.2888,2.2888,2.2888,2.2888,2.2888,2.2902,2.3586,2.3891,2.3934,2.5139,2.5745,2.5847,2.6442,2.6747,2.682,2.6852,2.7386,2.8154,2.8344,2.7721,2.6748,2.6784,2.657,2.6194,2.6195,2.6164,2.6,2.5415,2.5264,2.5288,2.5168,2.5216,2.5312,2.5312,2.5264,2.5107,2.4604,2.447,2.4314,2.383,2.3312,2.3047,2.3529,2.2859,2.2197,2.2197,2.2197,2.2197,2.2197,2.2197,2.2197,2.2197,2.2197,2.2197,2.2197,2.2197,2.2197,2.2197,2.2197,2.2197,2.2197,2.2197,2.2197,2.2197,2.2197,2.2197,2.2197,2.2197,2.2197,2.2197,2.1356,2.0682,2.014,1.8522,1.7572,1.7278,1.7084,1.6585,0.0,0.0,0.0,0.0,1.5154,0.0,1.5399,1.5631,1.5814,1.599,1.5963,1.598,1.6083,1.6571,1.6971,1.7057,1.7668,1.8599,1.9914,2.1006,2.15,2.0957,2.138,2.1695,2.1695,2.2313,2.2478,2.1934,2.2508,2.3001,2.329,2.3297,2.3187,2.2925,2.2888,2.2888,2.2888,2.2888,2.2888,2.2902,2.3586,2.3891,2.3905,2.465,2.5299,2.5818,2.5948,2.6312,2.6849,2.7331,2.7625,2.7719,2.6916,2.7001,2.7461,2.6627,2.6289,2.6186,2.6183,2.5873,2.538,2.4841,2.4963,2.5155,2.4326,2.465,2.5312,2.5312,2.4999,2.465,2.4542,2.4218,2.3785,2.3288,2.2758,2.2378,2.2474,2.2342,2.2197,2.2197,2.2197,2.2197,2.2197,2.2197,2.2197,2.2197,2.2197,2.2197,2.2197,2.2197,2.2197,2.2197,2.2197,2.2197,2.2197,2.2197,2.2197,2.2197,2.2197,2.2197,2.2197,2.2197,2.2197,2.2197,2.1451,2.0851,2.0419,1.8273,1.7461,1.7827,1.6391,1.5661,0.0,0.0,0.0,1.5752,0.0,0.0,0.0,1.5642,1.5697,1.571,1.5682,1.561,1.5463,1.5697,1.5901,1.5901,1.6411,1.6968,1.744,1.8778,1.9567,1.9238,1.9492,1.972,1.972,2.0602,2.134,2.1665,2.1994,2.2375,2.2781,2.2789,2.2842,2.291,2.2888,2.2888,2.2888,2.2888,2.2888,2.2888,2.3244,2.3389,2.3418,2.4056,2.4704,2.5328,2.5647,2.6195,2.6835,2.7128,2.7258,2.7165,2.6398,2.5991,2.5816,2.5473,2.5372,2.5381,2.5382,2.5193,2.4856,2.4331,2.4326,2.4494,2.423,2.4687,2.5252,2.4987,2.4723,2.4364,2.3893,2.3568,2.3276,2.2746,2.239,2.2197,2.2197,2.2197,2.2197,2.2197,2.2197,2.2197,2.2197,2.2197,2.2197,2.2197,2.2197,2.2197,2.2197,2.2197,2.2197,2.2197,2.2197,2.2197,2.2197,2.2197,2.2197,2.2197,2.2197,2.2197,2.2197,2.2197,2.2197,2.2197,2.1831,2.1534,2.1348,1.9625,1.8643,1.8313,1.694,1.6368,0.0,0.0,0.0,0.0,0.0,1.6065,0.0,0.0,0.0,1.5522,1.5433,1.5389,1.5404,1.5227,1.5079,1.5124,1.5554,1.5695,1.5166,1.6332,1.729,1.7407,1.7629,1.7794,1.7858,1.8969,2.0262,2.159,2.1575,2.1684,2.2096,2.214,2.2248,2.2533,2.2664,2.2736,2.2736,2.283,2.2888,2.2888,2.2888,2.2888,2.2917,2.3447,2.4123,2.4839,2.5386,2.6054,2.6806,2.6806,2.6674,2.641,2.5965,2.512,2.416,2.4213,2.432,2.4435,2.4398,2.4399,2.4361,2.3817,2.3589,2.3613,2.4194,2.453,2.4662,2.4446,2.4302,2.4037,2.3195,2.3011,2.2847,2.2318,2.2197,2.2197,2.2197,2.2197,2.2197,2.2197,2.2197,2.2197,2.2197,2.2197,2.2197,2.2197,2.2197,2.2197,2.2197,2.2197,2.2197,2.2197,2.2101,2.2089,2.2185,2.2101,2.2089,2.2185,2.2197,2.2197,2.2197,2.2197,2.2197,2.2197,2.2089,2.2089,2.2197,2.0948,1.9818,1.8796,1.7785,1.7348,0.0,0.0,0.0,0.0,1.6452,1.6697,1.6035,0.0,1.5726,1.5551,0.0,1.4997,1.5404,0.0,0.0,1.4498,1.5052,1.5198,1.4443,1.5096,1.5858,1.6396,1.741,1.8162,1.8387,1.9185,2.0262,2.159,2.1156,2.1029,2.1482,2.1506,2.1404,2.122,2.1786,2.2106,2.2106,2.2635,2.2888,2.2888,2.2888,2.2888,2.2888,2.2975,2.3679,2.481,2.4936,2.5701,2.6806,2.6806,2.615,2.5161,2.4806,2.4866,2.497,2.3652,2.3462,2.3872,2.3866,2.3875,2.3788,2.3252,2.2782,2.2558,2.3589,2.3244,2.2727,2.3637,2.3553,2.3123,2.3047,2.3011,2.2847,2.2318,2.2197,2.2197,2.2197,2.2197,2.2197,2.2197,2.2197,2.2197,2.2197,2.2197,2.2197,2.2197,2.2197,2.2197,2.2197,2.2197,2.2197,2.2197,2.1777,2.168,2.2149,2.1765,2.1692,2.2161,2.2197,2.2197,2.2197,2.2197,2.2197,2.2197,2.1728,2.1728,2.2197,2.0567,1.9618,1.9277,1.8244,1.74,0.0,0.0,0.0,0.0,0.0,1.7182,1.6097,1.5842,1.5708,1.5148,0.0,0.0,0.0,0.0,0.0,0.0,1.4544,1.4645,1.4658,1.5277,1.5744,1.5719,1.6168,1.6859,1.784,1.7712,1.8132,1.9564,1.9413,1.9471,1.9982,2.0455,2.0836,2.1099,2.1677,2.1989,2.1989,2.2606,2.2888,2.2888,2.2888,2.2888,2.2888,2.2888,2.3583,2.481,2.4824,2.5589,2.6806,2.6806,2.6299,2.5453,2.4754,2.4403,2.414,2.3318,2.3156,2.3348,2.3348,2.3144,2.2811,2.2594,2.2582,2.2739,2.3216,2.3424,2.3508,2.3352,2.3408,2.3324,2.271,2.2522,2.2474,2.2246,2.2197,2.2197,2.2197,2.2197,2.2197,2.2197,2.2197,2.2197,2.2197,2.2197,2.2197,2.2197,2.2197,2.2197,2.2197,2.2197,2.2197,2.2197,2.1716,2.162,2.2149,2.1428,2.1308,2.2137,2.2197,2.2197,2.2197,2.2197,2.2197,2.2197,2.1969,2.1969,2.2197,2.1485,2.0877,2.034,1.869,1.8233,1.8017,1.8211,1.8132,1.8067,1.7798,1.7317,1.6278,1.5962,1.566,1.4916,1.4646,0.0,0.0,0.0,1.3473,1.3916,0.0,1.4098,1.4515,1.5117,1.5448,1.5221,1.5541,1.6095,1.695,1.6725,1.6889,1.7777,1.7797,1.805,1.8722,1.9256,1.99,2.0669,2.137,2.1728,2.1728,2.2519,2.2888,2.2888,2.2888,2.2888,2.2888,2.2888,2.3621,2.4824,2.4824,2.5589,2.6806,2.6806,2.6367,2.5564,2.4839,2.4016,2.3236,2.2889,2.2763,2.2763,2.2763,2.2522,2.2197,2.2197,2.245,2.2763,2.2763,2.3292,2.3725,2.2979,2.3071,2.3192,2.239,2.2197,2.2197,2.2197,2.2197,2.2197,2.2197,2.2197,2.2197,2.2197,2.2197,2.2197,2.2197,2.2197,2.2197,2.2197,2.2197,2.2197,2.2197,2.2197,2.2197,2.2197,2.1596,2.1404,2.1933,2.0995,2.0779,2.1704,2.1765,2.1765,2.1765,2.1897,2.1981,2.1981,2.1981,2.2053,2.2197,2.2053,2.1782,2.1365,1.9655,1.9229,1.8708,1.8872,1.899,1.874,1.7829,1.6955,1.6743,1.6219,1.5633,1.5014,1.438,1.394,1.399,1.3398,0.0,0.0,1.3327,0.0,0.0,1.3977,1.4486,1.4877,1.611,1.6658,1.5922,1.7049,1.7591,1.6998,1.6757,1.7079,1.8072,1.7967,1.8327,1.9328,2.0458,2.1032,2.1032,2.2272,2.2888,2.2888,2.2888,2.2888,2.2888,2.2888,2.3635,2.4892,2.4892,2.5604,2.6806,2.6806,2.6096,2.5007,2.4782,2.3901,2.2684,2.2345,2.2221,2.2221,2.2221,2.2209,2.2197,2.2197,2.2197,2.2221,2.2221,2.2246,2.2258,2.2221,2.2234,2.2234,2.2197,2.2197,2.2197,2.2197,2.2197,2.2197,2.2197,2.2197,2.2197,2.2197,2.2197,2.2197,2.2197,2.2197,2.2197,2.2197,2.2197,2.2197,2.2197,2.2197,2.2197,2.2197,2.126,2.0851,2.1392,2.043,2.0057,2.0634,2.0658,2.0658,2.0658,2.1163,2.1428,2.1428,2.1428,2.168,2.2197,2.168,2.1692,2.2154,2.1373,2.0289,2.0516,2.079,2.0862,2.1039,1.9962,1.8681,1.8038,1.6891,1.5637,1.4597,1.4146,1.3724,1.2886,1.247,0.0,0.0,0.0,1.3089,0.0,1.3988,1.4458,1.4911,1.5302,1.5641,1.5856,1.5688,1.5672,1.5898,1.5751,1.6083,1.7058,1.7454,1.8168,1.9269,2.0395,2.1003,2.1003,2.2272,2.2888,2.2888,2.2888,2.2888,2.2888,2.2888,2.3389,2.4254,2.4704,2.5357,2.6129,2.6195,2.5961,2.5481,2.441,2.3682,2.3215,2.2561,2.2496,2.2746,2.2746,2.2486,2.2197,2.2197,2.2197,2.2197,2.2197,2.2438,2.2674,2.2294,2.245,2.263,2.2282,2.2197,2.2197,2.2197,2.2197,2.2197,2.2197,2.2197,2.2197,2.2197,2.2197,2.2197,2.2197,2.2197,2.2197,2.2197,2.2197,2.2197,2.2197,2.2197,2.2053,2.1716,2.1043,2.0653,2.0875,2.055,2.0261,2.0069,2.0406,2.0581,2.0581,2.0762,2.1055,2.1392,2.1404,2.1668,2.2197,2.2017,2.1837,2.1668,2.1414,2.1241,2.1899,2.1924,2.1843,2.2311,2.1125,1.9677,1.9212,1.8084,1.6826,1.5674,1.4956,1.4279,1.3496,1.2619,1.2219,0.0,0.0,0.0,0.0,1.3882,1.4356,1.4385,1.4849,1.522,1.5388,1.4764,1.4498,1.4843,1.4523,1.4982,1.6491,1.6914,1.7874,1.9572,2.0511,2.1104,2.1351,2.2388,2.2888,2.2888,2.2888,2.2888,2.2902,2.3157,2.3606,2.4268,2.4921,2.5445,2.5845,2.5887,2.5605,2.5049,2.4063,2.3458,2.3138,2.2751,2.2773,2.3011,2.3011,2.2763,2.2438,2.2258,2.2318,2.2438,2.2246,2.2426,2.263,2.2294,2.2438,2.265,2.2282,2.2197,2.2197,2.2197,2.2197,2.2197,2.2197,2.2197,2.2197,2.2197,2.2197,2.2197,2.2197,2.2197,2.2197,2.2197,2.2197,2.2197,2.2197,2.2197,2.2065,2.1716,2.1043,2.0466,2.0069,2.0213,2.0081,1.9567,2.0009,2.0237,2.0045,2.0213,2.0658,2.1392,2.1223,2.1476,2.2197,2.1813,2.1452,2.1127,2.1127,2.1308]}]]